Time,TemperatureF,DewpointF,PressureIn,WindDirection,WindDirectionDegrees,WindSpeedMPH,WindSpeedGustMPH,Humidity,HourlyPrecipIn,Conditions,Clouds,dailyrainin,SoftwareType,DateUTC
2013-03-17 00:00:00,50.1,49.0,30.09,East,92,0.0,1.0,96,0.00,,SCT200,0.00,VWS V14.01,2013-03-16 10:00:00,
2013-03-17 00:01:00,50.1,49.0,30.09,East,92,0.0,1.0,96,0.00,,BKN050,0.00,VWS V14.01,2013-03-16 10:01:00,
2013-03-17 00:02:00,50.1,49.0,30.08,East,92,0.0,1.0,96,0.00,,BKN050,0.00,VWS V14.01,2013-03-16 10:02:00,
2013-03-17 00:03:00,50.2,49.1,30.08,East,92,0.0,1.0,96,0.00,,BKN050,0.00,VWS V14.01,2013-03-16 10:03:00,
2013-03-17 00:04:00,50.2,49.1,30.08,East,92,0.0,0.0,96,0.00,,BKN050,0.00,VWS V14.01,2013-03-16 10:04:00,
2013-03-17 00:05:00,50.3,49.2,30.08,East,92,0.0,0.0,96,0.00,,SCT200,0.00,VWS V14.01,2013-03-16 10:05:00,
2013-03-17 00:06:00,50.2,49.1,30.08,East,92,0.0,0.0,96,0.00,,BKN050,0.00,VWS V14.01,2013-03-16 10:06:00,
2013-03-17 00:10:00,50.3,49.2,30.08,East,79,0.0,0.0,96,0.00,,SCT200,0.00,VWS V14.01,2013-03-16 10:10:00,
2013-03-17 00:11:00,50.3,49.2,30.08,East,79,0.0,1.0,96,0.00,,BKN050,0.00,VWS V14.01,2013-03-16 10:11:00,
2013-03-17 00:12:00,50.3,49.2,30.08,East,79,1.0,1.0,96,0.00,,BKN050,0.00,VWS V14.01,2013-03-16 10:12:00,
2013-03-17 00:13:00,50.3,49.2,30.09,East,79,1.0,1.0,96,0.00,,BKN050,0.00,VWS V14.01,2013-03-16 10:13:00,
2013-03-17 00:15:00,50.2,49.1,30.09,East,79,0.0,0.0,96,0.00,,SCT200,0.00,VWS V14.01,2013-03-16 10:15:00,
2013-03-17 00:17:00,50.1,48.7,30.09,East,79,0.0,1.0,95,0.00,,BKN050,0.00,VWS V14.01,2013-03-16 10:17:00,
2013-03-17 00:18:00,50.1,48.7,30.09,East,79,0.0,1.0,95,0.00,,BKN050,0.00,VWS V14.01,2013-03-16 10:18:00,
2013-03-17 00:19:00,50.1,48.7,30.08,East,79,0.0,1.0,95,0.00,,BKN050,0.00,VWS V14.01,2013-03-16 10:19:00,
2013-03-17 00:20:00,50.1,48.7,30.08,East,79,0.0,0.0,95,0.00,,SCT200,0.00,VWS V14.01,2013-03-16 10:20:00,
2013-03-17 00:21:00,50.1,48.7,30.08,East,79,0.0,1.0,95,0.00,,BKN050,0.00,VWS V14.01,2013-03-16 10:21:00,
2013-03-17 00:22:00,50.1,48.7,30.08,East,79,1.0,1.0,95,0.00,,BKN050,0.00,VWS V14.01,2013-03-16 10:22:00,
2013-03-17 00:23:00,50.1,48.7,30.08,East,79,0.0,1.0,95,0.00,,BKN050,0.00,VWS V14.01,2013-03-16 10:23:00,
2013-03-17 00:24:00,50.1,48.7,30.08,East,79,0.0,0.0,95,0.00,,BKN050,0.00,VWS V14.01,2013-03-16 10:24:00,
2013-03-17 00:25:00,50.1,48.7,30.08,East,79,1.0,1.0,95,0.00,,SCT200,0.00,VWS V14.01,2013-03-16 10:25:00,
2013-03-17 00:26:00,50.1,48.7,30.08,East,79,0.0,1.0,95,0.00,,BKN050,0.00,VWS V14.01,2013-03-16 10:26:00,
2013-03-17 00:27:00,50.1,48.7,30.08,East,79,1.0,2.0,95,0.00,,BKN050,0.00,VWS V14.01,2013-03-16 10:27:00,
2013-03-17 00:28:00,50.1,48.7,30.08,East,79,0.0,1.0,95,0.00,,BKN050,0.00,VWS V14.01,2013-03-16 10:28:00,
2013-03-17 00:30:00,50.0,48.6,30.08,East,79,0.0,0.0,95,0.00,,SCT200,0.00,VWS V14.01,2013-03-16 10:30:00,
2013-03-17 00:31:00,50.0,48.6,30.08,East,79,0.0,0.0,95,0.00,,BKN050,0.00,VWS V14.01,2013-03-16 10:31:00,
2013-03-17 00:32:00,50.0,48.6,30.08,East,79,0.0,0.0,95,0.00,,BKN050,0.00,VWS V14.01,2013-03-16 10:32:00,
2013-03-17 00:34:00,50.0,48.6,30.08,East,79,0.0,0.0,95,0.00,,BKN050,0.00,VWS V14.01,2013-03-16 10:34:00,
2013-03-17 00:35:00,50.1,48.7,30.08,East,79,0.0,0.0,95,0.00,,SCT200,0.00,VWS V14.01,2013-03-16 10:35:00,
2013-03-17 00:36:00,50.1,48.7,30.08,East,79,0.0,0.0,95,0.00,,BKN050,0.00,VWS V14.01,2013-03-16 10:36:00,
2013-03-17 00:37:00,50.1,48.7,30.08,East,79,1.0,1.0,95,0.00,,BKN050,0.00,VWS V14.01,2013-03-16 10:37:00,
2013-03-17 00:38:00,50.1,48.7,30.08,East,79,0.0,1.0,95,0.00,,BKN050,0.00,VWS V14.01,2013-03-16 10:38:00,
2013-03-17 00:39:00,50.0,48.6,30.08,East,79,0.0,0.0,95,0.00,,BKN050,0.00,VWS V14.01,2013-03-16 10:39:00,
2013-03-17 00:40:00,50.0,48.6,30.08,East,79,0.0,0.0,95,0.00,,SCT200,0.00,VWS V14.01,2013-03-16 10:40:00,
2013-03-17 00:41:00,50.0,48.6,30.08,East,79,0.0,0.0,95,0.00,,BKN050,0.00,VWS V14.01,2013-03-16 10:41:00,
2013-03-17 00:42:00,50.0,48.6,30.08,East,79,0.0,0.0,95,0.00,,BKN050,0.00,VWS V14.01,2013-03-16 10:42:00,
2013-03-17 00:43:00,50.1,48.7,30.08,East,79,1.0,1.0,95,0.00,,BKN050,0.00,VWS V14.01,2013-03-16 10:43:00,
2013-03-17 00:45:00,50.0,48.6,30.07,East,82,0.0,1.0,95,0.00,,SCT200,0.00,VWS V14.01,2013-03-16 10:45:00,
2013-03-17 00:47:00,50.0,48.6,30.07,SE,133,2.0,4.0,95,0.00,,BKN050,0.00,VWS V14.01,2013-03-16 10:47:00,
2013-03-17 00:50:00,49.9,48.5,30.07,SE,133,0.0,1.0,95,0.00,,SCT200,0.00,VWS V14.01,2013-03-16 10:50:00,
2013-03-17 00:55:00,50.2,49.1,30.07,SE,133,0.0,1.0,96,0.00,,SCT200,0.00,VWS V14.01,2013-03-16 10:55:00,
2013-03-17 00:56:00,50.2,48.8,30.07,SE,133,0.0,1.0,95,0.00,,BKN050,0.00,VWS V14.01,2013-03-16 10:56:00,
2013-03-17 00:57:00,50.3,49.2,30.07,SE,133,0.0,1.0,96,0.00,,BKN050,0.00,VWS V14.01,2013-03-16 10:57:00,
2013-03-17 00:58:00,50.3,48.9,30.07,SE,133,0.0,1.0,95,0.00,,BKN050,0.00,VWS V14.01,2013-03-16 10:58:00,
2013-03-17 00:59:00,50.3,48.9,30.07,SE,133,0.0,0.0,95,0.00,,BKN050,0.00,VWS V14.01,2013-03-16 10:59:00,
2013-03-17 01:00:00,50.3,48.9,30.06,SE,133,0.0,0.0,95,0.00,,SCT200,0.00,VWS V14.01,2013-03-16 11:00:00,
2013-03-17 01:02:00,50.3,48.9,30.06,SE,133,0.0,0.0,95,0.00,,BKN050,0.00,VWS V14.01,2013-03-16 11:02:00,
2013-03-17 01:03:00,50.3,48.9,30.06,SE,133,0.0,1.0,95,0.00,,BKN050,0.00,VWS V14.01,2013-03-16 11:03:00,
2013-03-17 01:04:00,50.3,48.9,30.06,SE,133,0.0,0.0,95,0.00,,BKN050,0.00,VWS V14.01,2013-03-16 11:04:00,
2013-03-17 01:05:00,50.2,48.8,30.06,SE,133,1.0,2.0,95,0.00,,SCT200,0.00,VWS V14.01,2013-03-16 11:05:00,
2013-03-17 01:06:00,50.2,48.8,30.06,SE,133,2.0,2.0,95,0.00,,BKN050,0.00,VWS V14.01,2013-03-16 11:06:00,
2013-03-17 01:07:00,50.2,48.8,30.06,SE,133,0.0,2.0,95,0.00,,BKN050,0.00,VWS V14.01,2013-03-16 11:07:00,
2013-03-17 01:08:00,50.2,48.8,30.07,SE,133,0.0,0.0,95,0.00,,BKN050,0.00,VWS V14.01,2013-03-16 11:08:00,
2013-03-17 01:10:00,50.2,48.8,30.07,SE,133,0.0,1.0,95,0.00,,SCT200,0.00,VWS V14.01,2013-03-16 11:10:00,
2013-03-17 01:11:00,50.1,48.7,30.07,SE,133,1.0,2.0,95,0.00,,BKN050,0.00,VWS V14.01,2013-03-16 11:11:00,
2013-03-17 01:13:00,50.1,48.7,30.07,SE,133,0.0,2.0,95,0.00,,BKN050,0.00,VWS V14.01,2013-03-16 11:13:00,
2013-03-17 01:15:00,50.1,48.7,30.07,SE,138,1.0,2.0,95,0.00,,SCT200,0.00,VWS V14.01,2013-03-16 11:15:00,
2013-03-17 01:16:00,50.1,48.7,30.07,SE,138,1.0,3.0,95,0.00,,BKN050,0.00,VWS V14.01,2013-03-16 11:16:00,
2013-03-17 01:17:00,50.0,48.6,30.07,SE,138,0.0,3.0,95,0.00,,BKN050,0.00,VWS V14.01,2013-03-16 11:17:00,
2013-03-17 01:20:00,49.9,48.5,30.07,SE,138,1.0,3.0,95,0.00,,SCT200,0.00,VWS V14.01,2013-03-16 11:20:00,
2013-03-17 01:23:00,49.9,48.5,30.07,SE,138,0.0,2.0,95,0.00,,BKN050,0.00,VWS V14.01,2013-03-16 11:23:00,
2013-03-17 01:24:00,49.9,48.5,30.07,SE,138,1.0,2.0,95,0.00,,BKN050,0.00,VWS V14.01,2013-03-16 11:24:00,
2013-03-17 01:25:00,49.9,48.5,30.06,SE,138,0.0,0.0,95,0.00,,SCT200,0.00,VWS V14.01,2013-03-16 11:25:00,
2013-03-17 01:26:00,49.9,48.5,30.06,SE,138,0.0,1.0,95,0.00,,BKN050,0.00,VWS V14.01,2013-03-16 11:26:00,
2013-03-17 01:27:00,49.8,48.4,30.07,SE,138,0.0,0.0,95,0.00,,BKN050,0.00,VWS V14.01,2013-03-16 11:27:00,
2013-03-17 01:28:00,49.8,48.4,30.06,SE,138,0.0,0.0,95,0.00,,BKN050,0.00,VWS V14.01,2013-03-16 11:28:00,
2013-03-17 01:29:00,49.7,48.3,30.07,SE,138,0.0,0.0,95,0.00,,BKN050,0.00,VWS V14.01,2013-03-16 11:29:00,
2013-03-17 01:30:00,49.7,48.3,30.06,SE,138,0.0,1.0,95,0.00,,SCT200,0.00,VWS V14.01,2013-03-16 11:30:00,
2013-03-17 01:32:00,49.7,48.3,30.06,SE,138,0.0,1.0,95,0.00,,BKN050,0.00,VWS V14.01,2013-03-16 11:32:00,
2013-03-17 01:33:00,49.7,48.3,30.06,SE,138,2.0,2.0,95,0.00,,BKN050,0.00,VWS V14.01,2013-03-16 11:33:00,
2013-03-17 01:34:00,49.7,48.3,30.06,SE,136,2.0,4.0,95,0.00,,BKN050,0.00,VWS V14.01,2013-03-16 11:34:00,
2013-03-17 01:35:00,49.7,48.3,30.06,SE,136,0.0,0.0,95,0.00,,SCT200,0.00,VWS V14.01,2013-03-16 11:35:00,
2013-03-17 01:36:00,49.7,48.3,30.06,SE,136,0.0,2.0,95,0.00,,BKN050,0.00,VWS V14.01,2013-03-16 11:36:00,
2013-03-17 01:37:00,49.7,48.3,30.06,SE,136,0.0,0.0,95,0.00,,BKN050,0.00,VWS V14.01,2013-03-16 11:37:00,
2013-03-17 01:38:00,49.8,48.4,30.06,SE,136,0.0,0.0,95,0.00,,BKN050,0.00,VWS V14.01,2013-03-16 11:38:00,
2013-03-17 01:39:00,49.9,48.5,30.06,SE,136,0.0,0.0,95,0.00,,BKN050,0.00,VWS V14.01,2013-03-16 11:39:00,
2013-03-17 01:40:00,49.9,48.5,30.06,SE,136,0.0,0.0,95,0.00,,SCT200,0.00,VWS V14.01,2013-03-16 11:40:00,
2013-03-17 01:41:00,49.9,48.5,30.06,SE,136,0.0,0.0,95,0.00,,BKN050,0.00,VWS V14.01,2013-03-16 11:41:00,
2013-03-17 01:44:00,50.0,48.6,30.07,SE,136,1.0,1.0,95,0.00,,BKN050,0.00,VWS V14.01,2013-03-16 11:44:00,
2013-03-17 01:45:00,50.0,48.6,30.07,SE,136,0.0,1.0,95,0.00,,SCT200,0.00,VWS V14.01,2013-03-16 11:45:00,
2013-03-17 01:46:00,50.0,48.6,30.07,SE,136,1.0,1.0,95,0.00,,BKN050,0.00,VWS V14.01,2013-03-16 11:46:00,
2013-03-17 01:50:00,49.8,48.4,30.07,SE,136,0.0,1.0,95,0.00,,SCT200,0.00,VWS V14.01,2013-03-16 11:50:00,
2013-03-17 01:52:00,49.7,48.0,30.07,SE,136,0.0,1.0,94,0.00,,BKN050,0.00,VWS V14.01,2013-03-16 11:52:00,
2013-03-17 01:53:00,49.7,48.0,30.07,SE,136,0.0,0.0,94,0.00,,BKN050,0.00,VWS V14.01,2013-03-16 11:53:00,
2013-03-17 01:54:00,49.7,48.3,30.07,SE,136,0.0,0.0,95,0.00,,BKN050,0.00,VWS V14.01,2013-03-16 11:54:00,
2013-03-17 01:55:00,49.6,48.2,30.07,SE,136,2.0,2.0,95,0.00,,SCT200,0.00,VWS V14.01,2013-03-16 11:55:00,
2013-03-17 01:56:00,49.6,48.2,30.07,SE,136,1.0,1.0,95,0.00,,BKN050,0.00,VWS V14.01,2013-03-16 11:56:00,
2013-03-17 01:57:00,49.6,48.2,30.07,SE,136,3.0,3.0,95,0.00,,BKN050,0.00,VWS V14.01,2013-03-16 11:57:00,
2013-03-17 01:58:00,49.6,48.2,30.07,SE,136,1.0,3.0,95,0.00,,BKN050,0.00,VWS V14.01,2013-03-16 11:58:00,
2013-03-17 01:59:00,49.6,48.2,30.07,SE,136,0.0,2.0,95,0.00,,BKN050,0.00,VWS V14.01,2013-03-16 11:59:00,
2013-03-17 02:00:00,49.6,48.2,30.07,SE,136,0.0,1.0,95,0.00,,SCT200,0.00,VWS V14.01,2013-03-16 12:00:00,
2013-03-17 02:05:00,49.6,48.2,30.07,SE,138,0.0,2.0,95,0.00,,SCT200,0.00,VWS V14.01,2013-03-16 12:05:00,
2013-03-17 02:06:00,49.6,48.2,30.07,SE,138,2.0,3.0,95,0.00,,BKN050,0.00,VWS V14.01,2013-03-16 12:06:00,
2013-03-17 02:08:00,49.6,48.2,30.07,SE,138,0.0,0.0,95,0.00,,BKN050,0.00,VWS V14.01,2013-03-16 12:08:00,
2013-03-17 02:09:00,49.7,48.3,30.07,SE,138,1.0,1.0,95,0.00,,BKN050,0.00,VWS V14.01,2013-03-16 12:09:00,
2013-03-17 02:10:00,49.7,48.3,30.07,SE,138,0.0,0.0,95,0.00,,SCT200,0.00,VWS V14.01,2013-03-16 12:10:00,
2013-03-17 02:11:00,49.7,48.3,30.07,SE,138,0.0,2.0,95,0.00,,BKN050,0.00,VWS V14.01,2013-03-16 12:11:00,
2013-03-17 02:12:00,49.7,48.3,30.07,SE,138,0.0,0.0,95,0.00,,BKN050,0.00,VWS V14.01,2013-03-16 12:12:00,
2013-03-17 02:15:00,49.7,48.3,30.07,SE,138,0.0,0.0,95,0.00,,SCT200,0.00,VWS V14.01,2013-03-16 12:15:00,
2013-03-17 02:16:00,49.7,48.3,30.07,SE,138,0.0,0.0,95,0.00,,BKN050,0.00,VWS V14.01,2013-03-16 12:16:00,
2013-03-17 02:18:00,49.8,48.4,30.07,SE,138,0.0,0.0,95,0.00,,BKN050,0.00,VWS V14.01,2013-03-16 12:18:00,
2013-03-17 02:20:00,49.9,48.5,30.07,SE,138,0.0,0.0,95,0.00,,SCT200,0.00,VWS V14.01,2013-03-16 12:20:00,
2013-03-17 02:23:00,49.9,48.5,30.07,SE,138,0.0,1.0,95,0.00,,BKN050,0.00,VWS V14.01,2013-03-16 12:23:00,
2013-03-17 02:24:00,49.9,48.5,30.07,SE,138,0.0,0.0,95,0.00,,BKN050,0.00,VWS V14.01,2013-03-16 12:24:00,
2013-03-17 02:25:00,49.8,48.4,30.07,SE,138,0.0,1.0,95,0.00,,SCT200,0.00,VWS V14.01,2013-03-16 12:25:00,
2013-03-17 02:26:00,49.8,48.4,30.07,SE,138,1.0,1.0,95,0.00,,BKN050,0.00,VWS V14.01,2013-03-16 12:26:00,
2013-03-17 02:27:00,49.8,48.4,30.07,SE,138,1.0,2.0,95,0.00,,BKN050,0.00,VWS V14.01,2013-03-16 12:27:00,
2013-03-17 02:28:00,49.7,48.3,30.07,SE,138,1.0,1.0,95,0.00,,BKN050,0.00,VWS V14.01,2013-03-16 12:28:00,
2013-03-17 02:29:00,49.7,48.3,30.07,SE,138,0.0,1.0,95,0.00,,BKN050,0.00,VWS V14.01,2013-03-16 12:29:00,
2013-03-17 02:30:00,49.6,48.2,30.06,SE,138,0.0,0.0,95,0.00,,SCT200,0.00,VWS V14.01,2013-03-16 12:30:00,
2013-03-17 02:31:00,49.7,48.3,30.06,SE,138,0.0,0.0,95,0.00,,BKN050,0.00,VWS V14.01,2013-03-16 12:31:00,
2013-03-17 02:32:00,49.7,48.3,30.06,SE,138,0.0,0.0,95,0.00,,BKN050,0.00,VWS V14.01,2013-03-16 12:32:00,
2013-03-17 02:35:00,49.6,48.2,30.07,SE,138,0.0,0.0,95,0.00,,SCT200,0.00,VWS V14.01,2013-03-16 12:35:00,
2013-03-17 02:36:00,49.6,48.2,30.07,SE,138,0.0,0.0,95,0.00,,BKN050,0.00,VWS V14.01,2013-03-16 12:36:00,
2013-03-17 02:37:00,49.6,48.2,30.06,SE,138,0.0,0.0,95,0.00,,BKN050,0.00,VWS V14.01,2013-03-16 12:37:00,
2013-03-17 02:40:00,49.6,48.2,30.06,SE,138,2.0,2.0,95,0.00,,SCT200,0.00,VWS V14.01,2013-03-16 12:40:00,
2013-03-17 02:44:00,49.7,48.3,30.06,SE,138,0.0,0.0,95,0.00,,BKN050,0.00,VWS V14.01,2013-03-16 12:44:00,
2013-03-17 02:45:00,49.7,48.3,30.06,SE,138,0.0,0.0,95,0.00,,SCT200,0.00,VWS V14.01,2013-03-16 12:45:00,
2013-03-17 02:47:00,49.7,48.3,30.06,SE,138,0.0,0.0,95,0.00,,BKN050,0.00,VWS V14.01,2013-03-16 12:47:00,
2013-03-17 02:48:00,49.7,48.3,30.06,SE,138,0.0,3.0,95,0.00,,BKN050,0.00,VWS V14.01,2013-03-16 12:48:00,
2013-03-17 02:49:00,49.7,48.3,30.06,SE,138,0.0,2.0,95,0.00,,BKN050,0.00,VWS V14.01,2013-03-16 12:49:00,
2013-03-17 02:50:00,49.7,48.3,30.06,SE,138,0.0,1.0,95,0.00,,SCT200,0.00,VWS V14.01,2013-03-16 12:50:00,
2013-03-17 02:52:00,49.7,48.3,30.06,SE,138,0.0,1.0,95,0.00,,BKN050,0.00,VWS V14.01,2013-03-16 12:52:00,
2013-03-17 02:55:00,49.7,48.3,30.06,SE,138,0.0,0.0,95,0.00,,SCT200,0.00,VWS V14.01,2013-03-16 12:55:00,
2013-03-17 02:57:00,49.7,48.3,30.06,SE,138,0.0,0.0,95,0.00,,BKN050,0.00,VWS V14.01,2013-03-16 12:57:00,
2013-03-17 02:59:00,49.7,48.3,30.06,SE,138,2.0,2.0,95,0.00,,BKN050,0.00,VWS V14.01,2013-03-16 12:59:00,
2013-03-17 03:00:00,49.6,48.2,30.06,SE,138,0.0,0.0,95,0.00,,SCT200,0.00,VWS V14.01,2013-03-16 13:00:00,
2013-03-17 03:01:00,49.6,48.2,30.06,SE,138,0.0,1.0,95,0.00,,BKN050,0.00,VWS V14.01,2013-03-16 13:01:00,
2013-03-17 03:02:00,49.7,48.3,30.06,SE,138,0.0,1.0,95,0.00,,BKN050,0.00,VWS V14.01,2013-03-16 13:02:00,
2013-03-17 03:04:00,49.6,48.2,30.06,SE,138,0.0,0.0,95,0.00,,BKN050,0.00,VWS V14.01,2013-03-16 13:04:00,
2013-03-17 03:05:00,49.7,48.3,30.06,SE,138,0.0,0.0,95,0.00,,SCT200,0.00,VWS V14.01,2013-03-16 13:05:00,
2013-03-17 03:10:00,49.7,48.3,30.06,SE,138,0.0,0.0,95,0.00,,SCT200,0.00,VWS V14.01,2013-03-16 13:10:00,
2013-03-17 03:11:00,49.7,48.3,30.06,SE,138,0.0,0.0,95,0.00,,BKN050,0.00,VWS V14.01,2013-03-16 13:11:00,
2013-03-17 03:15:00,49.7,48.3,30.06,SE,141,1.0,1.0,95,0.00,,SCT200,0.00,VWS V14.01,2013-03-16 13:15:00,
2013-03-17 03:16:00,49.7,48.3,30.06,SE,141,0.0,2.0,95,0.00,,BKN050,0.00,VWS V14.01,2013-03-16 13:16:00,
2013-03-17 03:17:00,49.7,48.3,30.06,SE,136,4.0,4.0,95,0.00,,BKN050,0.00,VWS V14.01,2013-03-16 13:17:00,
2013-03-17 03:20:00,49.5,48.1,30.06,SE,138,0.0,0.0,95,0.00,,SCT200,0.00,VWS V14.01,2013-03-16 13:20:00,
2013-03-17 03:21:00,49.6,48.2,30.06,SE,138,0.0,0.0,95,0.00,,BKN050,0.00,VWS V14.01,2013-03-16 13:21:00,
2013-03-17 03:22:00,49.5,48.1,30.06,SE,138,0.0,0.0,95,0.00,,BKN050,0.00,VWS V14.01,2013-03-16 13:22:00,
2013-03-17 03:23:00,49.5,48.1,30.06,SE,138,0.0,1.0,95,0.00,,BKN050,0.00,VWS V14.01,2013-03-16 13:23:00,
2013-03-17 03:25:00,49.5,48.1,30.06,SE,138,0.0,0.0,95,0.00,,SCT200,0.00,VWS V14.01,2013-03-16 13:25:00,
2013-03-17 03:26:00,49.5,48.1,30.06,SE,138,0.0,0.0,95,0.00,,BKN050,0.00,VWS V14.01,2013-03-16 13:26:00,
2013-03-17 03:27:00,49.5,48.1,30.06,SE,138,0.0,0.0,95,0.00,,BKN050,0.00,VWS V14.01,2013-03-16 13:27:00,
2013-03-17 03:29:00,49.5,48.1,30.06,SE,138,0.0,0.0,95,0.00,,BKN050,0.00,VWS V14.01,2013-03-16 13:29:00,
2013-03-17 03:30:00,49.5,48.1,30.06,SE,138,0.0,0.0,95,0.00,,SCT200,0.00,VWS V14.01,2013-03-16 13:30:00,
2013-03-17 03:31:00,49.5,48.1,30.06,SE,138,0.0,0.0,95,0.00,,BKN050,0.00,VWS V14.01,2013-03-16 13:31:00,
2013-03-17 03:32:00,49.4,48.0,30.06,SE,138,0.0,0.0,95,0.00,,BKN050,0.00,VWS V14.01,2013-03-16 13:32:00,
2013-03-17 03:33:00,49.5,48.1,30.06,SE,138,0.0,0.0,95,0.00,,BKN050,0.00,VWS V14.01,2013-03-16 13:33:00,
2013-03-17 03:34:00,49.5,48.1,30.06,SE,138,2.0,2.0,95,0.00,,BKN050,0.00,VWS V14.01,2013-03-16 13:34:00,
2013-03-17 03:35:00,49.5,48.1,30.06,SE,138,0.0,0.0,95,0.00,,SCT200,0.00,VWS V14.01,2013-03-16 13:35:00,
2013-03-17 03:36:00,49.5,48.1,30.06,SE,138,0.0,0.0,95,0.00,,BKN050,0.00,VWS V14.01,2013-03-16 13:36:00,
2013-03-17 03:37:00,49.5,48.1,30.06,South,175,2.0,2.0,95,0.00,,BKN050,0.00,VWS V14.01,2013-03-16 13:37:00,
2013-03-17 03:39:00,49.5,48.1,30.07,South,175,0.0,0.0,95,0.00,,BKN050,0.00,VWS V14.01,2013-03-16 13:39:00,
2013-03-17 03:40:00,49.5,48.1,30.07,South,175,0.0,0.0,95,0.00,,SCT200,0.00,VWS V14.01,2013-03-16 13:40:00,
2013-03-17 03:44:00,49.4,48.0,30.06,South,175,0.0,1.0,95,0.00,,BKN050,0.00,VWS V14.01,2013-03-16 13:44:00,
2013-03-17 03:45:00,49.4,48.0,30.06,South,175,0.0,0.0,95,0.00,,SCT200,0.00,VWS V14.01,2013-03-16 13:45:00,
2013-03-17 03:46:00,49.4,48.0,30.06,South,175,0.0,1.0,95,0.00,,BKN050,0.00,VWS V14.01,2013-03-16 13:46:00,
2013-03-17 03:47:00,49.4,48.0,30.06,South,175,0.0,0.0,95,0.00,,BKN050,0.00,VWS V14.01,2013-03-16 13:47:00,
2013-03-17 03:50:00,49.2,47.8,30.06,South,175,0.0,0.0,95,0.00,,SCT200,0.00,VWS V14.01,2013-03-16 13:50:00,
2013-03-17 03:51:00,49.3,47.9,30.06,South,175,0.0,0.0,95,0.00,,BKN050,0.00,VWS V14.01,2013-03-16 13:51:00,
2013-03-17 03:55:00,49.3,47.9,30.06,South,175,1.0,1.0,95,0.00,,SCT200,0.00,VWS V14.01,2013-03-16 13:55:00,
2013-03-17 03:56:00,49.3,47.9,30.06,South,175,0.0,0.0,95,0.00,,BKN050,0.00,VWS V14.01,2013-03-16 13:56:00,
2013-03-17 03:59:00,49.2,47.8,30.06,South,175,0.0,0.0,95,0.00,,BKN050,0.00,VWS V14.01,2013-03-16 13:59:00,
2013-03-17 04:00:00,49.2,47.8,30.06,South,175,0.0,0.0,95,0.00,,SCT200,0.00,VWS V14.01,2013-03-16 14:00:00,
2013-03-17 04:03:00,49.2,47.8,30.06,South,175,0.0,1.0,95,0.00,,BKN050,0.00,VWS V14.01,2013-03-16 14:03:00,
2013-03-17 04:05:00,49.1,47.7,30.06,South,171,0.0,0.0,95,0.00,,SCT200,0.00,VWS V14.01,2013-03-16 14:05:00,
2013-03-17 04:06:00,49.1,47.7,30.06,South,171,0.0,0.0,95,0.00,,BKN050,0.00,VWS V14.01,2013-03-16 14:06:00,
2013-03-17 04:07:00,49.1,47.7,30.06,South,171,0.0,1.0,95,0.00,,BKN050,0.00,VWS V14.01,2013-03-16 14:07:00,
2013-03-17 04:08:00,49.1,47.7,30.06,South,171,0.0,1.0,95,0.00,,BKN050,0.00,VWS V14.01,2013-03-16 14:08:00,
2013-03-17 04:09:00,49.1,47.7,30.06,South,171,0.0,1.0,95,0.00,,BKN050,0.00,VWS V14.01,2013-03-16 14:09:00,
2013-03-17 04:10:00,49.0,47.9,30.06,South,171,0.0,0.0,96,0.00,,SCT200,0.00,VWS V14.01,2013-03-16 14:10:00,
2013-03-17 04:15:00,49.0,47.9,30.07,South,171,1.0,1.0,96,0.00,,SCT200,0.00,VWS V14.01,2013-03-16 14:15:00,
2013-03-17 04:18:00,49.0,47.9,30.07,South,171,0.0,0.0,96,0.00,,BKN050,0.00,VWS V14.01,2013-03-16 14:18:00,
2013-03-17 04:20:00,49.0,47.9,30.07,South,171,0.0,0.0,96,0.00,,SCT200,0.00,VWS V14.01,2013-03-16 14:20:00,
2013-03-17 04:21:00,49.1,48.0,30.07,South,171,0.0,0.0,96,0.00,,BKN050,0.00,VWS V14.01,2013-03-16 14:21:00,
2013-03-17 04:25:00,49.2,48.1,30.07,South,171,0.0,2.0,96,0.00,,SCT200,0.00,VWS V14.01,2013-03-16 14:25:00,
2013-03-17 04:26:00,49.1,48.0,30.07,South,171,2.0,2.0,96,0.00,,BKN050,0.00,VWS V14.01,2013-03-16 14:26:00,
2013-03-17 04:27:00,49.1,48.0,30.07,South,171,0.0,2.0,96,0.00,,BKN050,0.00,VWS V14.01,2013-03-16 14:27:00,
2013-03-17 04:29:00,49.2,48.1,30.07,South,171,0.0,1.0,96,0.00,,BKN050,0.00,VWS V14.01,2013-03-16 14:29:00,
2013-03-17 04:30:00,49.2,48.1,30.07,South,171,0.0,1.0,96,0.00,,SCT200,0.00,VWS V14.01,2013-03-16 14:30:00,
2013-03-17 04:31:00,49.2,48.1,30.07,South,171,1.0,1.0,96,0.00,,BKN050,0.00,VWS V14.01,2013-03-16 14:31:00,
2013-03-17 04:32:00,49.2,48.1,30.07,South,171,0.0,1.0,96,0.00,,BKN050,0.00,VWS V14.01,2013-03-16 14:32:00,
2013-03-17 04:33:00,49.2,48.1,30.07,South,171,0.0,1.0,96,0.00,,BKN050,0.00,VWS V14.01,2013-03-16 14:33:00,
2013-03-17 04:34:00,49.2,48.1,30.07,South,171,1.0,1.0,96,0.00,,BKN050,0.00,VWS V14.01,2013-03-16 14:34:00,
2013-03-17 04:35:00,49.2,48.1,30.07,South,171,1.0,1.0,96,0.00,,SCT200,0.00,VWS V14.01,2013-03-16 14:35:00,
2013-03-17 04:36:00,49.2,48.1,30.07,South,171,0.0,1.0,96,0.00,,BKN050,0.00,VWS V14.01,2013-03-16 14:36:00,
2013-03-17 04:37:00,49.2,48.1,30.07,South,171,0.0,1.0,96,0.00,,BKN050,0.00,VWS V14.01,2013-03-16 14:37:00,
2013-03-17 04:38:00,49.2,48.1,30.07,South,171,0.0,1.0,96,0.00,,BKN050,0.00,VWS V14.01,2013-03-16 14:38:00,
2013-03-17 04:40:00,49.2,48.1,30.07,South,171,0.0,1.0,96,0.00,,SCT200,0.00,VWS V14.01,2013-03-16 14:40:00,
2013-03-17 04:41:00,49.2,48.1,30.07,South,171,0.0,1.0,96,0.00,,BKN050,0.00,VWS V14.01,2013-03-16 14:41:00,
2013-03-17 04:42:00,49.2,48.1,30.07,South,171,0.0,1.0,96,0.00,,BKN050,0.00,VWS V14.01,2013-03-16 14:42:00,
2013-03-17 04:43:00,49.2,48.1,30.07,South,171,0.0,1.0,96,0.00,,BKN050,0.00,VWS V14.01,2013-03-16 14:43:00,
2013-03-17 04:44:00,49.3,48.2,30.07,South,171,0.0,1.0,96,0.00,,BKN050,0.00,VWS V14.01,2013-03-16 14:44:00,
2013-03-17 04:45:00,49.3,48.2,30.08,South,171,0.0,1.0,96,0.00,,SCT200,0.00,VWS V14.01,2013-03-16 14:45:00,
2013-03-17 04:46:00,49.3,48.2,30.08,South,171,1.0,1.0,96,0.00,,BKN050,0.00,VWS V14.01,2013-03-16 14:46:00,
2013-03-17 04:47:00,49.3,48.2,30.08,South,171,1.0,1.0,96,0.00,,BKN050,0.00,VWS V14.01,2013-03-16 14:47:00,
2013-03-17 04:48:00,49.3,48.2,30.08,South,171,1.0,1.0,96,0.00,,BKN050,0.00,VWS V14.01,2013-03-16 14:48:00,
2013-03-17 04:49:00,49.3,48.2,30.08,South,183,2.0,2.0,96,0.00,,BKN050,0.00,VWS V14.01,2013-03-16 14:49:00,
2013-03-17 04:50:00,49.3,48.2,30.08,SW,220,0.0,1.0,96,0.00,,SCT200,0.00,VWS V14.01,2013-03-16 14:50:00,
2013-03-17 04:51:00,49.3,48.2,30.08,SW,220,0.0,1.0,96,0.00,,BKN050,0.00,VWS V14.01,2013-03-16 14:51:00,
2013-03-17 04:52:00,49.4,48.3,30.08,SW,225,1.0,1.0,96,0.00,,BKN050,0.00,VWS V14.01,2013-03-16 14:52:00,
2013-03-17 04:53:00,49.4,48.3,30.08,SW,225,1.0,1.0,96,0.00,,BKN050,0.00,VWS V14.01,2013-03-16 14:53:00,
2013-03-17 04:55:00,49.3,48.2,30.08,SW,225,1.0,1.0,96,0.00,,SCT200,0.00,VWS V14.01,2013-03-16 14:55:00,
2013-03-17 04:56:00,49.3,48.2,30.08,SW,225,0.0,2.0,96,0.00,,BKN050,0.00,VWS V14.01,2013-03-16 14:56:00,
2013-03-17 04:57:00,49.3,48.2,30.08,SW,225,0.0,1.0,96,0.00,,BKN050,0.00,VWS V14.01,2013-03-16 14:57:00,
2013-03-17 04:58:00,49.2,48.1,30.08,SW,225,0.0,1.0,96,0.00,,BKN050,0.00,VWS V14.01,2013-03-16 14:58:00,
2013-03-17 05:00:00,49.2,48.1,30.08,SW,225,0.0,0.0,96,0.00,,,0.00,VWS V14.01,2013-03-16 15:00:00,
2013-03-17 05:01:00,49.2,48.1,30.08,SW,225,0.0,0.0,96,0.00,,BKN050,0.00,VWS V14.01,2013-03-16 15:01:00,
2013-03-17 05:02:00,49.2,48.1,30.08,SW,225,0.0,0.0,96,0.00,,BKN050,0.00,VWS V14.01,2013-03-16 15:02:00,
2013-03-17 05:03:00,49.2,48.1,30.08,SW,225,0.0,0.0,96,0.00,,BKN050,0.00,VWS V14.01,2013-03-16 15:03:00,
2013-03-17 05:04:00,49.2,48.1,30.08,SW,225,0.0,0.0,96,0.00,,BKN050,0.00,VWS V14.01,2013-03-16 15:04:00,
2013-03-17 05:05:00,49.2,48.1,30.08,SW,225,0.0,1.0,96,0.00,,,0.00,VWS V14.01,2013-03-16 15:05:00,
2013-03-17 05:07:00,49.2,48.1,30.08,WSW,240,3.0,3.0,96,0.00,,BKN050,0.00,VWS V14.01,2013-03-16 15:07:00,
2013-03-17 05:08:00,49.2,48.1,30.08,WSW,240,0.0,3.0,96,0.00,,BKN050,0.00,VWS V14.01,2013-03-16 15:08:00,
2013-03-17 05:09:00,49.2,48.1,30.08,WSW,240,1.0,2.0,96,0.00,,BKN050,0.00,VWS V14.01,2013-03-16 15:09:00,
2013-03-17 05:10:00,49.2,48.1,30.08,WSW,240,0.0,0.0,96,0.00,,,0.00,VWS V14.01,2013-03-16 15:10:00,
2013-03-17 05:11:00,49.2,48.1,30.08,WSW,240,0.0,1.0,96,0.00,,BKN050,0.00,VWS V14.01,2013-03-16 15:11:00,
2013-03-17 05:12:00,49.2,48.1,30.08,WSW,240,0.0,0.0,96,0.00,,BKN050,0.00,VWS V14.01,2013-03-16 15:12:00,
2013-03-17 05:13:00,49.2,48.1,30.08,WSW,240,0.0,0.0,96,0.00,,BKN050,0.00,VWS V14.01,2013-03-16 15:13:00,
2013-03-17 05:14:00,49.2,48.1,30.08,WSW,240,0.0,0.0,96,0.00,,BKN050,0.00,VWS V14.01,2013-03-16 15:14:00,
2013-03-17 05:15:00,49.3,48.2,30.08,WSW,240,1.0,1.0,96,0.00,,,0.00,VWS V14.01,2013-03-16 15:15:00,
2013-03-17 05:16:00,49.2,48.1,30.08,WSW,240,0.0,1.0,96,0.00,,BKN050,0.00,VWS V14.01,2013-03-16 15:16:00,
2013-03-17 05:17:00,49.3,48.2,30.08,WSW,240,0.0,1.0,96,0.00,,BKN050,0.00,VWS V14.01,2013-03-16 15:17:00,
2013-03-17 05:18:00,49.3,48.2,30.08,WSW,240,0.0,1.0,96,0.00,,BKN050,0.00,VWS V14.01,2013-03-16 15:18:00,
2013-03-17 05:19:00,49.3,48.2,30.08,WSW,240,1.0,2.0,96,0.00,,BKN050,0.00,VWS V14.01,2013-03-16 15:19:00,
2013-03-17 05:20:00,49.4,48.3,30.09,WSW,240,0.0,0.0,96,0.00,,,0.00,VWS V14.01,2013-03-16 15:20:00,
2013-03-17 05:21:00,49.3,48.2,30.09,WSW,240,0.0,0.0,96,0.00,,BKN050,0.00,VWS V14.01,2013-03-16 15:21:00,
2013-03-17 05:24:00,49.4,48.3,30.08,WSW,240,1.0,1.0,96,0.00,,BKN050,0.00,VWS V14.01,2013-03-16 15:24:00,
2013-03-17 05:25:00,49.3,48.2,30.08,WSW,240,0.0,1.0,96,0.00,,,0.00,VWS V14.01,2013-03-16 15:25:00,
2013-03-17 05:26:00,49.3,48.2,30.08,WSW,240,1.0,1.0,96,0.00,,BKN050,0.00,VWS V14.01,2013-03-16 15:26:00,
2013-03-17 05:27:00,49.4,48.3,30.08,WSW,240,1.0,1.0,96,0.00,,BKN050,0.00,VWS V14.01,2013-03-16 15:27:00,
2013-03-17 05:28:00,49.3,48.2,30.09,WSW,240,0.0,2.0,96,0.00,,BKN050,0.00,VWS V14.01,2013-03-16 15:28:00,
2013-03-17 05:30:00,49.3,48.2,30.09,WSW,240,1.0,1.0,96,0.00,,,0.00,VWS V14.01,2013-03-16 15:30:00,
2013-03-17 05:32:00,49.3,48.2,30.09,WSW,240,0.0,1.0,96,0.00,,BKN050,0.00,VWS V14.01,2013-03-16 15:32:00,
2013-03-17 05:33:00,49.3,48.2,30.09,WSW,240,0.0,0.0,96,0.00,,BKN050,0.00,VWS V14.01,2013-03-16 15:33:00,
2013-03-17 05:34:00,49.4,48.3,30.09,WSW,240,0.0,0.0,96,0.00,,BKN050,0.00,VWS V14.01,2013-03-16 15:34:00,
2013-03-17 05:35:00,49.5,48.4,30.09,WSW,240,0.0,0.0,96,0.00,,,0.00,VWS V14.01,2013-03-16 15:35:00,
2013-03-17 05:36:00,49.5,48.4,30.09,WSW,240,0.0,0.0,96,0.00,,BKN050,0.00,VWS V14.01,2013-03-16 15:36:00,
2013-03-17 05:37:00,49.5,48.4,30.09,WSW,240,0.0,0.0,96,0.00,,BKN050,0.00,VWS V14.01,2013-03-16 15:37:00,
2013-03-17 05:38:00,49.6,48.5,30.09,WSW,240,0.0,0.0,96,0.00,,BKN050,0.00,VWS V14.01,2013-03-16 15:38:00,
2013-03-17 05:39:00,49.6,48.5,30.09,WSW,240,0.0,0.0,96,0.00,,BKN050,0.00,VWS V14.01,2013-03-16 15:39:00,
2013-03-17 05:40:00,49.6,48.5,30.09,WSW,240,0.0,0.0,96,0.00,,,0.00,VWS V14.01,2013-03-16 15:40:00,
2013-03-17 05:41:00,49.6,48.5,30.09,WSW,240,0.0,0.0,96,0.00,,BKN050,0.00,VWS V14.01,2013-03-16 15:41:00,
2013-03-17 05:42:00,49.6,48.5,30.09,WSW,240,0.0,0.0,96,0.00,,BKN050,0.00,VWS V14.01,2013-03-16 15:42:00,
2013-03-17 05:43:00,49.7,48.6,30.09,WSW,240,0.0,0.0,96,0.00,,BKN050,0.00,VWS V14.01,2013-03-16 15:43:00,
2013-03-17 05:44:00,49.6,48.5,30.09,WSW,240,0.0,1.0,96,0.00,,BKN050,0.00,VWS V14.01,2013-03-16 15:44:00,
2013-03-17 05:45:00,49.7,48.6,30.09,WSW,240,0.0,0.0,96,0.00,,,0.00,VWS V14.01,2013-03-16 15:45:00,
2013-03-17 05:46:00,49.6,48.5,30.09,WSW,240,0.0,0.0,96,0.00,,BKN050,0.00,VWS V14.01,2013-03-16 15:46:00,
2013-03-17 05:47:00,49.7,48.6,30.09,WSW,240,0.0,0.0,96,0.00,,BKN050,0.00,VWS V14.01,2013-03-16 15:47:00,
2013-03-17 05:48:00,49.7,48.6,30.09,WSW,240,0.0,1.0,96,0.00,,BKN050,0.00,VWS V14.01,2013-03-16 15:48:00,
2013-03-17 05:49:00,49.8,48.7,30.09,WSW,240,0.0,1.0,96,0.00,,BKN050,0.00,VWS V14.01,2013-03-16 15:49:00,
2013-03-17 05:50:00,49.9,48.8,30.10,WSW,240,0.0,0.0,96,0.00,,,0.00,VWS V14.01,2013-03-16 15:50:00,
2013-03-17 05:51:00,49.9,48.8,30.10,WSW,240,0.0,1.0,96,0.00,,BKN050,0.00,VWS V14.01,2013-03-16 15:51:00,
2013-03-17 05:52:00,49.8,48.7,30.10,WSW,240,0.0,0.0,96,0.00,,BKN050,0.00,VWS V14.01,2013-03-16 15:52:00,
2013-03-17 05:53:00,49.9,48.8,30.10,WSW,240,0.0,0.0,96,0.00,,BKN050,0.00,VWS V14.01,2013-03-16 15:53:00,
2013-03-17 05:54:00,49.9,48.8,30.10,WSW,240,0.0,0.0,96,0.00,,BKN050,0.00,VWS V14.01,2013-03-16 15:54:00,
2013-03-17 05:55:00,50.1,49.0,30.10,WSW,240,0.0,0.0,96,0.00,,,0.00,VWS V14.01,2013-03-16 15:55:00,
2013-03-17 05:56:00,50.0,48.9,30.10,WSW,240,0.0,0.0,96,0.00,,BKN050,0.00,VWS V14.01,2013-03-16 15:56:00,
2013-03-17 05:57:00,50.1,49.0,30.10,WSW,240,0.0,0.0,96,0.00,,BKN050,0.00,VWS V14.01,2013-03-16 15:57:00,
2013-03-17 05:59:00,50.2,49.1,30.10,WSW,240,0.0,1.0,96,0.00,,BKN050,0.00,VWS V14.01,2013-03-16 15:59:00,
2013-03-17 06:00:00,50.5,49.4,30.10,WSW,238,0.0,0.0,96,0.00,,,0.00,VWS V14.01,2013-03-16 16:00:00,
2013-03-17 06:01:00,50.4,49.3,30.10,WSW,238,0.0,1.0,96,0.00,,BKN050,0.00,VWS V14.01,2013-03-16 16:01:00,
2013-03-17 06:02:00,50.5,49.4,30.10,WSW,238,0.0,0.0,96,0.00,,BKN050,0.00,VWS V14.01,2013-03-16 16:02:00,
2013-03-17 06:03:00,50.5,49.4,30.10,WSW,238,0.0,0.0,96,0.00,,BKN050,0.00,VWS V14.01,2013-03-16 16:03:00,
2013-03-17 06:04:00,50.4,49.3,30.10,WSW,238,0.0,1.0,96,0.00,,BKN050,0.00,VWS V14.01,2013-03-16 16:04:00,
2013-03-17 06:05:00,50.3,49.2,30.11,WSW,238,0.0,0.0,96,0.00,,,0.00,VWS V14.01,2013-03-16 16:05:00,
2013-03-17 06:06:00,50.3,48.9,30.11,WSW,238,0.0,0.0,95,0.00,,BKN050,0.00,VWS V14.01,2013-03-16 16:06:00,
2013-03-17 06:07:00,50.4,49.3,30.10,WSW,238,0.0,0.0,96,0.00,,BKN050,0.00,VWS V14.01,2013-03-16 16:07:00,
2013-03-17 06:08:00,50.4,49.3,30.10,WSW,238,0.0,1.0,96,0.00,,BKN050,0.00,VWS V14.01,2013-03-16 16:08:00,
2013-03-17 06:09:00,50.5,49.4,30.11,WSW,238,1.0,1.0,96,0.00,,BKN050,0.00,VWS V14.01,2013-03-16 16:09:00,
2013-03-17 06:10:00,50.6,49.2,30.11,WSW,238,0.0,0.0,95,0.00,,,0.00,VWS V14.01,2013-03-16 16:10:00,
2013-03-17 06:11:00,50.6,49.2,30.11,WSW,238,0.0,1.0,95,0.00,,BKN050,0.00,VWS V14.01,2013-03-16 16:11:00,
2013-03-17 06:12:00,50.6,49.2,30.11,WSW,238,0.0,0.0,95,0.00,,BKN050,0.00,VWS V14.01,2013-03-16 16:12:00,
2013-03-17 06:13:00,50.6,49.2,30.11,WSW,238,0.0,0.0,95,0.00,,BKN050,0.00,VWS V14.01,2013-03-16 16:13:00,
2013-03-17 06:14:00,50.7,49.3,30.11,WSW,238,0.0,0.0,95,0.00,,BKN050,0.00,VWS V14.01,2013-03-16 16:14:00,
2013-03-17 06:15:00,50.8,49.4,30.11,WSW,238,0.0,1.0,95,0.00,,,0.00,VWS V14.01,2013-03-16 16:15:00,
2013-03-17 06:16:00,50.8,49.4,30.11,WSW,238,0.0,0.0,95,0.00,,BKN050,0.00,VWS V14.01,2013-03-16 16:16:00,
2013-03-17 06:17:00,50.8,49.4,30.11,WSW,238,0.0,1.0,95,0.00,,BKN050,0.00,VWS V14.01,2013-03-16 16:17:00,
2013-03-17 06:18:00,50.9,49.5,30.11,WSW,238,0.0,1.0,95,0.00,,BKN050,0.00,VWS V14.01,2013-03-16 16:18:00,
2013-03-17 06:19:00,51.0,49.6,30.11,WSW,249,0.0,2.0,95,0.00,,BKN050,0.00,VWS V14.01,2013-03-16 16:19:00,
2013-03-17 06:20:00,51.0,49.6,30.11,West,259,1.0,2.0,95,0.00,,,0.00,VWS V14.01,2013-03-16 16:20:00,
2013-03-17 06:21:00,51.0,49.6,30.11,WSW,253,0.0,2.0,95,0.00,,BKN050,0.00,VWS V14.01,2013-03-16 16:21:00,
2013-03-17 06:23:00,51.0,49.6,30.11,West,259,2.0,2.0,95,0.00,,BKN050,0.00,VWS V14.01,2013-03-16 16:23:00,
2013-03-17 06:24:00,50.9,49.5,30.11,West,259,2.0,2.0,95,0.00,,BKN050,0.00,VWS V14.01,2013-03-16 16:24:00,
2013-03-17 06:25:00,50.9,49.2,30.11,West,259,0.0,0.0,94,0.00,,,0.00,VWS V14.01,2013-03-16 16:25:00,
2013-03-17 06:27:00,51.0,49.3,30.11,West,259,0.0,0.0,94,0.00,,BKN050,0.00,VWS V14.01,2013-03-16 16:27:00,
2013-03-17 06:28:00,51.1,49.7,30.11,West,259,1.0,1.0,95,0.00,,BKN050,0.00,VWS V14.01,2013-03-16 16:28:00,
2013-03-17 06:29:00,51.1,49.4,30.11,West,259,0.0,1.0,94,0.00,,BKN050,0.00,VWS V14.01,2013-03-16 16:29:00,
2013-03-17 06:30:00,51.2,49.5,30.11,West,259,0.0,0.0,94,0.00,,,0.00,VWS V14.01,2013-03-16 16:30:00,
2013-03-17 06:31:00,51.2,49.5,30.11,West,259,0.0,1.0,94,0.00,,BKN050,0.00,VWS V14.01,2013-03-16 16:31:00,
2013-03-17 06:32:00,51.2,49.5,30.11,West,259,0.0,0.0,94,0.00,,BKN050,0.00,VWS V14.01,2013-03-16 16:32:00,
2013-03-17 06:33:00,51.3,49.6,30.11,West,259,1.0,1.0,94,0.00,,BKN050,0.00,VWS V14.01,2013-03-16 16:33:00,
2013-03-17 06:34:00,51.3,49.6,30.11,West,262,1.0,3.0,94,0.00,,BKN050,0.00,VWS V14.01,2013-03-16 16:34:00,
2013-03-17 06:35:00,51.1,49.2,30.11,West,262,0.0,1.0,93,0.00,,,0.00,VWS V14.01,2013-03-16 16:35:00,
2013-03-17 06:36:00,51.1,49.2,30.11,West,262,0.0,2.0,93,0.00,,BKN050,0.00,VWS V14.01,2013-03-16 16:36:00,
2013-03-17 06:37:00,51.0,49.3,30.11,West,262,0.0,1.0,94,0.00,,BKN050,0.00,VWS V14.01,2013-03-16 16:37:00,
2013-03-17 06:38:00,51.0,49.3,30.11,West,262,0.0,1.0,94,0.00,,BKN050,0.00,VWS V14.01,2013-03-16 16:38:00,
2013-03-17 06:39:00,51.0,49.3,30.11,West,262,0.0,1.0,94,0.00,,BKN050,0.00,VWS V14.01,2013-03-16 16:39:00,
2013-03-17 06:40:00,51.1,49.4,30.11,West,262,0.0,0.0,94,0.00,,,0.00,VWS V14.01,2013-03-16 16:40:00,
2013-03-17 06:41:00,51.0,49.3,30.11,West,262,0.0,0.0,94,0.00,,BKN050,0.00,VWS V14.01,2013-03-16 16:41:00,
2013-03-17 06:42:00,51.2,49.5,30.11,West,262,0.0,0.0,94,0.00,,BKN050,0.00,VWS V14.01,2013-03-16 16:42:00,
2013-03-17 06:43:00,51.3,49.6,30.11,West,262,3.0,3.0,94,0.00,,BKN050,0.00,VWS V14.01,2013-03-16 16:43:00,
2013-03-17 06:44:00,51.3,49.3,30.11,West,262,1.0,3.0,93,0.00,,BKN050,0.00,VWS V14.01,2013-03-16 16:44:00,
2013-03-17 06:45:00,51.2,49.2,30.11,West,262,2.0,2.0,93,0.00,,,0.00,VWS V14.01,2013-03-16 16:45:00,
2013-03-17 06:46:00,51.3,49.3,30.11,West,262,2.0,2.0,93,0.00,,BKN050,0.00,VWS V14.01,2013-03-16 16:46:00,
2013-03-17 06:47:00,51.2,49.2,30.11,West,262,1.0,2.0,93,0.00,,BKN050,0.00,VWS V14.01,2013-03-16 16:47:00,
2013-03-17 06:48:00,51.2,49.2,30.11,West,262,1.0,2.0,93,0.00,,BKN050,0.00,VWS V14.01,2013-03-16 16:48:00,
2013-03-17 06:49:00,51.2,49.2,30.11,West,262,0.0,1.0,93,0.00,,BKN050,0.00,VWS V14.01,2013-03-16 16:49:00,
2013-03-17 06:50:00,51.3,49.3,30.11,West,262,3.0,3.0,93,0.00,,,0.00,VWS V14.01,2013-03-16 16:50:00,
2013-03-17 06:52:00,51.3,49.3,30.11,West,262,1.0,3.0,93,0.00,,BKN050,0.00,VWS V14.01,2013-03-16 16:52:00,
2013-03-17 06:53:00,51.3,49.3,30.11,West,262,1.0,1.0,93,0.00,,BKN050,0.00,VWS V14.01,2013-03-16 16:53:00,
2013-03-17 06:54:00,51.3,49.3,30.11,West,262,1.0,1.0,93,0.00,,BKN050,0.00,VWS V14.01,2013-03-16 16:54:00,
2013-03-17 06:55:00,51.5,49.5,30.11,West,263,0.0,1.0,93,0.00,,,0.00,VWS V14.01,2013-03-16 16:55:00,
2013-03-17 06:56:00,51.5,49.5,30.11,West,263,1.0,2.0,93,0.00,,BKN050,0.00,VWS V14.01,2013-03-16 16:56:00,
2013-03-17 06:57:00,51.7,50.0,30.11,West,263,0.0,1.0,94,0.00,,BKN050,0.00,VWS V14.01,2013-03-16 16:57:00,
2013-03-17 06:58:00,52.0,50.3,30.11,West,263,0.0,1.0,94,0.00,,BKN050,0.00,VWS V14.01,2013-03-16 16:58:00,
2013-03-17 06:59:00,52.1,50.1,30.11,West,263,0.0,3.0,93,0.00,,BKN050,0.00,VWS V14.01,2013-03-16 16:59:00,
2013-03-17 07:00:00,52.4,50.2,30.10,South,190,0.0,0.0,92,0.00,,,0.00,VWS V14.01,2013-03-16 17:00:00,
2013-03-17 07:01:00,52.3,50.0,30.10,South,190,0.0,1.0,92,0.00,,BKN050,0.00,VWS V14.01,2013-03-16 17:01:00,
2013-03-17 07:02:00,52.6,50.6,30.10,South,190,0.0,0.0,93,0.00,,BKN050,0.00,VWS V14.01,2013-03-16 17:02:00,
2013-03-17 07:03:00,52.9,50.9,30.10,South,190,0.0,1.0,93,0.00,,BKN050,0.00,VWS V14.01,2013-03-16 17:03:00,
2013-03-17 07:04:00,53.2,51.2,30.10,South,190,1.0,1.0,93,0.00,,BKN050,0.00,VWS V14.01,2013-03-16 17:04:00,
2013-03-17 07:05:00,53.6,51.0,30.10,South,190,1.0,1.0,91,0.00,,,0.00,VWS V14.01,2013-03-16 17:05:00,
2013-03-17 07:06:00,53.6,51.0,30.10,South,190,0.0,2.0,91,0.00,,BKN050,0.00,VWS V14.01,2013-03-16 17:06:00,
2013-03-17 07:07:00,53.5,50.7,30.11,South,190,0.0,1.0,90,0.00,,BKN050,0.00,VWS V14.01,2013-03-16 17:07:00,
2013-03-17 07:08:00,53.5,50.7,30.10,South,190,0.0,2.0,90,0.00,,BKN050,0.00,VWS V14.01,2013-03-16 17:08:00,
2013-03-17 07:09:00,53.5,50.7,30.10,South,190,0.0,1.0,90,0.00,,BKN050,0.00,VWS V14.01,2013-03-16 17:09:00,
2013-03-17 07:10:00,53.8,50.9,30.10,South,190,0.0,1.0,90,0.00,,,0.00,VWS V14.01,2013-03-16 17:10:00,
2013-03-17 07:11:00,53.7,50.8,30.10,South,190,1.0,1.0,90,0.00,,BKN050,0.00,VWS V14.01,2013-03-16 17:11:00,
2013-03-17 07:12:00,53.9,51.0,30.10,South,190,0.0,1.0,90,0.00,,BKN050,0.00,VWS V14.01,2013-03-16 17:12:00,
2013-03-17 07:13:00,54.2,51.3,30.10,South,190,0.0,0.0,90,0.00,,BKN050,0.00,VWS V14.01,2013-03-16 17:13:00,
2013-03-17 07:14:00,54.4,51.2,30.10,South,190,3.0,3.0,89,0.00,,BKN050,0.00,VWS V14.01,2013-03-16 17:14:00,
2013-03-17 07:15:00,54.0,50.2,30.11,SSW,201,0.0,1.0,87,0.00,,,0.00,VWS V14.01,2013-03-16 17:15:00,
2013-03-17 07:17:00,53.9,50.1,30.11,West,265,2.0,4.0,87,0.00,,BKN050,0.00,VWS V14.01,2013-03-16 17:17:00,
2013-03-17 07:18:00,53.8,50.3,30.10,West,265,1.0,2.0,88,0.00,,BKN050,0.00,VWS V14.01,2013-03-16 17:18:00,
2013-03-17 07:19:00,53.7,49.9,30.10,West,265,0.0,1.0,87,0.00,,BKN050,0.00,VWS V14.01,2013-03-16 17:19:00,
2013-03-17 07:20:00,53.6,50.1,30.11,WSW,239,0.0,3.0,88,0.00,,,0.00,VWS V14.01,2013-03-16 17:20:00,
2013-03-17 07:21:00,53.6,50.1,30.11,WSW,257,2.0,3.0,88,0.00,,BKN050,0.00,VWS V14.01,2013-03-16 17:21:00,
2013-03-17 07:22:00,53.7,50.2,30.11,WSW,239,2.0,3.0,88,0.00,,BKN050,0.00,VWS V14.01,2013-03-16 17:22:00,
2013-03-17 07:24:00,53.7,50.2,30.11,West,267,0.0,3.0,88,0.00,,BKN050,0.00,VWS V14.01,2013-03-16 17:24:00,
2013-03-17 07:25:00,54.0,50.5,30.11,West,267,1.0,1.0,88,0.00,,,0.00,VWS V14.01,2013-03-16 17:25:00,
2013-03-17 07:26:00,53.9,50.4,30.11,West,267,0.0,1.0,88,0.00,,BKN050,0.00,VWS V14.01,2013-03-16 17:26:00,
2013-03-17 07:27:00,54.1,50.6,30.11,West,267,3.0,3.0,88,0.00,,BKN050,0.00,VWS V14.01,2013-03-16 17:27:00,
2013-03-17 07:28:00,54.2,50.7,30.11,West,267,2.0,3.0,88,0.00,,BKN050,0.00,VWS V14.01,2013-03-16 17:28:00,
2013-03-17 07:29:00,54.4,50.6,30.11,West,267,2.0,3.0,87,0.00,,BKN050,0.00,VWS V14.01,2013-03-16 17:29:00,
2013-03-17 07:30:00,54.5,50.4,30.11,West,267,0.0,1.0,86,0.00,,,0.00,VWS V14.01,2013-03-16 17:30:00,
2013-03-17 07:31:00,54.5,50.4,30.11,West,267,0.0,1.0,86,0.00,,BKN050,0.00,VWS V14.01,2013-03-16 17:31:00,
2013-03-17 07:32:00,54.6,50.5,30.10,West,267,0.0,1.0,86,0.00,,BKN050,0.00,VWS V14.01,2013-03-16 17:32:00,
2013-03-17 07:33:00,54.8,51.0,30.10,SW,224,3.0,4.0,87,0.00,,BKN050,0.00,VWS V14.01,2013-03-16 17:33:00,
2013-03-17 07:34:00,54.9,50.8,30.10,SW,217,2.0,3.0,86,0.00,,BKN050,0.00,VWS V14.01,2013-03-16 17:34:00,
2013-03-17 07:35:00,55.0,50.9,30.10,SW,217,0.0,1.0,86,0.00,,,0.00,VWS V14.01,2013-03-16 17:35:00,
2013-03-17 07:36:00,55.0,50.9,30.10,SW,217,0.0,1.0,86,0.00,,BKN050,0.00,VWS V14.01,2013-03-16 17:36:00,
2013-03-17 07:37:00,55.1,51.0,30.10,SW,217,1.0,1.0,86,0.00,,BKN050,0.00,VWS V14.01,2013-03-16 17:37:00,
2013-03-17 07:38:00,55.3,50.9,30.10,SW,223,2.0,3.0,85,0.00,,BKN050,0.00,VWS V14.01,2013-03-16 17:38:00,
2013-03-17 07:39:00,55.2,50.5,30.10,SW,223,1.0,2.0,84,0.00,,BKN050,0.00,VWS V14.01,2013-03-16 17:39:00,
2013-03-17 07:40:00,55.9,51.5,30.10,SW,227,1.0,1.0,85,0.00,,,0.00,VWS V14.01,2013-03-16 17:40:00,
2013-03-17 07:41:00,55.8,51.4,30.10,SW,227,0.0,2.0,85,0.00,,BKN050,0.00,VWS V14.01,2013-03-16 17:41:00,
2013-03-17 07:42:00,56.1,51.3,30.10,SW,227,0.0,1.0,84,0.00,,BKN050,0.00,VWS V14.01,2013-03-16 17:42:00,
2013-03-17 07:43:00,56.4,51.3,30.10,SE,134,1.0,4.0,83,0.00,,BKN050,0.00,VWS V14.01,2013-03-16 17:43:00,
2013-03-17 07:44:00,56.7,51.6,30.10,SE,141,1.0,2.0,83,0.00,,BKN050,0.00,VWS V14.01,2013-03-16 17:44:00,
2013-03-17 07:45:00,56.3,50.9,30.10,SE,141,1.0,2.0,82,0.00,,,0.00,VWS V14.01,2013-03-16 17:45:00,
2013-03-17 07:46:00,56.3,50.5,30.10,SE,141,1.0,2.0,81,0.00,,BKN050,0.00,VWS V14.01,2013-03-16 17:46:00,
2013-03-17 07:47:00,56.3,50.9,30.10,SE,141,1.0,2.0,82,0.00,,BKN050,0.00,VWS V14.01,2013-03-16 17:47:00,
2013-03-17 07:48:00,56.3,50.9,30.10,SE,141,0.0,1.0,82,0.00,,BKN050,0.00,VWS V14.01,2013-03-16 17:48:00,
2013-03-17 07:49:00,56.4,51.0,30.10,SE,142,1.0,2.0,82,0.00,,BKN050,0.00,VWS V14.01,2013-03-16 17:49:00,
2013-03-17 07:50:00,56.8,51.0,30.10,SSW,201,1.0,2.0,81,0.00,,,0.00,VWS V14.01,2013-03-16 17:50:00,
2013-03-17 07:51:00,56.8,51.4,30.10,SSW,201,2.0,3.0,82,0.00,,BKN050,0.00,VWS V14.01,2013-03-16 17:51:00,
2013-03-17 07:52:00,56.9,51.1,30.10,SSW,198,1.0,2.0,81,0.00,,BKN050,0.00,VWS V14.01,2013-03-16 17:52:00,
2013-03-17 07:53:00,57.2,51.4,30.10,SE,140,1.0,3.0,81,0.00,,BKN050,0.00,VWS V14.01,2013-03-16 17:53:00,
2013-03-17 07:54:00,57.5,51.7,30.09,SE,143,1.0,2.0,81,0.00,,BKN050,0.00,VWS V14.01,2013-03-16 17:54:00,
2013-03-17 07:55:00,57.9,51.8,30.10,SE,143,0.0,1.0,80,0.00,,,0.00,VWS V14.01,2013-03-16 17:55:00,
2013-03-17 07:56:00,57.8,52.0,30.10,SE,143,0.0,0.0,81,0.00,,BKN050,0.00,VWS V14.01,2013-03-16 17:56:00,
2013-03-17 07:57:00,58.0,51.9,30.10,SE,143,1.0,1.0,80,0.00,,BKN050,0.00,VWS V14.01,2013-03-16 17:57:00,
2013-03-17 07:58:00,58.1,52.0,30.10,SE,143,1.0,2.0,80,0.00,,BKN050,0.00,VWS V14.01,2013-03-16 17:58:00,
2013-03-17 07:59:00,57.9,51.4,30.10,SE,140,0.0,2.0,79,0.00,,BKN050,0.00,VWS V14.01,2013-03-16 17:59:00,
2013-03-17 08:00:00,58.1,52.0,30.10,ENE,60,2.0,4.0,80,0.00,,SCT007,0.00,VWS V14.01,2013-03-16 18:00:00,
2013-03-17 08:01:00,58.1,52.0,30.10,ENE,60,3.0,3.0,80,0.00,,BKN050,0.00,VWS V14.01,2013-03-16 18:01:00,
2013-03-17 08:02:00,58.0,51.9,30.10,ENE,60,1.0,4.0,80,0.00,,BKN050,0.00,VWS V14.01,2013-03-16 18:02:00,
2013-03-17 08:03:00,57.9,51.8,30.10,ENE,60,1.0,2.0,80,0.00,,BKN050,0.00,VWS V14.01,2013-03-16 18:03:00,
2013-03-17 08:04:00,58.0,52.2,30.10,ENE,60,1.0,1.0,81,0.00,,BKN050,0.00,VWS V14.01,2013-03-16 18:04:00,
2013-03-17 08:05:00,58.2,52.4,30.10,ENE,60,1.0,1.0,81,0.00,,SCT007,0.00,VWS V14.01,2013-03-16 18:05:00,
2013-03-17 08:06:00,58.1,52.3,30.10,ENE,60,0.0,1.0,81,0.00,,BKN050,0.00,VWS V14.01,2013-03-16 18:06:00,
2013-03-17 08:07:00,58.2,52.4,30.10,ENE,60,0.0,1.0,81,0.00,,BKN050,0.00,VWS V14.01,2013-03-16 18:07:00,
2013-03-17 08:08:00,58.2,52.4,30.10,ENE,60,1.0,1.0,81,0.00,,BKN050,0.00,VWS V14.01,2013-03-16 18:08:00,
2013-03-17 08:09:00,58.2,52.1,30.10,ENE,60,0.0,2.0,80,0.00,,BKN050,0.00,VWS V14.01,2013-03-16 18:09:00,
2013-03-17 08:10:00,58.2,52.1,30.10,ENE,60,0.0,1.0,80,0.00,,SCT007,0.00,VWS V14.01,2013-03-16 18:10:00,
2013-03-17 08:15:00,60.0,52.8,30.10,ENE,57,0.0,1.0,77,0.00,,SCT007,0.00,VWS V14.01,2013-03-16 18:15:00,
2013-03-17 08:16:00,60.0,53.1,30.10,ENE,57,1.0,2.0,78,0.00,,BKN050,0.00,VWS V14.01,2013-03-16 18:16:00,
2013-03-17 08:17:00,60.0,52.8,30.10,ENE,57,1.0,1.0,77,0.00,,BKN050,0.00,VWS V14.01,2013-03-16 18:17:00,
2013-03-17 08:18:00,59.8,52.6,30.10,ENE,57,2.0,2.0,77,0.00,,BKN050,0.00,VWS V14.01,2013-03-16 18:18:00,
2013-03-17 08:19:00,59.5,52.3,30.10,ENE,57,0.0,2.0,77,0.00,,BKN050,0.00,VWS V14.01,2013-03-16 18:19:00,
2013-03-17 08:20:00,59.7,52.8,30.10,NNE,32,0.0,1.0,78,0.00,,SCT007,0.00,VWS V14.01,2013-03-16 18:20:00,
2013-03-17 08:22:00,59.8,52.9,30.11,NNE,32,2.0,2.0,78,0.00,,BKN050,0.00,VWS V14.01,2013-03-16 18:22:00,
2013-03-17 08:23:00,59.9,52.7,30.10,North,349,3.0,4.0,77,0.00,,BKN050,0.00,VWS V14.01,2013-03-16 18:23:00,
2013-03-17 08:24:00,60.0,52.4,30.10,NW,311,5.0,5.0,76,0.00,,BKN050,0.00,VWS V14.01,2013-03-16 18:24:00,
2013-03-17 08:25:00,60.5,53.3,30.11,North,360,2.0,2.0,77,0.00,,SCT007,0.00,VWS V14.01,2013-03-16 18:25:00,
2013-03-17 08:26:00,60.4,52.8,30.11,NW,317,1.0,1.0,76,0.00,,BKN050,0.00,VWS V14.01,2013-03-16 18:26:00,
2013-03-17 08:27:00,60.6,53.4,30.11,North,355,1.0,3.0,77,0.00,,BKN050,0.00,VWS V14.01,2013-03-16 18:27:00,
2013-03-17 08:28:00,60.7,53.1,30.11,NE,52,2.0,3.0,76,0.00,,BKN050,0.00,VWS V14.01,2013-03-16 18:28:00,
2013-03-17 08:29:00,60.7,52.4,30.11,NE,52,0.0,2.0,74,0.00,,BKN050,0.00,VWS V14.01,2013-03-16 18:29:00,
2013-03-17 08:30:00,61.0,53.0,30.11,NE,53,2.0,3.0,75,0.00,,SCT007,0.00,VWS V14.01,2013-03-16 18:30:00,
2013-03-17 08:31:00,61.1,53.1,30.11,NE,53,3.0,4.0,75,0.00,,BKN050,0.00,VWS V14.01,2013-03-16 18:31:00,
2013-03-17 08:32:00,60.9,52.9,30.11,ENE,59,2.0,3.0,75,0.00,,BKN050,0.00,VWS V14.01,2013-03-16 18:32:00,
2013-03-17 08:33:00,60.8,52.8,30.10,ENE,59,3.0,3.0,75,0.00,,BKN050,0.00,VWS V14.01,2013-03-16 18:33:00,
2013-03-17 08:34:00,60.9,53.3,30.10,ENE,61,3.0,4.0,76,0.00,,BKN050,0.00,VWS V14.01,2013-03-16 18:34:00,
2013-03-17 08:35:00,61.0,53.8,30.11,NE,51,2.0,3.0,77,0.00,,SCT007,0.00,VWS V14.01,2013-03-16 18:35:00,
2013-03-17 08:36:00,60.9,53.7,30.10,NE,51,2.0,4.0,77,0.00,,BKN050,0.00,VWS V14.01,2013-03-16 18:36:00,
2013-03-17 08:37:00,60.9,53.7,30.11,NE,51,1.0,3.0,77,0.00,,BKN050,0.00,VWS V14.01,2013-03-16 18:37:00,
2013-03-17 08:38:00,60.8,53.5,30.11,NE,53,3.0,8.0,77,0.00,,BKN050,0.00,VWS V14.01,2013-03-16 18:38:00,
2013-03-17 08:39:00,60.7,53.5,30.11,NNE,20,3.0,3.0,77,0.00,,BKN050,0.00,VWS V14.01,2013-03-16 18:39:00,
2013-03-17 08:40:00,60.4,53.2,30.11,NE,53,2.0,6.0,77,0.00,,SCT007,0.00,VWS V14.01,2013-03-16 18:40:00,
2013-03-17 08:41:00,60.5,53.3,30.11,NE,50,6.0,6.0,77,0.00,,BKN050,0.00,VWS V14.01,2013-03-16 18:41:00,
2013-03-17 08:43:00,60.4,53.9,30.11,NNW,328,4.0,7.0,79,0.00,,BKN050,0.00,VWS V14.01,2013-03-16 18:43:00,
2013-03-17 08:44:00,60.5,54.0,30.11,NE,45,4.0,7.0,79,0.00,,BKN050,0.00,VWS V14.01,2013-03-16 18:44:00,
2013-03-17 08:45:00,60.2,53.7,30.11,NE,47,3.0,4.0,79,0.00,,SCT007,0.00,VWS V14.01,2013-03-16 18:45:00,
2013-03-17 08:46:00,60.2,53.7,30.11,NE,52,4.0,4.0,79,0.00,,BKN050,0.00,VWS V14.01,2013-03-16 18:46:00,
2013-03-17 08:47:00,60.1,53.6,30.11,NE,40,3.0,4.0,79,0.00,,BKN050,0.00,VWS V14.01,2013-03-16 18:47:00,
2013-03-17 08:48:00,59.9,53.4,30.11,NE,48,4.0,6.0,79,0.00,,BKN050,0.00,VWS V14.01,2013-03-16 18:48:00,
2013-03-17 08:49:00,59.7,53.2,30.11,NE,54,4.0,4.0,79,0.00,,BKN050,0.00,VWS V14.01,2013-03-16 18:49:00,
2013-03-17 08:50:00,59.3,53.5,30.11,ENE,57,2.0,3.0,81,0.00,,SCT007,0.00,VWS V14.01,2013-03-16 18:50:00,
2013-03-17 08:51:00,59.3,53.1,30.11,ENE,57,2.0,5.0,80,0.00,,BKN050,0.00,VWS V14.01,2013-03-16 18:51:00,
2013-03-17 08:52:00,59.4,53.6,30.11,ENE,57,1.0,3.0,81,0.00,,BKN050,0.00,VWS V14.01,2013-03-16 18:52:00,
2013-03-17 08:53:00,59.5,53.7,30.11,ENE,57,4.0,4.0,81,0.00,,BKN050,0.00,VWS V14.01,2013-03-16 18:53:00,
2013-03-17 08:54:00,59.6,53.4,30.11,ENE,57,1.0,4.0,80,0.00,,BKN050,0.00,VWS V14.01,2013-03-16 18:54:00,
2013-03-17 08:55:00,59.8,53.6,30.11,NNE,20,1.0,2.0,80,0.00,,SCT007,0.00,VWS V14.01,2013-03-16 18:55:00,
2013-03-17 08:56:00,59.7,53.5,30.11,NNE,19,2.0,3.0,80,0.00,,BKN050,0.00,VWS V14.01,2013-03-16 18:56:00,
2013-03-17 08:57:00,59.9,53.7,30.11,NNE,20,1.0,3.0,80,0.00,,BKN050,0.00,VWS V14.01,2013-03-16 18:57:00,
2013-03-17 08:58:00,59.7,53.2,30.11,NE,42,2.0,4.0,79,0.00,,BKN050,0.00,VWS V14.01,2013-03-16 18:58:00,
2013-03-17 08:59:00,59.6,53.1,30.11,NE,50,3.0,4.0,79,0.00,,BKN050,0.00,VWS V14.01,2013-03-16 18:59:00,
2013-03-17 09:00:00,59.5,53.0,30.11,NE,49,7.0,7.0,79,0.00,,SCT150,0.00,VWS V14.01,2013-03-16 19:00:00,
2013-03-17 09:02:00,59.4,52.9,30.11,ENE,61,2.0,7.0,79,0.00,,BKN050,0.00,VWS V14.01,2013-03-16 19:02:00,
2013-03-17 09:03:00,59.3,52.8,30.10,North,360,4.0,5.0,79,0.00,,BKN050,0.00,VWS V14.01,2013-03-16 19:03:00,
2013-03-17 09:04:00,59.6,53.4,30.11,NNE,20,0.0,5.0,80,0.00,,BKN050,0.00,VWS V14.01,2013-03-16 19:04:00,
2013-03-17 09:05:00,59.8,53.3,30.11,NE,44,1.0,3.0,79,0.00,,SCT150,0.00,VWS V14.01,2013-03-16 19:05:00,
2013-03-17 09:06:00,59.9,53.4,30.11,NE,40,3.0,3.0,79,0.00,,BKN050,0.00,VWS V14.01,2013-03-16 19:06:00,
2013-03-17 09:07:00,59.8,53.3,30.11,NE,44,4.0,4.0,79,0.00,,BKN050,0.00,VWS V14.01,2013-03-16 19:07:00,
2013-03-17 09:08:00,59.8,53.3,30.11,NE,46,4.0,4.0,79,0.00,,BKN050,0.00,VWS V14.01,2013-03-16 19:08:00,
2013-03-17 09:09:00,59.7,52.8,30.11,NE,52,3.0,5.0,78,0.00,,BKN050,0.00,VWS V14.01,2013-03-16 19:09:00,
2013-03-17 09:10:00,59.6,52.7,30.11,NNW,328,3.0,5.0,78,0.00,,SCT150,0.00,VWS V14.01,2013-03-16 19:10:00,
2013-03-17 09:11:00,59.5,52.7,30.11,NE,51,1.0,6.0,78,0.00,,BKN050,0.00,VWS V14.01,2013-03-16 19:11:00,
2013-03-17 09:12:00,59.7,52.8,30.11,North,10,2.0,6.0,78,0.00,,BKN050,0.00,VWS V14.01,2013-03-16 19:12:00,
2013-03-17 09:13:00,59.7,52.8,30.11,North,9,1.0,3.0,78,0.00,,BKN050,0.00,VWS V14.01,2013-03-16 19:13:00,
2013-03-17 09:14:00,59.7,52.8,30.11,NNE,28,0.0,4.0,78,0.00,,BKN050,0.00,VWS V14.01,2013-03-16 19:14:00,
2013-03-17 09:15:00,60.1,53.2,30.11,NNE,28,3.0,3.0,78,0.00,,SCT150,0.00,VWS V14.01,2013-03-16 19:15:00,
2013-03-17 09:16:00,60.0,53.1,30.11,NNE,28,0.0,1.0,78,0.00,,BKN050,0.00,VWS V14.01,2013-03-16 19:16:00,
2013-03-17 09:17:00,60.3,53.1,30.11,North,360,3.0,6.0,77,0.00,,BKN050,0.00,VWS V14.01,2013-03-16 19:17:00,
2013-03-17 09:18:00,60.3,52.7,30.11,NNW,335,3.0,4.0,76,0.00,,BKN050,0.00,VWS V14.01,2013-03-16 19:18:00,
2013-03-17 09:19:00,60.4,53.2,30.11,NNE,13,2.0,7.0,77,0.00,,BKN050,0.00,VWS V14.01,2013-03-16 19:19:00,
2013-03-17 09:20:00,60.1,52.5,30.11,NNW,344,1.0,2.0,76,0.00,,SCT150,0.00,VWS V14.01,2013-03-16 19:20:00,
2013-03-17 09:21:00,60.1,52.5,30.11,NNE,26,2.0,2.0,76,0.00,,BKN050,0.00,VWS V14.01,2013-03-16 19:21:00,
2013-03-17 09:22:00,60.1,52.5,30.11,NNW,344,2.0,2.0,76,0.00,,BKN050,0.00,VWS V14.01,2013-03-16 19:22:00,
2013-03-17 09:23:00,60.0,52.4,30.11,NE,53,4.0,4.0,76,0.00,,BKN050,0.00,VWS V14.01,2013-03-16 19:23:00,
2013-03-17 09:24:00,59.6,52.0,30.11,NE,56,1.0,4.0,76,0.00,,BKN050,0.00,VWS V14.01,2013-03-16 19:24:00,
2013-03-17 09:25:00,59.7,52.5,30.11,NE,56,0.0,1.0,77,0.00,,SCT150,0.00,VWS V14.01,2013-03-16 19:25:00,
2013-03-17 09:26:00,59.6,52.4,30.11,NE,56,1.0,3.0,77,0.00,,BKN050,0.00,VWS V14.01,2013-03-16 19:26:00,
2013-03-17 09:27:00,59.9,52.7,30.11,NE,56,0.0,1.0,77,0.00,,BKN050,0.00,VWS V14.01,2013-03-16 19:27:00,
2013-03-17 09:28:00,60.2,52.6,30.11,NE,56,1.0,2.0,76,0.00,,BKN050,0.00,VWS V14.01,2013-03-16 19:28:00,
2013-03-17 09:29:00,60.6,53.0,30.11,NE,51,2.0,2.0,76,0.00,,BKN050,0.00,VWS V14.01,2013-03-16 19:29:00,
2013-03-17 09:30:00,60.8,52.5,30.11,NE,55,2.0,4.0,74,0.00,,SCT150,0.00,VWS V14.01,2013-03-16 19:30:00,
2013-03-17 09:32:00,60.7,52.4,30.11,ENE,61,2.0,4.0,74,0.00,,BKN050,0.00,VWS V14.01,2013-03-16 19:32:00,
2013-03-17 09:33:00,60.5,52.2,30.11,ENE,57,2.0,7.0,74,0.00,,BKN050,0.00,VWS V14.01,2013-03-16 19:33:00,
2013-03-17 09:34:00,60.6,52.6,30.11,NE,55,0.0,2.0,75,0.00,,BKN050,0.00,VWS V14.01,2013-03-16 19:34:00,
2013-03-17 09:35:00,61.2,53.2,30.11,NE,55,1.0,1.0,75,0.00,,SCT150,0.00,VWS V14.01,2013-03-16 19:35:00,
2013-03-17 09:36:00,61.1,53.1,30.11,NE,55,1.0,1.0,75,0.00,,BKN050,0.00,VWS V14.01,2013-03-16 19:36:00,
2013-03-17 09:37:00,61.4,53.4,30.11,NE,55,2.0,2.0,75,0.00,,BKN050,0.00,VWS V14.01,2013-03-16 19:37:00,
2013-03-17 09:39:00,61.8,53.4,30.10,North,10,1.0,3.0,74,0.00,,BKN050,0.00,VWS V14.01,2013-03-16 19:39:00,
2013-03-17 09:40:00,62.3,53.2,30.10,NNE,24,1.0,2.0,72,0.00,,SCT150,0.00,VWS V14.01,2013-03-16 19:40:00,
2013-03-17 09:41:00,62.4,53.3,30.10,NNE,24,2.0,3.0,72,0.00,,BKN050,0.00,VWS V14.01,2013-03-16 19:41:00,
2013-03-17 09:42:00,62.3,52.8,30.10,NNE,24,0.0,2.0,71,0.00,,BKN050,0.00,VWS V14.01,2013-03-16 19:42:00,
2013-03-17 09:43:00,62.2,53.1,30.10,NNE,24,0.0,1.0,72,0.00,,BKN050,0.00,VWS V14.01,2013-03-16 19:43:00,
2013-03-17 09:44:00,62.0,52.5,30.10,ENE,59,5.0,5.0,71,0.00,,BKN050,0.00,VWS V14.01,2013-03-16 19:44:00,
2013-03-17 09:45:00,61.1,52.4,30.10,NE,42,0.0,2.0,73,0.00,,SCT150,0.00,VWS V14.01,2013-03-16 19:45:00,
2013-03-17 09:46:00,61.1,52.4,30.10,NE,42,2.0,3.0,73,0.00,,BKN050,0.00,VWS V14.01,2013-03-16 19:46:00,
2013-03-17 09:47:00,61.1,52.8,30.10,NE,42,2.0,2.0,74,0.00,,BKN050,0.00,VWS V14.01,2013-03-16 19:47:00,
2013-03-17 09:49:00,61.5,53.2,30.10,NE,41,1.0,2.0,74,0.00,,BKN050,0.00,VWS V14.01,2013-03-16 19:49:00,
2013-03-17 09:50:00,61.6,52.1,30.10,NE,43,0.0,1.0,71,0.00,,SCT150,0.00,VWS V14.01,2013-03-16 19:50:00,
2013-03-17 09:52:00,61.6,52.9,30.10,NE,43,0.0,1.0,73,0.00,,BKN050,0.00,VWS V14.01,2013-03-16 19:52:00,
2013-03-17 09:54:00,62.2,53.5,30.10,NE,44,1.0,4.0,73,0.00,,BKN050,0.00,VWS V14.01,2013-03-16 19:54:00,
2013-03-17 09:55:00,61.6,52.5,30.10,NE,54,0.0,2.0,72,0.00,,SCT150,0.00,VWS V14.01,2013-03-16 19:55:00,
2013-03-17 09:56:00,61.6,52.5,30.10,NE,54,2.0,3.0,72,0.00,,BKN050,0.00,VWS V14.01,2013-03-16 19:56:00,
2013-03-17 09:57:00,61.5,52.8,30.10,NE,54,1.0,2.0,73,0.00,,BKN050,0.00,VWS V14.01,2013-03-16 19:57:00,
2013-03-17 09:58:00,61.5,52.8,30.10,NE,54,1.0,2.0,73,0.00,,BKN050,0.00,VWS V14.01,2013-03-16 19:58:00,
2013-03-17 10:00:00,62.5,53.4,30.09,NE,54,1.0,1.0,72,0.00,,FEW150,0.00,VWS V14.01,2013-03-16 20:00:00,
2013-03-17 10:01:00,62.3,53.5,30.09,NE,54,1.0,2.0,73,0.00,,BKN050,0.00,VWS V14.01,2013-03-16 20:01:00,
2013-03-17 10:04:00,62.4,52.9,30.09,ENE,60,2.0,4.0,71,0.00,,BKN050,0.00,VWS V14.01,2013-03-16 20:04:00,
2013-03-17 10:05:00,61.5,52.4,30.09,ENE,61,1.0,2.0,72,0.00,,FEW150,0.00,VWS V14.01,2013-03-16 20:05:00,
2013-03-17 10:06:00,61.5,52.0,30.09,ENE,61,2.0,5.0,71,0.00,,BKN050,0.00,VWS V14.01,2013-03-16 20:06:00,
2013-03-17 10:09:00,61.4,52.3,30.09,ENE,61,1.0,1.0,72,0.00,,BKN050,0.00,VWS V14.01,2013-03-16 20:09:00,
2013-03-17 10:10:00,61.6,52.1,30.09,ENE,65,0.0,1.0,71,0.00,,FEW150,0.00,VWS V14.01,2013-03-16 20:10:00,
2013-03-17 10:11:00,61.6,52.1,30.09,ENE,65,0.0,3.0,71,0.00,,BKN050,0.00,VWS V14.01,2013-03-16 20:11:00,
2013-03-17 10:12:00,62.0,52.5,30.09,ENE,65,0.0,1.0,71,0.00,,BKN050,0.00,VWS V14.01,2013-03-16 20:12:00,
2013-03-17 10:13:00,62.6,53.1,30.09,NNW,343,1.0,4.0,71,0.00,,BKN050,0.00,VWS V14.01,2013-03-16 20:13:00,
2013-03-17 10:14:00,62.9,53.0,30.08,NNW,343,1.0,1.0,70,0.00,,BKN050,0.00,VWS V14.01,2013-03-16 20:14:00,
2013-03-17 10:15:00,62.9,52.2,30.08,NNW,343,1.0,1.0,68,0.00,,FEW150,0.00,VWS V14.01,2013-03-16 20:15:00,
2013-03-17 10:18:00,62.8,52.1,30.08,NNW,343,0.0,0.0,68,0.00,,BKN050,0.00,VWS V14.01,2013-03-16 20:18:00,
2013-03-17 10:19:00,63.4,53.1,30.08,NNW,343,1.0,1.0,69,0.00,,BKN050,0.00,VWS V14.01,2013-03-16 20:19:00,
2013-03-17 10:20:00,63.0,51.9,30.08,NE,43,0.0,2.0,67,0.00,,FEW150,0.00,VWS V14.01,2013-03-16 20:20:00,
2013-03-17 10:21:00,63.1,52.0,30.08,NE,43,1.0,3.0,67,0.00,,BKN050,0.00,VWS V14.01,2013-03-16 20:21:00,
2013-03-17 10:22:00,62.8,51.7,30.08,NE,43,0.0,2.0,67,0.00,,BKN050,0.00,VWS V14.01,2013-03-16 20:22:00,
2013-03-17 10:23:00,62.6,51.5,30.08,NE,43,1.0,1.0,67,0.00,,BKN050,0.00,VWS V14.01,2013-03-16 20:23:00,
2013-03-17 10:24:00,62.9,52.6,30.08,ENE,78,1.0,2.0,69,0.00,,BKN050,0.00,VWS V14.01,2013-03-16 20:24:00,
2013-03-17 10:25:00,63.6,52.9,30.07,ESE,119,2.0,2.0,68,0.00,,FEW150,0.00,VWS V14.01,2013-03-16 20:25:00,
2013-03-17 10:26:00,63.5,52.8,30.08,ESE,119,1.0,2.0,68,0.00,,BKN050,0.00,VWS V14.01,2013-03-16 20:26:00,
2013-03-17 10:27:00,63.8,52.2,30.07,SE,136,1.0,3.0,66,0.00,,BKN050,0.00,VWS V14.01,2013-03-16 20:27:00,
2013-03-17 10:29:00,64.2,52.2,30.07,ENE,58,2.0,4.0,65,0.00,,BKN050,0.00,VWS V14.01,2013-03-16 20:29:00,
2013-03-17 10:30:00,64.1,52.5,30.07,East,93,1.0,2.0,66,0.00,,FEW150,0.00,VWS V14.01,2013-03-16 20:30:00,
2013-03-17 10:31:00,64.0,52.0,30.07,East,93,2.0,2.0,65,0.00,,BKN050,0.00,VWS V14.01,2013-03-16 20:31:00,
2013-03-17 10:32:00,64.3,52.7,30.07,East,98,1.0,3.0,66,0.00,,BKN050,0.00,VWS V14.01,2013-03-16 20:32:00,
2013-03-17 10:33:00,64.3,52.3,30.07,East,80,1.0,3.0,65,0.00,,BKN050,0.00,VWS V14.01,2013-03-16 20:33:00,
2013-03-17 10:34:00,64.4,52.4,30.07,ENE,64,2.0,3.0,65,0.00,,BKN050,0.00,VWS V14.01,2013-03-16 20:34:00,
2013-03-17 10:35:00,64.9,52.9,30.07,NE,42,0.0,1.0,65,0.00,,FEW150,0.00,VWS V14.01,2013-03-16 20:35:00,
2013-03-17 10:36:00,64.7,52.7,30.07,NE,42,1.0,2.0,65,0.00,,BKN050,0.00,VWS V14.01,2013-03-16 20:36:00,
2013-03-17 10:37:00,65.2,52.7,30.07,NE,42,0.0,1.0,64,0.00,,BKN050,0.00,VWS V14.01,2013-03-16 20:37:00,
2013-03-17 10:38:00,65.8,52.9,30.07,NE,42,0.0,2.0,63,0.00,,BKN050,0.00,VWS V14.01,2013-03-16 20:38:00,
2013-03-17 10:39:00,66.3,52.9,30.07,NE,42,0.0,1.0,62,0.00,,BKN050,0.00,VWS V14.01,2013-03-16 20:39:00,
2013-03-17 10:40:00,66.6,52.8,30.07,NE,42,0.0,1.0,61,0.00,,FEW150,0.00,VWS V14.01,2013-03-16 20:40:00,
2013-03-17 10:41:00,66.4,52.1,30.07,NE,42,0.0,0.0,60,0.00,,BKN050,0.00,VWS V14.01,2013-03-16 20:41:00,
2013-03-17 10:42:00,66.8,52.9,30.07,NE,42,2.0,2.0,61,0.00,,BKN050,0.00,VWS V14.01,2013-03-16 20:42:00,
2013-03-17 10:43:00,66.5,53.1,30.07,NE,51,2.0,4.0,62,0.00,,BKN050,0.00,VWS V14.01,2013-03-16 20:43:00,
2013-03-17 10:44:00,66.2,52.8,30.07,NE,51,2.0,3.0,62,0.00,,BKN050,0.00,VWS V14.01,2013-03-16 20:44:00,
2013-03-17 10:45:00,65.4,52.9,30.06,NE,51,1.0,1.0,64,0.00,,FEW150,0.00,VWS V14.01,2013-03-16 20:45:00,
2013-03-17 10:46:00,65.4,52.9,30.06,NE,51,1.0,3.0,64,0.00,,BKN050,0.00,VWS V14.01,2013-03-16 20:46:00,
2013-03-17 10:47:00,65.4,52.9,30.06,NE,51,0.0,1.0,64,0.00,,BKN050,0.00,VWS V14.01,2013-03-16 20:47:00,
2013-03-17 10:48:00,65.9,53.4,30.06,ESE,117,0.0,2.0,64,0.00,,BKN050,0.00,VWS V14.01,2013-03-16 20:48:00,
2013-03-17 10:49:00,65.9,52.5,30.07,East,100,1.0,3.0,62,0.00,,BKN050,0.00,VWS V14.01,2013-03-16 20:49:00,
2013-03-17 10:50:00,65.5,52.6,30.07,East,100,1.0,1.0,63,0.00,,FEW150,0.00,VWS V14.01,2013-03-16 20:50:00,
2013-03-17 10:51:00,65.4,52.5,30.07,East,100,1.0,2.0,63,0.00,,BKN050,0.00,VWS V14.01,2013-03-16 20:51:00,
2013-03-17 10:52:00,65.4,52.9,30.07,ENE,75,0.0,3.0,64,0.00,,BKN050,0.00,VWS V14.01,2013-03-16 20:52:00,
2013-03-17 10:53:00,65.4,52.5,30.07,ENE,76,1.0,1.0,63,0.00,,BKN050,0.00,VWS V14.01,2013-03-16 20:53:00,
2013-03-17 10:54:00,65.6,53.1,30.06,ENE,75,1.0,2.0,64,0.00,,BKN050,0.00,VWS V14.01,2013-03-16 20:54:00,
2013-03-17 10:55:00,65.8,52.9,30.06,ENE,71,0.0,1.0,63,0.00,,FEW150,0.00,VWS V14.01,2013-03-16 20:55:00,
2013-03-17 10:56:00,65.8,52.9,30.06,ENE,71,1.0,3.0,63,0.00,,BKN050,0.00,VWS V14.01,2013-03-16 20:56:00,
2013-03-17 10:59:00,65.8,53.3,30.06,NE,52,0.0,2.0,64,0.00,,BKN050,0.00,VWS V14.01,2013-03-16 20:59:00,
2013-03-17 11:00:00,66.0,53.1,30.06,NE,55,4.0,4.0,63,0.00,,FEW200,0.00,VWS V14.01,2013-03-16 21:00:00,
2013-03-17 11:01:00,66.0,53.1,30.06,NE,49,3.0,4.0,63,0.00,,BKN050,0.00,VWS V14.01,2013-03-16 21:01:00,
2013-03-17 11:02:00,66.0,53.1,30.06,NE,56,3.0,4.0,63,0.00,,BKN050,0.00,VWS V14.01,2013-03-16 21:02:00,
2013-03-17 11:03:00,66.0,53.1,30.06,NE,56,1.0,4.0,63,0.00,,BKN050,0.00,VWS V14.01,2013-03-16 21:03:00,
2013-03-17 11:04:00,66.2,53.2,30.06,NE,56,1.0,2.0,63,0.00,,BKN050,0.00,VWS V14.01,2013-03-16 21:04:00,
2013-03-17 11:05:00,66.9,53.0,30.06,NE,56,2.0,2.0,61,0.00,,FEW200,0.00,VWS V14.01,2013-03-16 21:05:00,
2013-03-17 11:06:00,66.9,53.5,30.06,NE,56,2.0,2.0,62,0.00,,BKN050,0.00,VWS V14.01,2013-03-16 21:06:00,
2013-03-17 11:07:00,66.9,53.0,30.06,NE,56,0.0,2.0,61,0.00,,BKN050,0.00,VWS V14.01,2013-03-16 21:07:00,
2013-03-17 11:08:00,67.2,53.8,30.06,NNW,343,3.0,5.0,62,0.00,,BKN050,0.00,VWS V14.01,2013-03-16 21:08:00,
2013-03-17 11:09:00,67.4,53.5,30.06,NNE,12,2.0,4.0,61,0.00,,BKN050,0.00,VWS V14.01,2013-03-16 21:09:00,
2013-03-17 11:10:00,67.3,53.4,30.06,NNE,22,1.0,3.0,61,0.00,,FEW200,0.00,VWS V14.01,2013-03-16 21:10:00,
2013-03-17 11:11:00,67.3,53.4,30.06,NNE,22,3.0,4.0,61,0.00,,BKN050,0.00,VWS V14.01,2013-03-16 21:11:00,
2013-03-17 11:12:00,67.4,53.5,30.06,NNE,27,1.0,3.0,61,0.00,,BKN050,0.00,VWS V14.01,2013-03-16 21:12:00,
2013-03-17 11:13:00,67.2,53.3,30.06,NE,48,3.0,3.0,61,0.00,,BKN050,0.00,VWS V14.01,2013-03-16 21:13:00,
2013-03-17 11:14:00,66.8,52.9,30.06,ENE,61,5.0,5.0,61,0.00,,BKN050,0.00,VWS V14.01,2013-03-16 21:14:00,
2013-03-17 11:15:00,66.2,53.2,30.06,NE,56,1.0,1.0,63,0.00,,FEW200,0.00,VWS V14.01,2013-03-16 21:15:00,
2013-03-17 11:16:00,66.2,53.2,30.06,NE,56,1.0,4.0,63,0.00,,BKN050,0.00,VWS V14.01,2013-03-16 21:16:00,
2013-03-17 11:17:00,66.3,53.3,30.06,North,350,5.0,5.0,63,0.00,,BKN050,0.00,VWS V14.01,2013-03-16 21:17:00,
2013-03-17 11:18:00,66.8,53.8,30.06,NNW,340,0.0,5.0,63,0.00,,BKN050,0.00,VWS V14.01,2013-03-16 21:18:00,
2013-03-17 11:19:00,67.3,53.8,30.06,NNW,340,2.0,2.0,62,0.00,,BKN050,0.00,VWS V14.01,2013-03-16 21:19:00,
2013-03-17 11:20:00,67.9,54.0,30.06,NNW,342,1.0,1.0,61,0.00,,FEW200,0.00,VWS V14.01,2013-03-16 21:20:00,
2013-03-17 11:21:00,68.0,54.1,30.06,NNW,342,1.0,2.0,61,0.00,,BKN050,0.00,VWS V14.01,2013-03-16 21:21:00,
2013-03-17 11:22:00,67.6,53.2,30.06,NNE,23,2.0,3.0,60,0.00,,BKN050,0.00,VWS V14.01,2013-03-16 21:22:00,
2013-03-17 11:23:00,67.2,52.9,30.06,NNE,28,0.0,3.0,60,0.00,,BKN050,0.00,VWS V14.01,2013-03-16 21:23:00,
2013-03-17 11:24:00,66.8,52.5,30.05,ENE,61,2.0,4.0,60,0.00,,BKN050,0.00,VWS V14.01,2013-03-16 21:24:00,
2013-03-17 11:25:00,66.3,52.9,30.05,ENE,61,1.0,2.0,62,0.00,,FEW200,0.00,VWS V14.01,2013-03-16 21:25:00,
2013-03-17 11:26:00,66.3,52.9,30.05,ENE,61,2.0,2.0,62,0.00,,BKN050,0.00,VWS V14.01,2013-03-16 21:26:00,
2013-03-17 11:27:00,66.5,53.1,30.05,ENE,62,4.0,5.0,62,0.00,,BKN050,0.00,VWS V14.01,2013-03-16 21:27:00,
2013-03-17 11:28:00,66.5,52.7,30.05,ENE,58,2.0,6.0,61,0.00,,BKN050,0.00,VWS V14.01,2013-03-16 21:28:00,
2013-03-17 11:29:00,66.4,53.0,30.05,ENE,58,1.0,3.0,62,0.00,,BKN050,0.00,VWS V14.01,2013-03-16 21:29:00,
2013-03-17 11:30:00,66.9,53.5,30.05,NE,42,3.0,3.0,62,0.00,,FEW200,0.00,VWS V14.01,2013-03-16 21:30:00,
2013-03-17 11:31:00,66.8,53.4,30.05,NNW,344,2.0,4.0,62,0.00,,BKN050,0.00,VWS V14.01,2013-03-16 21:31:00,
2013-03-17 11:32:00,66.9,53.5,30.05,NE,42,1.0,4.0,62,0.00,,BKN050,0.00,VWS V14.01,2013-03-16 21:32:00,
2013-03-17 11:33:00,66.9,53.0,30.05,ENE,60,4.0,8.0,61,0.00,,BKN050,0.00,VWS V14.01,2013-03-16 21:33:00,
2013-03-17 11:34:00,66.7,52.8,30.05,ENE,64,3.0,7.0,61,0.00,,BKN050,0.00,VWS V14.01,2013-03-16 21:34:00,
2013-03-17 11:35:00,66.6,53.6,30.05,NNE,20,2.0,3.0,63,0.00,,FEW200,0.00,VWS V14.01,2013-03-16 21:35:00,
2013-03-17 11:36:00,66.5,53.5,30.05,ENE,61,2.0,3.0,63,0.00,,BKN050,0.00,VWS V14.01,2013-03-16 21:36:00,
2013-03-17 11:37:00,66.7,53.3,30.05,North,11,2.0,4.0,62,0.00,,BKN050,0.00,VWS V14.01,2013-03-16 21:37:00,
2013-03-17 11:38:00,66.8,53.4,30.05,North,11,2.0,3.0,62,0.00,,BKN050,0.00,VWS V14.01,2013-03-16 21:38:00,
2013-03-17 11:39:00,66.7,53.3,30.05,ENE,57,1.0,6.0,62,0.00,,BKN050,0.00,VWS V14.01,2013-03-16 21:39:00,
2013-03-17 11:40:00,66.2,53.2,30.05,ENE,58,1.0,2.0,63,0.00,,FEW200,0.00,VWS V14.01,2013-03-16 21:40:00,
2013-03-17 11:41:00,66.2,52.8,30.05,ENE,58,2.0,3.0,62,0.00,,BKN050,0.00,VWS V14.01,2013-03-16 21:41:00,
2013-03-17 11:43:00,66.6,53.6,30.05,ENE,57,3.0,5.0,63,0.00,,BKN050,0.00,VWS V14.01,2013-03-16 21:43:00,
2013-03-17 11:44:00,66.4,53.0,30.05,ENE,62,1.0,5.0,62,0.00,,BKN050,0.00,VWS V14.01,2013-03-16 21:44:00,
2013-03-17 11:45:00,66.4,53.4,30.05,ENE,60,1.0,2.0,63,0.00,,FEW200,0.00,VWS V14.01,2013-03-16 21:45:00,
2013-03-17 11:46:00,66.4,53.4,30.05,ENE,60,2.0,2.0,63,0.00,,BKN050,0.00,VWS V14.01,2013-03-16 21:46:00,
2013-03-17 11:47:00,66.6,53.6,30.05,ENE,60,2.0,2.0,63,0.00,,BKN050,0.00,VWS V14.01,2013-03-16 21:47:00,
2013-03-17 11:48:00,66.8,53.8,30.05,ENE,60,2.0,2.0,63,0.00,,BKN050,0.00,VWS V14.01,2013-03-16 21:48:00,
2013-03-17 11:49:00,66.9,53.0,30.05,ENE,60,2.0,3.0,61,0.00,,BKN050,0.00,VWS V14.01,2013-03-16 21:49:00,
2013-03-17 11:50:00,66.6,52.3,30.05,NE,56,1.0,3.0,60,0.00,,FEW200,0.00,VWS V14.01,2013-03-16 21:50:00,
2013-03-17 11:51:00,66.7,52.4,30.05,NE,56,2.0,3.0,60,0.00,,BKN050,0.00,VWS V14.01,2013-03-16 21:51:00,
2013-03-17 11:52:00,66.7,52.4,30.05,NNE,26,1.0,3.0,60,0.00,,BKN050,0.00,VWS V14.01,2013-03-16 21:52:00,
2013-03-17 11:53:00,66.7,52.4,30.05,NNE,26,1.0,3.0,60,0.00,,BKN050,0.00,VWS V14.01,2013-03-16 21:53:00,
2013-03-17 11:54:00,66.8,52.5,30.05,NE,56,3.0,4.0,60,0.00,,BKN050,0.00,VWS V14.01,2013-03-16 21:54:00,
2013-03-17 11:55:00,66.2,52.4,30.04,ENE,59,1.0,3.0,61,0.00,,FEW200,0.00,VWS V14.01,2013-03-16 21:55:00,
2013-03-17 11:56:00,66.3,52.5,30.05,ENE,59,2.0,3.0,61,0.00,,BKN050,0.00,VWS V14.01,2013-03-16 21:56:00,
2013-03-17 11:59:00,66.1,52.7,30.05,ENE,59,2.0,3.0,62,0.00,,BKN050,0.00,VWS V14.01,2013-03-16 21:59:00,
2013-03-17 12:00:00,65.7,51.9,30.04,ENE,57,3.0,7.0,61,0.00,,FEW200,0.00,VWS V14.01,2013-03-16 22:00:00,
2013-03-17 12:05:00,65.9,52.5,30.05,NE,55,2.0,3.0,62,0.00,,FEW200,0.00,VWS V14.01,2013-03-16 22:05:00,
2013-03-17 12:07:00,65.9,52.5,30.05,NE,55,0.0,3.0,62,0.00,,BKN050,0.00,VWS V14.01,2013-03-16 22:07:00,
2013-03-17 12:09:00,65.8,52.4,30.05,ENE,59,1.0,5.0,62,0.00,,BKN050,0.00,VWS V14.01,2013-03-16 22:09:00,
2013-03-17 12:10:00,66.5,53.5,30.04,ENE,59,3.0,3.0,63,0.00,,FEW200,0.00,VWS V14.01,2013-03-16 22:10:00,
2013-03-17 12:11:00,66.4,53.4,30.04,ENE,59,1.0,2.0,63,0.00,,BKN050,0.00,VWS V14.01,2013-03-16 22:11:00,
2013-03-17 12:12:00,66.7,52.8,30.04,NE,53,8.0,8.0,61,0.00,,BKN050,0.00,VWS V14.01,2013-03-16 22:12:00,
2013-03-17 12:13:00,66.5,52.2,30.04,NE,56,4.0,8.0,60,0.00,,BKN050,0.00,VWS V14.01,2013-03-16 22:13:00,
2013-03-17 12:14:00,66.3,52.0,30.05,ENE,61,3.0,8.0,60,0.00,,BKN050,0.00,VWS V14.01,2013-03-16 22:14:00,
2013-03-17 12:15:00,65.9,52.1,30.05,NE,54,5.0,7.0,61,0.00,,FEW200,0.00,VWS V14.01,2013-03-16 22:15:00,
2013-03-17 12:17:00,65.9,52.1,30.05,NE,51,1.0,7.0,61,0.00,,BKN050,0.00,VWS V14.01,2013-03-16 22:17:00,
2013-03-17 12:18:00,66.2,52.8,30.05,NE,51,3.0,3.0,62,0.00,,BKN050,0.00,VWS V14.01,2013-03-16 22:18:00,
2013-03-17 12:19:00,66.4,52.1,30.05,NE,55,3.0,4.0,60,0.00,,BKN050,0.00,VWS V14.01,2013-03-16 22:19:00,
2013-03-17 12:20:00,66.6,50.9,30.05,NE,54,4.0,5.0,57,0.00,,FEW200,0.00,VWS V14.01,2013-03-16 22:20:00,
2013-03-17 12:21:00,66.6,50.9,30.05,NE,56,3.0,7.0,57,0.00,,BKN050,0.00,VWS V14.01,2013-03-16 22:21:00,
2013-03-17 12:22:00,66.5,50.8,30.05,NE,51,5.0,5.0,57,0.00,,BKN050,0.00,VWS V14.01,2013-03-16 22:22:00,
2013-03-17 12:24:00,66.3,51.1,30.05,NE,53,3.0,5.0,58,0.00,,BKN050,0.00,VWS V14.01,2013-03-16 22:24:00,
2013-03-17 12:25:00,66.1,51.4,30.05,NE,55,5.0,5.0,59,0.00,,FEW200,0.00,VWS V14.01,2013-03-16 22:25:00,
2013-03-17 12:26:00,66.2,51.5,30.05,NE,54,4.0,4.0,59,0.00,,BKN050,0.00,VWS V14.01,2013-03-16 22:26:00,
2013-03-17 12:27:00,66.0,51.7,30.05,NE,55,2.0,5.0,60,0.00,,BKN050,0.00,VWS V14.01,2013-03-16 22:27:00,
2013-03-17 12:28:00,66.2,52.8,30.05,NE,49,3.0,6.0,62,0.00,,BKN050,0.00,VWS V14.01,2013-03-16 22:28:00,
2013-03-17 12:29:00,66.3,53.3,30.04,ENE,63,3.0,4.0,63,0.00,,BKN050,0.00,VWS V14.01,2013-03-16 22:29:00,
2013-03-17 12:30:00,66.9,53.9,30.04,ENE,62,0.0,1.0,63,0.00,,FEW200,0.00,VWS V14.01,2013-03-16 22:30:00,
2013-03-17 12:31:00,66.8,53.8,30.04,ENE,62,0.0,5.0,63,0.00,,BKN050,0.00,VWS V14.01,2013-03-16 22:31:00,
2013-03-17 12:32:00,67.0,53.6,30.04,ENE,69,2.0,5.0,62,0.00,,BKN050,0.00,VWS V14.01,2013-03-16 22:32:00,
2013-03-17 12:33:00,67.2,53.8,30.04,NE,38,3.0,6.0,62,0.00,,BKN050,0.00,VWS V14.01,2013-03-16 22:33:00,
2013-03-17 12:34:00,67.5,54.0,30.04,NE,38,0.0,3.0,62,0.00,,BKN050,0.00,VWS V14.01,2013-03-16 22:34:00,
2013-03-17 12:35:00,68.5,54.1,30.04,NE,43,4.0,5.0,60,0.00,,FEW200,0.00,VWS V14.01,2013-03-16 22:35:00,
2013-03-17 12:36:00,68.5,54.1,30.04,NNE,30,1.0,1.0,60,0.00,,BKN050,0.00,VWS V14.01,2013-03-16 22:36:00,
2013-03-17 12:37:00,68.5,53.6,30.04,NE,55,1.0,5.0,59,0.00,,BKN050,0.00,VWS V14.01,2013-03-16 22:37:00,
2013-03-17 12:38:00,68.3,53.4,30.04,NE,55,2.0,3.0,59,0.00,,BKN050,0.00,VWS V14.01,2013-03-16 22:38:00,
2013-03-17 12:39:00,68.3,53.9,30.04,North,355,4.0,5.0,60,0.00,,BKN050,0.00,VWS V14.01,2013-03-16 22:39:00,
2013-03-17 12:40:00,68.4,54.0,30.04,NNE,30,2.0,4.0,60,0.00,,FEW200,0.00,VWS V14.01,2013-03-16 22:40:00,
2013-03-17 12:41:00,68.4,54.0,30.04,NNE,22,4.0,4.0,60,0.00,,BKN050,0.00,VWS V14.01,2013-03-16 22:41:00,
2013-03-17 12:42:00,68.3,53.4,30.04,ENE,58,4.0,5.0,59,0.00,,BKN050,0.00,VWS V14.01,2013-03-16 22:42:00,
2013-03-17 12:43:00,68.2,53.3,30.04,NNE,13,2.0,5.0,59,0.00,,BKN050,0.00,VWS V14.01,2013-03-16 22:43:00,
2013-03-17 12:44:00,68.3,53.9,30.04,NE,39,4.0,5.0,60,0.00,,BKN050,0.00,VWS V14.01,2013-03-16 22:44:00,
2013-03-17 12:45:00,68.7,53.3,30.04,NE,53,2.0,3.0,58,0.00,,FEW200,0.00,VWS V14.01,2013-03-16 22:45:00,
2013-03-17 12:46:00,68.7,53.3,30.04,NE,53,3.0,4.0,58,0.00,,BKN050,0.00,VWS V14.01,2013-03-16 22:46:00,
2013-03-17 12:47:00,68.8,53.4,30.04,NW,326,4.0,8.0,58,0.00,,BKN050,0.00,VWS V14.01,2013-03-16 22:47:00,
2013-03-17 12:48:00,69.0,52.7,30.04,NNE,22,3.0,7.0,56,0.00,,BKN050,0.00,VWS V14.01,2013-03-16 22:48:00,
2013-03-17 12:49:00,69.2,53.3,30.04,NNW,344,4.0,4.0,57,0.00,,BKN050,0.00,VWS V14.01,2013-03-16 22:49:00,
2013-03-17 12:50:00,69.4,52.0,30.04,NNE,14,3.0,4.0,54,0.00,,FEW200,0.00,VWS V14.01,2013-03-16 22:50:00,
2013-03-17 12:51:00,69.4,52.5,30.04,NNE,32,4.0,8.0,55,0.00,,BKN050,0.00,VWS V14.01,2013-03-16 22:51:00,
2013-03-17 12:52:00,69.3,52.0,30.04,NNE,23,2.0,4.0,54,0.00,,BKN050,0.00,VWS V14.01,2013-03-16 22:52:00,
2013-03-17 12:53:00,69.2,51.9,30.04,NNE,32,3.0,4.0,54,0.00,,BKN050,0.00,VWS V14.01,2013-03-16 22:53:00,
2013-03-17 12:54:00,69.0,51.2,30.04,NE,48,3.0,5.0,53,0.00,,BKN050,0.00,VWS V14.01,2013-03-16 22:54:00,
2013-03-17 12:55:00,68.9,50.6,30.04,NNE,24,4.0,4.0,52,0.00,,FEW200,0.00,VWS V14.01,2013-03-16 22:55:00,
2013-03-17 12:56:00,68.9,50.6,30.04,North,9,3.0,7.0,52,0.00,,BKN050,0.00,VWS V14.01,2013-03-16 22:56:00,
2013-03-17 12:57:00,68.8,50.5,30.04,NNE,15,3.0,5.0,52,0.00,,BKN050,0.00,VWS V14.01,2013-03-16 22:57:00,
2013-03-17 12:59:00,68.8,51.0,30.04,NNE,21,3.0,3.0,53,0.00,,BKN050,0.00,VWS V14.01,2013-03-16 22:59:00,
2013-03-17 13:00:00,68.6,51.3,30.04,NE,40,3.0,3.0,54,0.00,,FEW200,0.00,VWS V14.01,2013-03-16 23:00:00,
2013-03-17 13:01:00,68.6,51.3,30.04,NE,40,2.0,3.0,54,0.00,,BKN050,0.00,VWS V14.01,2013-03-16 23:01:00,
2013-03-17 13:02:00,68.5,51.2,30.04,NW,321,6.0,6.0,54,0.00,,BKN050,0.00,VWS V14.01,2013-03-16 23:02:00,
2013-03-17 13:03:00,68.4,51.1,30.04,NNE,15,6.0,7.0,54,0.00,,BKN050,0.00,VWS V14.01,2013-03-16 23:03:00,
2013-03-17 13:04:00,68.3,51.0,30.04,NNE,22,3.0,6.0,54,0.00,,BKN050,0.00,VWS V14.01,2013-03-16 23:04:00,
2013-03-17 13:05:00,68.1,50.8,30.04,NE,42,3.0,4.0,54,0.00,,FEW200,0.00,VWS V14.01,2013-03-16 23:05:00,
2013-03-17 13:08:00,67.7,51.0,30.04,North,5,3.0,8.0,55,0.00,,BKN050,0.00,VWS V14.01,2013-03-16 23:08:00,
2013-03-17 13:09:00,67.5,50.8,30.04,ENE,59,3.0,4.0,55,0.00,,BKN050,0.00,VWS V14.01,2013-03-16 23:09:00,
2013-03-17 13:10:00,67.0,51.3,30.04,ENE,59,1.0,1.0,57,0.00,,FEW200,0.00,VWS V14.01,2013-03-16 23:10:00,
2013-03-17 13:11:00,67.0,51.3,30.04,ENE,59,1.0,3.0,57,0.00,,BKN050,0.00,VWS V14.01,2013-03-16 23:11:00,
2013-03-17 13:12:00,67.1,50.9,30.04,ENE,57,2.0,3.0,56,0.00,,BKN050,0.00,VWS V14.01,2013-03-16 23:12:00,
2013-03-17 13:13:00,67.3,51.1,30.04,NNW,329,1.0,5.0,56,0.00,,BKN050,0.00,VWS V14.01,2013-03-16 23:13:00,
2013-03-17 13:14:00,67.5,51.3,30.04,NW,308,5.0,5.0,56,0.00,,BKN050,0.00,VWS V14.01,2013-03-16 23:14:00,
2013-03-17 13:15:00,68.1,51.3,30.04,NNE,22,3.0,4.0,55,0.00,,FEW200,0.00,VWS V14.01,2013-03-16 23:15:00,
2013-03-17 13:16:00,68.1,51.3,30.04,NNE,19,4.0,4.0,55,0.00,,BKN050,0.00,VWS V14.01,2013-03-16 23:16:00,
2013-03-17 13:17:00,68.2,50.9,30.04,North,9,5.0,8.0,54,0.00,,BKN050,0.00,VWS V14.01,2013-03-16 23:17:00,
2013-03-17 13:18:00,68.2,50.4,30.04,NNE,25,3.0,5.0,53,0.00,,BKN050,0.00,VWS V14.01,2013-03-16 23:18:00,
2013-03-17 13:19:00,68.3,51.0,30.04,NW,318,3.0,3.0,54,0.00,,BKN050,0.00,VWS V14.01,2013-03-16 23:19:00,
2013-03-17 13:20:00,68.4,50.6,30.04,NNW,343,4.0,4.0,53,0.00,,FEW200,0.00,VWS V14.01,2013-03-16 23:20:00,
2013-03-17 13:21:00,68.4,50.6,30.05,NNE,20,3.0,8.0,53,0.00,,BKN050,0.00,VWS V14.01,2013-03-16 23:21:00,
2013-03-17 13:22:00,68.4,50.6,30.04,NNE,15,1.0,5.0,53,0.00,,BKN050,0.00,VWS V14.01,2013-03-16 23:22:00,
2013-03-17 13:23:00,68.6,51.3,30.04,NNE,15,2.0,3.0,54,0.00,,BKN050,0.00,VWS V14.01,2013-03-16 23:23:00,
2013-03-17 13:24:00,68.8,51.0,30.04,NE,42,8.0,10.0,53,0.00,,BKN050,0.00,VWS V14.01,2013-03-16 23:24:00,
2013-03-17 13:25:00,68.8,50.0,30.04,NE,50,2.0,3.0,51,0.00,,FEW200,0.00,VWS V14.01,2013-03-16 23:25:00,
2013-03-17 13:26:00,68.8,50.0,30.04,NE,51,3.0,6.0,51,0.00,,BKN050,0.00,VWS V14.01,2013-03-16 23:26:00,
2013-03-17 13:27:00,68.8,49.4,30.04,NNE,14,3.0,5.0,50,0.00,,BKN050,0.00,VWS V14.01,2013-03-16 23:27:00,
2013-03-17 13:28:00,68.7,49.3,30.04,NNW,333,5.0,5.0,50,0.00,,BKN050,0.00,VWS V14.01,2013-03-16 23:28:00,
2013-03-17 13:30:00,68.9,47.9,30.04,NNE,28,6.0,7.0,47,0.00,,FEW200,0.00,VWS V14.01,2013-03-16 23:30:00,
2013-03-17 13:31:00,68.9,49.0,30.04,North,5,4.0,9.0,49,0.00,,BKN050,0.00,VWS V14.01,2013-03-16 23:31:00,
2013-03-17 13:32:00,68.8,47.8,30.04,NNE,32,4.0,7.0,47,0.00,,BKN050,0.00,VWS V14.01,2013-03-16 23:32:00,
2013-03-17 13:33:00,68.9,46.1,30.04,NNE,32,2.0,4.0,44,0.00,,BKN050,0.00,VWS V14.01,2013-03-16 23:33:00,
2013-03-17 13:34:00,68.9,46.1,30.04,NE,39,5.0,5.0,44,0.00,,BKN050,0.00,VWS V14.01,2013-03-16 23:34:00,
2013-03-17 13:35:00,69.5,45.4,30.04,WNW,298,5.0,5.0,42,0.00,,FEW200,0.00,VWS V14.01,2013-03-16 23:35:00,
2013-03-17 13:36:00,69.4,45.3,30.04,NNE,15,2.0,3.0,42,0.00,,BKN050,0.00,VWS V14.01,2013-03-16 23:36:00,
2013-03-17 13:37:00,69.6,46.1,30.04,North,5,1.0,5.0,43,0.00,,BKN050,0.00,VWS V14.01,2013-03-16 23:37:00,
2013-03-17 13:38:00,69.9,46.4,30.04,North,360,0.0,3.0,43,0.00,,BKN050,0.00,VWS V14.01,2013-03-16 23:38:00,
2013-03-17 13:39:00,70.1,46.0,30.04,NNW,331,1.0,2.0,42,0.00,,BKN050,0.00,VWS V14.01,2013-03-16 23:39:00,
2013-03-17 13:40:00,70.3,45.5,30.04,North,9,1.0,1.0,41,0.00,,FEW200,0.00,VWS V14.01,2013-03-16 23:40:00,
2013-03-17 13:41:00,70.3,45.5,30.04,North,9,0.0,1.0,41,0.00,,BKN050,0.00,VWS V14.01,2013-03-16 23:41:00,
2013-03-17 13:42:00,70.4,45.6,30.04,NNW,334,7.0,7.0,41,0.00,,BKN050,0.00,VWS V14.01,2013-03-16 23:42:00,
2013-03-17 13:43:00,70.3,44.9,30.04,NNE,24,2.0,8.0,40,0.00,,BKN050,0.00,VWS V14.01,2013-03-16 23:43:00,
2013-03-17 13:44:00,70.2,44.8,30.05,NNE,32,3.0,6.0,40,0.00,,BKN050,0.00,VWS V14.01,2013-03-16 23:44:00,
2013-03-17 13:45:00,69.9,44.5,30.05,North,360,3.0,3.0,40,0.00,,FEW200,0.00,VWS V14.01,2013-03-16 23:45:00,
2013-03-17 13:46:00,69.9,44.5,30.05,NNE,15,3.0,10.0,40,0.00,,BKN050,0.00,VWS V14.01,2013-03-16 23:46:00,
2013-03-17 13:47:00,69.8,44.4,30.05,North,351,3.0,9.0,40,0.00,,BKN050,0.00,VWS V14.01,2013-03-16 23:47:00,
2013-03-17 13:50:00,69.4,43.4,30.05,NE,44,6.0,8.0,39,0.00,,FEW200,0.00,VWS V14.01,2013-03-16 23:50:00,
2013-03-17 13:51:00,69.4,43.4,30.05,North,355,3.0,8.0,39,0.00,,BKN050,0.00,VWS V14.01,2013-03-16 23:51:00,
2013-03-17 13:52:00,69.4,43.4,30.05,NW,313,4.0,10.0,39,0.00,,BKN050,0.00,VWS V14.01,2013-03-16 23:52:00,
2013-03-17 13:54:00,69.4,42.7,30.04,NNE,19,3.0,4.0,38,0.00,,BKN050,0.00,VWS V14.01,2013-03-16 23:54:00,
2013-03-17 13:55:00,69.5,42.1,30.04,NNE,17,3.0,5.0,37,0.00,,FEW200,0.00,VWS V14.01,2013-03-16 23:55:00,
2013-03-17 13:57:00,69.5,41.4,30.04,NNW,338,6.0,9.0,36,0.00,,BKN050,0.00,VWS V14.01,2013-03-16 23:57:00,
2013-03-17 13:58:00,69.4,41.3,30.04,NNW,338,2.0,7.0,36,0.00,,BKN050,0.00,VWS V14.01,2013-03-16 23:58:00,
2013-03-17 14:00:00,69.6,42.2,30.04,NNW,343,9.0,9.0,37,0.00,,FEW200,0.00,VWS V14.01,2013-03-17 00:00:00,
2013-03-17 14:01:00,69.6,42.2,30.04,NNW,343,6.0,6.0,37,0.00,,BKN050,0.00,VWS V14.01,2013-03-17 00:01:00,
2013-03-17 14:02:00,69.7,42.3,30.04,NNW,343,4.0,10.0,37,0.00,,BKN050,0.00,VWS V14.01,2013-03-17 00:02:00,
2013-03-17 14:03:00,69.8,41.7,30.05,NNW,341,5.0,6.0,36,0.00,,BKN050,0.00,VWS V14.01,2013-03-17 00:03:00,
2013-03-17 14:04:00,69.8,44.4,30.05,North,9,2.0,6.0,40,0.00,,BKN050,0.00,VWS V14.01,2013-03-17 00:04:00,
2013-03-17 14:05:00,68.7,49.3,30.05,NNW,347,4.0,5.0,50,0.00,,FEW200,0.00,VWS V14.01,2013-03-17 00:05:00,
2013-03-17 14:06:00,68.8,49.4,30.05,NNW,347,3.0,5.0,50,0.00,,BKN050,0.00,VWS V14.01,2013-03-17 00:06:00,
2013-03-17 14:07:00,68.2,48.9,30.05,North,355,3.0,5.0,50,0.00,,BKN050,0.00,VWS V14.01,2013-03-17 00:07:00,
2013-03-17 14:08:00,67.9,49.7,30.05,North,350,3.0,6.0,52,0.00,,BKN050,0.00,VWS V14.01,2013-03-17 00:08:00,
2013-03-17 14:09:00,67.6,49.4,30.05,North,355,3.0,3.0,52,0.00,,BKN050,0.00,VWS V14.01,2013-03-17 00:09:00,
2013-03-17 14:10:00,67.5,46.6,30.05,NW,315,2.0,2.0,47,0.00,,FEW200,0.00,VWS V14.01,2013-03-17 00:10:00,
2013-03-17 14:11:00,67.4,46.5,30.05,NW,315,2.0,4.0,47,0.00,,BKN050,0.00,VWS V14.01,2013-03-17 00:11:00,
2013-03-17 14:12:00,67.6,49.9,30.05,NW,316,0.0,2.0,53,0.00,,BKN050,0.00,VWS V14.01,2013-03-17 00:12:00,
2013-03-17 14:14:00,68.0,44.7,30.05,North,9,2.0,2.0,43,0.00,,BKN050,0.00,VWS V14.01,2013-03-17 00:14:00,
2013-03-17 14:15:00,68.5,46.3,30.04,North,9,2.0,2.0,45,0.00,,FEW200,0.00,VWS V14.01,2013-03-17 00:15:00,
2013-03-17 14:16:00,68.5,46.3,30.05,North,9,1.0,2.0,45,0.00,,BKN050,0.00,VWS V14.01,2013-03-17 00:16:00,
2013-03-17 14:17:00,68.6,44.6,30.04,NNW,342,1.0,3.0,42,0.00,,BKN050,0.00,VWS V14.01,2013-03-17 00:17:00,
2013-03-17 14:18:00,68.7,45.9,30.05,NNW,342,3.0,3.0,44,0.00,,BKN050,0.00,VWS V14.01,2013-03-17 00:18:00,
2013-03-17 14:19:00,68.6,47.6,30.04,NNE,24,3.0,4.0,47,0.00,,BKN050,0.00,VWS V14.01,2013-03-17 00:19:00,
2013-03-17 14:20:00,68.4,45.7,30.04,NE,55,3.0,4.0,44,0.00,,FEW200,0.00,VWS V14.01,2013-03-17 00:20:00,
2013-03-17 14:21:00,68.4,45.7,30.04,NNW,339,2.0,2.0,44,0.00,,BKN050,0.00,VWS V14.01,2013-03-17 00:21:00,
2013-03-17 14:22:00,68.3,45.0,30.04,NNE,14,4.0,5.0,43,0.00,,BKN050,0.00,VWS V14.01,2013-03-17 00:22:00,
2013-03-17 14:23:00,68.2,44.9,30.04,NNE,17,2.0,7.0,43,0.00,,BKN050,0.00,VWS V14.01,2013-03-17 00:23:00,
2013-03-17 14:25:00,67.7,46.8,30.04,North,355,1.0,3.0,47,0.00,,FEW200,0.00,VWS V14.01,2013-03-17 00:25:00,
2013-03-17 14:26:00,67.7,46.8,30.05,North,355,3.0,5.0,47,0.00,,BKN050,0.00,VWS V14.01,2013-03-17 00:26:00,
2013-03-17 14:27:00,67.5,47.7,30.04,North,355,2.0,3.0,49,0.00,,BKN050,0.00,VWS V14.01,2013-03-17 00:27:00,
2013-03-17 14:28:00,67.0,48.3,30.04,NE,40,1.0,4.0,51,0.00,,BKN050,0.00,VWS V14.01,2013-03-17 00:28:00,
2013-03-17 14:29:00,66.6,49.0,30.04,North,5,3.0,4.0,53,0.00,,BKN050,0.00,VWS V14.01,2013-03-17 00:29:00,
2013-03-17 14:30:00,65.8,49.2,30.04,NNE,24,1.0,2.0,55,0.00,,FEW200,0.00,VWS V14.01,2013-03-17 00:30:00,
2013-03-17 14:31:00,65.9,48.8,30.04,NNE,24,2.0,3.0,54,0.00,,BKN050,0.00,VWS V14.01,2013-03-17 00:31:00,
2013-03-17 14:32:00,65.6,49.0,30.04,NE,53,2.0,4.0,55,0.00,,BKN050,0.00,VWS V14.01,2013-03-17 00:32:00,
2013-03-17 14:33:00,65.4,48.8,30.04,NE,53,0.0,2.0,55,0.00,,BKN050,0.00,VWS V14.01,2013-03-17 00:33:00,
2013-03-17 14:34:00,65.3,49.2,30.04,NE,53,1.0,2.0,56,0.00,,BKN050,0.00,VWS V14.01,2013-03-17 00:34:00,
2013-03-17 14:35:00,65.0,48.9,30.04,NE,54,3.0,3.0,56,0.00,,FEW200,0.00,VWS V14.01,2013-03-17 00:35:00,
2013-03-17 14:36:00,65.0,48.9,30.04,NE,54,2.0,5.0,56,0.00,,BKN050,0.00,VWS V14.01,2013-03-17 00:36:00,
2013-03-17 14:37:00,64.9,48.8,30.04,NE,54,1.0,3.0,56,0.00,,BKN050,0.00,VWS V14.01,2013-03-17 00:37:00,
2013-03-17 14:38:00,64.8,48.8,30.04,NE,44,3.0,3.0,56,0.00,,BKN050,0.00,VWS V14.01,2013-03-17 00:38:00,
2013-03-17 14:40:00,64.6,48.1,30.04,NE,53,4.0,5.0,55,0.00,,FEW200,0.00,VWS V14.01,2013-03-17 00:40:00,
2013-03-17 14:41:00,64.6,48.1,30.04,NE,46,5.0,7.0,55,0.00,,BKN050,0.00,VWS V14.01,2013-03-17 00:41:00,
2013-03-17 14:43:00,64.6,47.1,30.04,ENE,58,3.0,3.0,53,0.00,,BKN050,0.00,VWS V14.01,2013-03-17 00:43:00,
2013-03-17 14:44:00,64.6,47.6,30.04,ENE,58,3.0,3.0,54,0.00,,BKN050,0.00,VWS V14.01,2013-03-17 00:44:00,
2013-03-17 14:45:00,64.7,47.2,30.04,ENE,58,0.0,1.0,53,0.00,,FEW200,0.00,VWS V14.01,2013-03-17 00:45:00,
2013-03-17 14:48:00,64.8,47.3,30.04,ENE,58,0.0,2.0,53,0.00,,BKN050,0.00,VWS V14.01,2013-03-17 00:48:00,
2013-03-17 14:50:00,65.5,47.9,30.05,NNW,341,1.0,1.0,53,0.00,,FEW200,0.00,VWS V14.01,2013-03-17 00:50:00,
2013-03-17 14:52:00,65.6,47.5,30.05,NNW,341,2.0,2.0,52,0.00,,BKN050,0.00,VWS V14.01,2013-03-17 00:52:00,
2013-03-17 14:54:00,65.4,47.8,30.05,NNE,28,2.0,2.0,53,0.00,,BKN050,0.00,VWS V14.01,2013-03-17 00:54:00,
2013-03-17 14:55:00,65.2,49.1,30.04,NNW,343,1.0,1.0,56,0.00,,FEW200,0.00,VWS V14.01,2013-03-17 00:55:00,
2013-03-17 14:56:00,65.2,49.1,30.05,NNW,343,1.0,2.0,56,0.00,,BKN050,0.00,VWS V14.01,2013-03-17 00:56:00,
2013-03-17 14:57:00,65.0,49.4,30.04,North,5,2.0,2.0,57,0.00,,BKN050,0.00,VWS V14.01,2013-03-17 00:57:00,
2013-03-17 14:58:00,64.5,49.4,30.04,NNE,24,2.0,3.0,58,0.00,,BKN050,0.00,VWS V14.01,2013-03-17 00:58:00,
2013-03-17 14:59:00,64.4,49.8,30.04,NNE,24,1.0,2.0,59,0.00,,BKN050,0.00,VWS V14.01,2013-03-17 00:59:00,
2013-03-17 15:00:00,64.5,45.5,30.04,NNW,336,1.0,1.0,50,0.00,,FEW200,0.00,VWS V14.01,2013-03-17 01:00:00,
2013-03-17 15:01:00,64.5,49.9,30.04,NNW,336,1.0,6.0,59,0.00,,BKN050,0.00,VWS V14.01,2013-03-17 01:01:00,
2013-03-17 15:02:00,65.0,43.7,30.04,North,355,4.0,8.0,46,0.00,,BKN050,0.00,VWS V14.01,2013-03-17 01:02:00,
2013-03-17 15:03:00,65.5,42.4,30.04,North,351,1.0,4.0,43,0.00,,BKN050,0.00,VWS V14.01,2013-03-17 01:03:00,
2013-03-17 15:04:00,66.0,41.7,30.04,WNW,291,4.0,9.0,41,0.00,,BKN050,0.00,VWS V14.01,2013-03-17 01:04:00,
2013-03-17 15:05:00,66.8,40.4,30.04,West,273,5.0,7.0,38,0.00,,SCT200,0.00,VWS V14.01,2013-03-17 01:05:00,
2013-03-17 15:06:00,66.8,41.1,30.04,West,261,7.0,7.0,39,0.00,,BKN050,0.00,VWS V14.01,2013-03-17 01:06:00,
2013-03-17 15:07:00,67.0,39.9,30.04,West,265,7.0,7.0,37,0.00,,BKN050,0.00,VWS V14.01,2013-03-17 01:07:00,
2013-03-17 15:08:00,67.1,39.3,30.04,West,267,5.0,8.0,36,0.00,,BKN050,0.00,VWS V14.01,2013-03-17 01:08:00,
2013-03-17 15:09:00,67.1,40.0,30.04,WSW,243,1.0,5.0,37,0.00,,BKN050,0.00,VWS V14.01,2013-03-17 01:09:00,
2013-03-17 15:10:00,67.4,40.2,30.04,NNW,329,4.0,5.0,37,0.00,,SCT200,0.00,VWS V14.01,2013-03-17 01:10:00,
2013-03-17 15:11:00,67.3,40.2,30.04,NW,319,4.0,6.0,37,0.00,,BKN050,0.00,VWS V14.01,2013-03-17 01:11:00,
2013-03-17 15:12:00,67.4,40.2,30.04,NW,323,7.0,7.0,37,0.00,,BKN050,0.00,VWS V14.01,2013-03-17 01:12:00,
2013-03-17 15:13:00,67.4,39.5,30.04,NW,312,2.0,7.0,36,0.00,,BKN050,0.00,VWS V14.01,2013-03-17 01:13:00,
2013-03-17 15:14:00,67.4,40.2,30.04,WNW,294,3.0,5.0,37,0.00,,BKN050,0.00,VWS V14.01,2013-03-17 01:14:00,
2013-03-17 15:15:00,67.4,40.2,30.04,NNW,331,4.0,4.0,37,0.00,,SCT200,0.00,VWS V14.01,2013-03-17 01:15:00,
2013-03-17 15:16:00,67.4,40.2,30.04,NW,311,4.0,8.0,37,0.00,,BKN050,0.00,VWS V14.01,2013-03-17 01:16:00,
2013-03-17 15:17:00,67.3,40.2,30.04,NNW,333,3.0,7.0,37,0.00,,BKN050,0.00,VWS V14.01,2013-03-17 01:17:00,
2013-03-17 15:18:00,67.2,40.1,30.04,NNW,338,4.0,7.0,37,0.00,,BKN050,0.00,VWS V14.01,2013-03-17 01:18:00,
2013-03-17 15:19:00,67.1,40.0,30.04,WNW,293,4.0,5.0,37,0.00,,BKN050,0.00,VWS V14.01,2013-03-17 01:19:00,
2013-03-17 15:20:00,67.0,39.9,30.04,West,266,5.0,6.0,37,0.00,,SCT200,0.00,VWS V14.01,2013-03-17 01:20:00,
2013-03-17 15:21:00,67.0,39.9,30.04,West,280,6.0,9.0,37,0.00,,BKN050,0.00,VWS V14.01,2013-03-17 01:21:00,
2013-03-17 15:22:00,66.9,39.8,30.04,WSW,242,4.0,7.0,37,0.00,,BKN050,0.00,VWS V14.01,2013-03-17 01:22:00,
2013-03-17 15:23:00,66.8,40.4,30.04,WNW,296,3.0,4.0,38,0.00,,BKN050,0.00,VWS V14.01,2013-03-17 01:23:00,
2013-03-17 15:25:00,67.0,40.6,30.04,WNW,300,2.0,3.0,38,0.00,,SCT200,0.00,VWS V14.01,2013-03-17 01:25:00,
2013-03-17 15:27:00,67.0,40.6,30.04,NNW,338,3.0,6.0,38,0.00,,BKN050,0.00,VWS V14.01,2013-03-17 01:27:00,
2013-03-17 15:28:00,67.0,40.6,30.04,WNW,303,2.0,4.0,38,0.00,,BKN050,0.00,VWS V14.01,2013-03-17 01:28:00,
2013-03-17 15:29:00,66.9,40.5,30.04,NNW,331,4.0,4.0,38,0.00,,BKN050,0.00,VWS V14.01,2013-03-17 01:29:00,
2013-03-17 15:30:00,66.8,40.4,30.04,NNW,328,3.0,3.0,38,0.00,,SCT200,0.00,VWS V14.01,2013-03-17 01:30:00,
2013-03-17 15:31:00,66.8,40.4,30.04,NNW,328,3.0,4.0,38,0.00,,BKN050,0.00,VWS V14.01,2013-03-17 01:31:00,
2013-03-17 15:32:00,66.7,40.3,30.04,NNW,338,3.0,4.0,38,0.00,,BKN050,0.00,VWS V14.01,2013-03-17 01:32:00,
2013-03-17 15:34:00,66.5,40.8,30.04,NW,315,4.0,5.0,39,0.00,,SCT200,0.00,VWS V14.01,2013-03-17 01:34:00,
2013-03-17 15:35:00,66.5,40.8,30.04,NW,321,4.0,7.0,39,0.00,,BKN050,0.00,VWS V14.01,2013-03-17 01:35:00,
2013-03-17 15:37:00,66.4,40.7,30.04,NW,316,1.0,5.0,39,0.00,,BKN050,0.00,VWS V14.01,2013-03-17 01:37:00,
2013-03-17 15:38:00,66.2,40.5,30.04,NW,319,4.0,6.0,39,0.00,,BKN050,0.00,VWS V14.01,2013-03-17 01:38:00,
2013-03-17 15:39:00,66.1,40.5,30.04,NW,324,2.0,4.0,39,0.00,,BKN050,0.00,VWS V14.01,2013-03-17 01:39:00,
2013-03-17 15:40:00,65.9,40.9,30.04,NW,313,8.0,8.0,40,0.00,,SCT200,0.00,VWS V14.01,2013-03-17 01:40:00,
2013-03-17 15:41:00,65.9,40.9,30.04,NW,306,7.0,10.0,40,0.00,,BKN050,0.00,VWS V14.01,2013-03-17 01:41:00,
2013-03-17 15:42:00,65.8,40.8,30.04,NNE,14,3.0,8.0,40,0.00,,BKN050,0.00,VWS V14.01,2013-03-17 01:42:00,
2013-03-17 15:43:00,65.6,40.7,30.04,North,349,7.0,9.0,40,0.00,,BKN050,0.00,VWS V14.01,2013-03-17 01:43:00,
2013-03-17 15:45:00,65.3,41.0,30.04,NNW,328,2.0,2.0,41,0.00,,SCT200,0.00,VWS V14.01,2013-03-17 01:45:00,
2013-03-17 15:48:00,65.1,40.8,30.04,NNW,331,0.0,1.0,41,0.00,,BKN050,0.00,VWS V14.01,2013-03-17 01:48:00,
2013-03-17 15:50:00,64.9,41.3,30.04,NNW,330,1.0,1.0,42,0.00,,SCT200,0.00,VWS V14.01,2013-03-17 01:50:00,
2013-03-17 15:51:00,64.9,41.3,30.04,NNW,330,0.0,3.0,42,0.00,,BKN050,0.00,VWS V14.01,2013-03-17 01:51:00,
2013-03-17 15:52:00,64.8,41.2,30.04,NNW,341,2.0,4.0,42,0.00,,BKN050,0.00,VWS V14.01,2013-03-17 01:52:00,
2013-03-17 15:53:00,64.6,41.0,30.04,NW,325,3.0,6.0,42,0.00,,BKN050,0.00,VWS V14.01,2013-03-17 01:53:00,
2013-03-17 15:54:00,64.6,41.0,30.04,NNW,344,2.0,4.0,42,0.00,,BKN050,0.00,VWS V14.01,2013-03-17 01:54:00,
2013-03-17 15:55:00,64.3,41.3,30.05,NNW,344,1.0,1.0,43,0.00,,SCT200,0.00,VWS V14.01,2013-03-17 01:55:00,
2013-03-17 15:56:00,64.3,41.3,30.05,NNW,344,1.0,1.0,43,0.00,,BKN050,0.00,VWS V14.01,2013-03-17 01:56:00,
2013-03-17 15:57:00,64.2,41.3,30.05,NNW,344,0.0,2.0,43,0.00,,BKN050,0.00,VWS V14.01,2013-03-17 01:57:00,
2013-03-17 15:58:00,64.2,41.3,30.05,NNW,344,0.0,0.0,43,0.00,,BKN050,0.00,VWS V14.01,2013-03-17 01:58:00,
2013-03-17 15:59:00,64.1,41.8,30.05,NNW,342,4.0,5.0,44,0.00,,BKN050,0.00,VWS V14.01,2013-03-17 01:59:00,
2013-03-17 16:00:00,64.0,41.7,30.05,NNW,348,4.0,8.0,44,0.00,,SCT200,0.00,VWS V14.01,2013-03-17 02:00:00,
2013-03-17 16:01:00,64.0,41.7,30.05,NNW,346,8.0,8.0,44,0.00,,BKN050,0.00,VWS V14.01,2013-03-17 02:01:00,
2013-03-17 16:02:00,63.9,41.6,30.05,North,5,1.0,9.0,44,0.00,,BKN050,0.00,VWS V14.01,2013-03-17 02:02:00,
2013-03-17 16:03:00,63.9,41.6,30.05,WNW,296,2.0,5.0,44,0.00,,BKN050,0.00,VWS V14.01,2013-03-17 02:03:00,
2013-03-17 16:04:00,63.8,41.5,30.05,NW,310,4.0,6.0,44,0.00,,BKN050,0.00,VWS V14.01,2013-03-17 02:04:00,
2013-03-17 16:05:00,63.7,41.4,30.05,NNW,331,1.0,1.0,44,0.00,,SCT150,0.00,VWS V14.01,2013-03-17 02:05:00,
2013-03-17 16:06:00,63.7,41.4,30.05,NNW,331,1.0,3.0,44,0.00,,BKN050,0.00,VWS V14.01,2013-03-17 02:06:00,
2013-03-17 16:07:00,63.6,41.3,30.05,NNW,331,2.0,2.0,44,0.00,,BKN050,0.00,VWS V14.01,2013-03-17 02:07:00,
2013-03-17 16:08:00,63.6,41.9,30.05,WSW,255,2.0,7.0,45,0.00,,BKN050,0.00,VWS V14.01,2013-03-17 02:08:00,
2013-03-17 16:09:00,63.5,41.8,30.05,NW,317,0.0,3.0,45,0.00,,BKN050,0.00,VWS V14.01,2013-03-17 02:09:00,
2013-03-17 16:10:00,63.3,41.6,30.05,West,278,1.0,2.0,45,0.00,,SCT150,0.00,VWS V14.01,2013-03-17 02:10:00,
2013-03-17 16:11:00,63.3,41.6,30.05,West,278,2.0,4.0,45,0.00,,BKN050,0.00,VWS V14.01,2013-03-17 02:11:00,
2013-03-17 16:12:00,63.3,41.6,30.05,West,270,3.0,3.0,45,0.00,,BKN050,0.00,VWS V14.01,2013-03-17 02:12:00,
2013-03-17 16:13:00,63.2,42.1,30.05,WNW,290,2.0,3.0,46,0.00,,BKN050,0.00,VWS V14.01,2013-03-17 02:13:00,
2013-03-17 16:14:00,62.9,41.8,30.05,West,274,2.0,2.0,46,0.00,,SCT150,0.00,VWS V14.01,2013-03-17 02:14:00,
2013-03-17 16:15:00,63.0,41.9,30.05,WNW,286,4.0,4.0,46,0.00,,BKN050,0.00,VWS V14.01,2013-03-17 02:15:00,
2013-03-17 16:17:00,62.8,42.3,30.05,NNW,331,3.0,4.0,47,0.00,,BKN050,0.00,VWS V14.01,2013-03-17 02:17:00,
2013-03-17 16:18:00,62.8,42.3,30.05,WNW,284,1.0,5.0,47,0.00,,BKN050,0.00,VWS V14.01,2013-03-17 02:18:00,
2013-03-17 16:19:00,62.5,42.0,30.05,WNW,285,6.0,6.0,47,0.00,,SCT150,0.00,VWS V14.01,2013-03-17 02:19:00,
2013-03-17 16:20:00,62.6,42.1,30.05,NW,322,5.0,9.0,47,0.00,,BKN050,0.00,VWS V14.01,2013-03-17 02:20:00,
2013-03-17 16:21:00,62.5,42.0,30.05,NW,315,6.0,8.0,47,0.00,,BKN050,0.00,VWS V14.01,2013-03-17 02:21:00,
2013-03-17 16:22:00,62.4,41.9,30.05,NNW,330,6.0,9.0,47,0.00,,BKN050,0.00,VWS V14.01,2013-03-17 02:22:00,
2013-03-17 16:23:00,62.3,42.4,30.05,NW,324,5.0,7.0,48,0.00,,BKN050,0.00,VWS V14.01,2013-03-17 02:23:00,
2013-03-17 16:24:00,62.2,42.3,30.05,NW,323,5.0,9.0,48,0.00,,BKN050,0.00,VWS V14.01,2013-03-17 02:24:00,
2013-03-17 16:25:00,62.0,42.6,30.05,NNW,327,5.0,5.0,49,0.00,,SCT150,0.00,VWS V14.01,2013-03-17 02:25:00,
2013-03-17 16:26:00,62.0,42.6,30.05,WNW,286,4.0,5.0,49,0.00,,BKN050,0.00,VWS V14.01,2013-03-17 02:26:00,
2013-03-17 16:27:00,62.0,42.6,30.05,NNW,333,2.0,5.0,49,0.00,,BKN050,0.00,VWS V14.01,2013-03-17 02:27:00,
2013-03-17 16:28:00,61.8,42.5,30.05,NNW,333,0.0,2.0,49,0.00,,BKN050,0.00,VWS V14.01,2013-03-17 02:28:00,
2013-03-17 16:29:00,61.8,42.5,30.05,WNW,299,4.0,8.0,49,0.00,,BKN050,0.00,VWS V14.01,2013-03-17 02:29:00,
2013-03-17 16:30:00,61.6,42.3,30.05,NNW,340,0.0,0.0,49,0.00,,SCT150,0.00,VWS V14.01,2013-03-17 02:30:00,
2013-03-17 16:31:00,61.6,42.3,30.05,NNW,340,0.0,6.0,49,0.00,,BKN050,0.00,VWS V14.01,2013-03-17 02:31:00,
2013-03-17 16:32:00,61.5,42.7,30.05,NNW,342,2.0,7.0,50,0.00,,BKN050,0.00,VWS V14.01,2013-03-17 02:32:00,
2013-03-17 16:33:00,61.5,42.7,30.05,North,355,3.0,4.0,50,0.00,,BKN050,0.00,VWS V14.01,2013-03-17 02:33:00,
2013-03-17 16:34:00,61.4,42.6,30.05,NNW,342,2.0,4.0,50,0.00,,BKN050,0.00,VWS V14.01,2013-03-17 02:34:00,
2013-03-17 16:35:00,61.2,42.4,30.05,NNW,346,4.0,4.0,50,0.00,,SCT150,0.00,VWS V14.01,2013-03-17 02:35:00,
2013-03-17 16:36:00,61.2,42.4,30.05,NW,317,3.0,5.0,50,0.00,,BKN050,0.00,VWS V14.01,2013-03-17 02:36:00,
2013-03-17 16:37:00,61.2,42.4,30.05,NNW,344,6.0,7.0,50,0.00,,BKN050,0.00,VWS V14.01,2013-03-17 02:37:00,
2013-03-17 16:39:00,61.1,42.8,30.05,NW,319,3.0,4.0,51,0.00,,BKN050,0.00,VWS V14.01,2013-03-17 02:39:00,
2013-03-17 16:40:00,60.9,42.7,30.05,NW,323,0.0,1.0,51,0.00,,SCT150,0.00,VWS V14.01,2013-03-17 02:40:00,
2013-03-17 16:41:00,60.9,42.7,30.05,NW,323,1.0,2.0,51,0.00,,BKN050,0.00,VWS V14.01,2013-03-17 02:41:00,
2013-03-17 16:45:00,60.6,42.4,30.05,NNW,340,5.0,8.0,51,0.00,,SCT150,0.00,VWS V14.01,2013-03-17 02:45:00,
2013-03-17 16:46:00,60.6,42.4,30.05,NW,308,7.0,7.0,51,0.00,,BKN050,0.00,VWS V14.01,2013-03-17 02:46:00,
2013-03-17 16:47:00,60.5,42.3,30.05,NNW,333,3.0,8.0,51,0.00,,BKN050,0.00,VWS V14.01,2013-03-17 02:47:00,
2013-03-17 16:48:00,60.5,42.8,30.05,NNW,330,2.0,4.0,52,0.00,,BKN050,0.00,VWS V14.01,2013-03-17 02:48:00,
2013-03-17 16:49:00,60.5,42.8,30.05,WNW,302,1.0,3.0,52,0.00,,BKN050,0.00,VWS V14.01,2013-03-17 02:49:00,
2013-03-17 16:50:00,60.3,42.6,30.06,NNW,342,3.0,3.0,52,0.00,,SCT150,0.00,VWS V14.01,2013-03-17 02:50:00,
2013-03-17 16:52:00,60.3,42.6,30.06,NNW,342,1.0,3.0,52,0.00,,BKN050,0.00,VWS V14.01,2013-03-17 02:52:00,
2013-03-17 16:53:00,60.2,42.5,30.06,NNW,346,4.0,4.0,52,0.00,,BKN050,0.00,VWS V14.01,2013-03-17 02:53:00,
2013-03-17 16:54:00,60.0,42.8,30.06,NNW,346,0.0,0.0,53,0.00,,SCT150,0.00,VWS V14.01,2013-03-17 02:54:00,
2013-03-17 16:58:00,59.8,42.7,30.06,NNW,348,4.0,4.0,53,0.00,,BKN050,0.00,VWS V14.01,2013-03-17 02:58:00,
2013-03-17 16:59:00,59.6,43.0,30.06,North,355,1.0,1.0,54,0.00,,SCT150,0.00,VWS V14.01,2013-03-17 02:59:00,
2013-03-17 17:02:00,59.6,42.5,30.06,North,355,3.0,5.0,53,0.00,,BKN050,0.00,VWS V14.01,2013-03-17 03:02:00,
2013-03-17 17:03:00,59.5,42.4,30.05,North,355,1.0,4.0,53,0.00,,BKN050,0.00,VWS V14.01,2013-03-17 03:03:00,
2013-03-17 17:04:00,59.4,42.8,30.05,North,355,0.0,1.0,54,0.00,,SCT150,0.00,VWS V14.01,2013-03-17 03:04:00,
2013-03-17 17:09:00,59.2,42.6,30.05,North,355,1.0,1.0,54,0.00,,SCT150,0.00,VWS V14.01,2013-03-17 03:09:00,
2013-03-17 17:10:00,59.2,42.6,30.05,North,355,0.0,1.0,54,0.00,,BKN050,0.00,VWS V14.01,2013-03-17 03:10:00,
2013-03-17 17:11:00,59.2,42.6,30.05,North,355,1.0,1.0,54,0.00,,BKN050,0.00,VWS V14.01,2013-03-17 03:11:00,
2013-03-17 17:13:00,59.0,42.9,30.05,North,355,0.0,0.0,55,0.00,,BKN050,0.00,VWS V14.01,2013-03-17 03:13:00,
2013-03-17 17:14:00,58.9,42.8,30.05,North,355,0.0,0.0,55,0.00,,SCT150,0.00,VWS V14.01,2013-03-17 03:14:00,
2013-03-17 17:18:00,58.7,42.6,30.05,North,355,0.0,1.0,55,0.00,,BKN050,0.00,VWS V14.01,2013-03-17 03:18:00,
2013-03-17 17:19:00,58.7,42.6,30.05,North,360,0.0,0.0,55,0.00,,SCT150,0.00,VWS V14.01,2013-03-17 03:19:00,
2013-03-17 17:24:00,58.6,42.5,30.06,NNE,31,3.0,3.0,55,0.00,,SCT150,0.00,VWS V14.01,2013-03-17 03:24:00,
2013-03-17 17:27:00,58.6,42.5,30.06,NE,46,2.0,3.0,55,0.00,,BKN050,0.00,VWS V14.01,2013-03-17 03:27:00,
2013-03-17 17:28:00,58.5,42.4,30.06,NE,46,1.0,2.0,55,0.00,,BKN050,0.00,VWS V14.01,2013-03-17 03:28:00,
2013-03-17 17:29:00,58.5,42.9,30.06,NE,47,2.0,3.0,56,0.00,,SCT150,0.00,VWS V14.01,2013-03-17 03:29:00,
2013-03-17 17:31:00,58.5,42.9,30.06,NE,47,3.0,3.0,56,0.00,,BKN050,0.00,VWS V14.01,2013-03-17 03:31:00,
2013-03-17 17:32:00,58.4,42.8,30.06,NE,47,1.0,3.0,56,0.00,,BKN050,0.00,VWS V14.01,2013-03-17 03:32:00,
2013-03-17 17:33:00,58.4,43.2,30.06,NE,47,4.0,4.0,57,0.00,,BKN050,0.00,VWS V14.01,2013-03-17 03:33:00,
2013-03-17 17:34:00,58.2,43.1,30.07,NE,47,1.0,2.0,57,0.00,,SCT150,0.00,VWS V14.01,2013-03-17 03:34:00,
2013-03-17 17:35:00,58.3,43.2,30.07,NE,47,0.0,1.0,57,0.00,,BKN050,0.00,VWS V14.01,2013-03-17 03:35:00,
2013-03-17 17:36:00,58.2,43.1,30.07,NE,47,2.0,2.0,57,0.00,,BKN050,0.00,VWS V14.01,2013-03-17 03:36:00,
2013-03-17 17:37:00,58.2,43.1,30.07,NE,47,2.0,3.0,57,0.00,,BKN050,0.00,VWS V14.01,2013-03-17 03:37:00,
2013-03-17 17:38:00,58.1,43.0,30.07,NE,47,0.0,3.0,57,0.00,,BKN050,0.00,VWS V14.01,2013-03-17 03:38:00,
2013-03-17 17:39:00,57.9,43.2,30.07,NE,47,0.0,0.0,58,0.00,,SCT150,0.00,VWS V14.01,2013-03-17 03:39:00,
2013-03-17 17:40:00,58.0,43.3,30.07,NE,47,0.0,2.0,58,0.00,,BKN050,0.00,VWS V14.01,2013-03-17 03:40:00,
2013-03-17 17:41:00,57.9,43.2,30.07,NE,47,0.0,1.0,58,0.00,,BKN050,0.00,VWS V14.01,2013-03-17 03:41:00,
2013-03-17 17:42:00,57.8,43.1,30.07,NE,47,0.0,2.0,58,0.00,,BKN050,0.00,VWS V14.01,2013-03-17 03:42:00,
2013-03-17 17:43:00,57.8,43.6,30.07,NE,47,0.0,0.0,59,0.00,,BKN050,0.00,VWS V14.01,2013-03-17 03:43:00,
2013-03-17 17:44:00,57.5,43.3,30.07,NE,47,0.0,1.0,59,0.00,,SCT150,0.00,VWS V14.01,2013-03-17 03:44:00,
2013-03-17 17:45:00,57.6,43.4,30.07,NE,47,0.0,1.0,59,0.00,,BKN050,0.00,VWS V14.01,2013-03-17 03:45:00,
2013-03-17 17:46:00,57.5,43.3,30.07,NE,47,0.0,0.0,59,0.00,,BKN050,0.00,VWS V14.01,2013-03-17 03:46:00,
2013-03-17 17:47:00,57.5,43.3,30.07,NNE,15,2.0,7.0,59,0.00,,BKN050,0.00,VWS V14.01,2013-03-17 03:47:00,
2013-03-17 17:48:00,57.5,43.3,30.07,NNW,344,2.0,2.0,59,0.00,,BKN050,0.00,VWS V14.01,2013-03-17 03:48:00,
2013-03-17 17:49:00,57.6,43.0,30.07,NNW,333,4.0,4.0,58,0.00,,SCT150,0.00,VWS V14.01,2013-03-17 03:49:00,
2013-03-17 17:50:00,57.6,43.4,30.07,NNW,343,1.0,4.0,59,0.00,,BKN050,0.00,VWS V14.01,2013-03-17 03:50:00,
2013-03-17 17:51:00,57.6,43.0,30.07,NNW,333,3.0,6.0,58,0.00,,BKN050,0.00,VWS V14.01,2013-03-17 03:51:00,
2013-03-17 17:53:00,57.7,43.0,30.07,NNW,327,3.0,3.0,58,0.00,,BKN050,0.00,VWS V14.01,2013-03-17 03:53:00,
2013-03-17 17:54:00,57.8,43.1,30.08,North,355,3.0,3.0,58,0.00,,SCT150,0.00,VWS V14.01,2013-03-17 03:54:00,
2013-03-17 17:55:00,57.8,43.1,30.07,NNW,346,1.0,2.0,58,0.00,,BKN050,0.00,VWS V14.01,2013-03-17 03:55:00,
2013-03-17 17:56:00,57.8,43.1,30.08,North,355,3.0,3.0,58,0.00,,BKN050,0.00,VWS V14.01,2013-03-17 03:56:00,
2013-03-17 17:57:00,57.8,43.1,30.08,North,360,2.0,6.0,58,0.00,,BKN050,0.00,VWS V14.01,2013-03-17 03:57:00,
2013-03-17 17:58:00,57.8,43.1,30.08,WNW,303,7.0,7.0,58,0.00,,BKN050,0.00,VWS V14.01,2013-03-17 03:58:00,
2013-03-17 17:59:00,57.8,43.6,30.07,NNW,343,3.0,4.0,59,0.00,,SCT150,0.00,VWS V14.01,2013-03-17 03:59:00,
2013-03-17 18:00:00,57.8,43.6,30.07,NNW,343,3.0,4.0,59,0.00,,SCT150,0.00,VWS V14.01,2013-03-17 04:00:00,
2013-03-17 18:01:00,57.8,43.6,30.07,NNW,343,3.0,3.0,59,0.00,,BKN050,0.00,VWS V14.01,2013-03-17 04:01:00,
2013-03-17 18:02:00,57.7,43.5,30.07,NNW,345,3.0,4.0,59,0.00,,BKN050,0.00,VWS V14.01,2013-03-17 04:02:00,
2013-03-17 18:03:00,57.7,43.5,30.08,WNW,295,5.0,6.0,59,0.00,,BKN050,0.00,VWS V14.01,2013-03-17 04:03:00,
2013-03-17 18:04:00,57.7,43.5,30.08,WNW,294,0.0,5.0,59,0.00,,BKN050,0.00,VWS V14.01,2013-03-17 04:04:00,
2013-03-17 18:05:00,57.6,43.8,30.08,North,360,1.0,3.0,60,0.00,,SCT150,0.00,VWS V14.01,2013-03-17 04:05:00,
2013-03-17 18:06:00,57.6,43.8,30.08,North,360,3.0,5.0,60,0.00,,BKN050,0.00,VWS V14.01,2013-03-17 04:06:00,
2013-03-17 18:07:00,57.5,43.7,30.08,North,360,0.0,3.0,60,0.00,,BKN050,0.00,VWS V14.01,2013-03-17 04:07:00,
2013-03-17 18:08:00,57.5,43.7,30.08,NW,315,4.0,4.0,60,0.00,,BKN050,0.00,VWS V14.01,2013-03-17 04:08:00,
2013-03-17 18:09:00,57.5,43.7,30.08,North,5,2.0,5.0,60,0.00,,BKN050,0.00,VWS V14.01,2013-03-17 04:09:00,
2013-03-17 18:10:00,57.4,43.6,30.08,North,360,3.0,5.0,60,0.00,,SCT150,0.00,VWS V14.01,2013-03-17 04:10:00,
2013-03-17 18:11:00,57.4,43.6,30.08,NNW,331,4.0,5.0,60,0.00,,BKN050,0.00,VWS V14.01,2013-03-17 04:11:00,
2013-03-17 18:12:00,57.3,43.5,30.08,North,360,0.0,5.0,60,0.00,,BKN050,0.00,VWS V14.01,2013-03-17 04:12:00,
2013-03-17 18:13:00,57.3,43.5,30.08,North,360,3.0,5.0,60,0.00,,BKN050,0.00,VWS V14.01,2013-03-17 04:13:00,
2013-03-17 18:14:00,57.3,44.0,30.08,North,355,0.0,4.0,61,0.00,,BKN050,0.00,VWS V14.01,2013-03-17 04:14:00,
2013-03-17 18:15:00,57.2,43.9,30.08,North,355,0.0,1.0,61,0.00,,SCT150,0.00,VWS V14.01,2013-03-17 04:15:00,
2013-03-17 18:16:00,57.2,43.9,30.08,North,355,0.0,1.0,61,0.00,,BKN050,0.00,VWS V14.01,2013-03-17 04:16:00,
2013-03-17 18:17:00,57.2,43.9,30.08,NNW,344,2.0,3.0,61,0.00,,BKN050,0.00,VWS V14.01,2013-03-17 04:17:00,
2013-03-17 18:18:00,57.1,43.8,30.08,North,355,4.0,4.0,61,0.00,,BKN050,0.00,VWS V14.01,2013-03-17 04:18:00,
2013-03-17 18:19:00,57.1,43.8,30.08,North,355,2.0,4.0,61,0.00,,BKN050,0.00,VWS V14.01,2013-03-17 04:19:00,
2013-03-17 18:20:00,57.0,43.7,30.08,NNW,329,2.0,3.0,61,0.00,,SCT150,0.00,VWS V14.01,2013-03-17 04:20:00,
2013-03-17 18:21:00,57.0,43.7,30.08,WNW,301,3.0,7.0,61,0.00,,BKN050,0.00,VWS V14.01,2013-03-17 04:21:00,
2013-03-17 18:22:00,57.0,43.7,30.08,NNW,332,1.0,4.0,61,0.00,,BKN050,0.00,VWS V14.01,2013-03-17 04:22:00,
2013-03-17 18:23:00,56.9,44.0,30.08,NNW,332,2.0,3.0,62,0.00,,BKN050,0.00,VWS V14.01,2013-03-17 04:23:00,
2013-03-17 18:25:00,56.8,43.9,30.08,NNW,331,0.0,0.0,62,0.00,,SCT150,0.00,VWS V14.01,2013-03-17 04:25:00,
2013-03-17 18:26:00,56.8,43.9,30.08,NNW,331,0.0,1.0,62,0.00,,BKN050,0.00,VWS V14.01,2013-03-17 04:26:00,
2013-03-17 18:27:00,56.8,43.9,30.08,NNW,331,0.0,1.0,62,0.00,,BKN050,0.00,VWS V14.01,2013-03-17 04:27:00,
2013-03-17 18:28:00,56.7,43.8,30.09,NNW,331,0.0,1.0,62,0.00,,BKN050,0.00,VWS V14.01,2013-03-17 04:28:00,
2013-03-17 18:29:00,56.7,44.3,30.09,NNW,331,0.0,1.0,63,0.00,,BKN050,0.00,VWS V14.01,2013-03-17 04:29:00,
2013-03-17 18:30:00,56.6,44.2,30.09,NNW,331,0.0,0.0,63,0.00,,SCT150,0.00,VWS V14.01,2013-03-17 04:30:00,
2013-03-17 18:31:00,56.6,44.2,30.09,NNW,331,0.0,0.0,63,0.00,,BKN050,0.00,VWS V14.01,2013-03-17 04:31:00,
2013-03-17 18:32:00,56.6,44.2,30.09,NNW,331,0.0,1.0,63,0.00,,BKN050,0.00,VWS V14.01,2013-03-17 04:32:00,
2013-03-17 18:33:00,56.5,44.1,30.09,NNW,331,0.0,1.0,63,0.00,,BKN050,0.00,VWS V14.01,2013-03-17 04:33:00,
2013-03-17 18:34:00,56.4,44.0,30.09,NNW,331,0.0,1.0,63,0.00,,BKN050,0.00,VWS V14.01,2013-03-17 04:34:00,
2013-03-17 18:35:00,56.3,43.9,30.09,NNW,331,1.0,1.0,63,0.00,,SCT150,0.00,VWS V14.01,2013-03-17 04:35:00,
2013-03-17 18:36:00,56.3,43.9,30.09,NNW,331,1.0,1.0,63,0.00,,BKN050,0.00,VWS V14.01,2013-03-17 04:36:00,
2013-03-17 18:37:00,56.3,43.9,30.09,NNW,331,0.0,1.0,63,0.00,,BKN050,0.00,VWS V14.01,2013-03-17 04:37:00,
2013-03-17 18:38:00,56.2,44.2,30.09,NNW,331,0.0,0.0,64,0.00,,BKN050,0.00,VWS V14.01,2013-03-17 04:38:00,
2013-03-17 18:39:00,56.2,44.2,30.09,NNW,331,2.0,3.0,64,0.00,,BKN050,0.00,VWS V14.01,2013-03-17 04:39:00,
2013-03-17 18:40:00,56.1,44.1,30.09,NNW,331,0.0,0.0,64,0.00,,SCT150,0.00,VWS V14.01,2013-03-17 04:40:00,
2013-03-17 18:41:00,56.2,44.2,30.09,NNW,331,0.0,1.0,64,0.00,,BKN050,0.00,VWS V14.01,2013-03-17 04:41:00,
2013-03-17 18:42:00,56.1,44.1,30.09,NNW,331,0.0,1.0,64,0.00,,BKN050,0.00,VWS V14.01,2013-03-17 04:42:00,
2013-03-17 18:43:00,56.1,44.1,30.09,NNW,329,2.0,3.0,64,0.00,,BKN050,0.00,VWS V14.01,2013-03-17 04:43:00,
2013-03-17 18:44:00,56.1,44.1,30.09,NNW,333,2.0,3.0,64,0.00,,BKN050,0.00,VWS V14.01,2013-03-17 04:44:00,
2013-03-17 18:45:00,56.1,44.1,30.09,NW,323,1.0,3.0,64,0.00,,SCT150,0.00,VWS V14.01,2013-03-17 04:45:00,
2013-03-17 18:46:00,56.1,44.1,30.09,NW,323,3.0,5.0,64,0.00,,BKN050,0.00,VWS V14.01,2013-03-17 04:46:00,
2013-03-17 18:47:00,56.1,44.1,30.09,NW,323,0.0,3.0,64,0.00,,BKN050,0.00,VWS V14.01,2013-03-17 04:47:00,
2013-03-17 18:48:00,56.2,44.2,30.09,NNW,327,0.0,2.0,64,0.00,,BKN050,0.00,VWS V14.01,2013-03-17 04:48:00,
2013-03-17 18:49:00,56.2,44.2,30.09,NNW,332,3.0,3.0,64,0.00,,BKN050,0.00,VWS V14.01,2013-03-17 04:49:00,
2013-03-17 18:50:00,56.2,43.8,30.10,NNW,332,2.0,2.0,63,0.00,,SCT150,0.00,VWS V14.01,2013-03-17 04:50:00,
2013-03-17 18:51:00,56.2,43.8,30.10,NNW,332,1.0,1.0,63,0.00,,BKN050,0.00,VWS V14.01,2013-03-17 04:51:00,
2013-03-17 18:52:00,56.2,43.8,30.10,NNW,331,2.0,3.0,63,0.00,,BKN050,0.00,VWS V14.01,2013-03-17 04:52:00,
2013-03-17 18:53:00,56.3,43.9,30.10,NNW,336,1.0,3.0,63,0.00,,BKN050,0.00,VWS V14.01,2013-03-17 04:53:00,
2013-03-17 18:54:00,56.3,43.9,30.10,NNW,336,1.0,3.0,63,0.00,,BKN050,0.00,VWS V14.01,2013-03-17 04:54:00,
2013-03-17 18:55:00,56.3,43.9,30.10,NNW,338,0.0,1.0,63,0.00,,SCT150,0.00,VWS V14.01,2013-03-17 04:55:00,
2013-03-17 18:56:00,56.3,43.9,30.10,NNW,338,1.0,4.0,63,0.00,,BKN050,0.00,VWS V14.01,2013-03-17 04:56:00,
2013-03-17 18:57:00,56.4,44.0,30.10,NNW,338,1.0,1.0,63,0.00,,BKN050,0.00,VWS V14.01,2013-03-17 04:57:00,
2013-03-17 18:58:00,56.4,44.0,30.10,NNW,338,2.0,2.0,63,0.00,,BKN050,0.00,VWS V14.01,2013-03-17 04:58:00,
2013-03-17 18:59:00,56.4,44.0,30.10,NNW,338,0.0,2.0,63,0.00,,BKN050,0.00,VWS V14.01,2013-03-17 04:59:00,
2013-03-17 19:00:00,56.4,44.0,30.10,NNW,338,0.0,0.0,63,0.00,,SCT150,0.00,VWS V14.01,2013-03-17 05:00:00,
2013-03-17 19:01:00,56.4,44.0,30.10,NNW,338,0.0,3.0,63,0.00,,BKN050,0.00,VWS V14.01,2013-03-17 05:01:00,
2013-03-17 19:02:00,56.4,44.0,30.10,NNW,338,1.0,1.0,63,0.00,,BKN050,0.00,VWS V14.01,2013-03-17 05:02:00,
2013-03-17 19:03:00,56.4,44.0,30.10,NNW,338,0.0,1.0,63,0.00,,BKN050,0.00,VWS V14.01,2013-03-17 05:03:00,
2013-03-17 19:04:00,56.3,43.9,30.10,NNW,338,0.0,1.0,63,0.00,,BKN050,0.00,VWS V14.01,2013-03-17 05:04:00,
2013-03-17 19:05:00,56.2,43.8,30.10,NNW,338,0.0,0.0,63,0.00,,SCT150,0.00,VWS V14.01,2013-03-17 05:05:00,
2013-03-17 19:06:00,56.2,43.8,30.10,NNW,338,0.0,1.0,63,0.00,,BKN050,0.00,VWS V14.01,2013-03-17 05:06:00,
2013-03-17 19:07:00,56.1,43.7,30.10,NNW,338,0.0,0.0,63,0.00,,BKN050,0.00,VWS V14.01,2013-03-17 05:07:00,
2013-03-17 19:09:00,56.0,44.0,30.10,NNW,338,0.0,0.0,64,0.00,,BKN050,0.00,VWS V14.01,2013-03-17 05:09:00,
2013-03-17 19:10:00,55.9,43.9,30.10,NNW,338,0.0,0.0,64,0.00,,SCT150,0.00,VWS V14.01,2013-03-17 05:10:00,
2013-03-17 19:11:00,55.9,43.9,30.10,NNW,338,0.0,1.0,64,0.00,,BKN050,0.00,VWS V14.01,2013-03-17 05:11:00,
2013-03-17 19:12:00,55.8,43.8,30.10,NNW,338,0.0,0.0,64,0.00,,BKN050,0.00,VWS V14.01,2013-03-17 05:12:00,
2013-03-17 19:13:00,55.7,43.7,30.10,NNW,338,0.0,0.0,64,0.00,,BKN050,0.00,VWS V14.01,2013-03-17 05:13:00,
2013-03-17 19:14:00,55.6,43.6,30.10,NNW,338,0.0,1.0,64,0.00,,BKN050,0.00,VWS V14.01,2013-03-17 05:14:00,
2013-03-17 19:15:00,55.3,43.8,30.10,NNW,338,0.0,0.0,65,0.00,,SCT150,0.00,VWS V14.01,2013-03-17 05:15:00,
2013-03-17 19:16:00,55.4,43.8,30.10,NNW,338,0.0,0.0,65,0.00,,BKN050,0.00,VWS V14.01,2013-03-17 05:16:00,
2013-03-17 19:17:00,55.3,43.8,30.10,NNW,338,0.0,0.0,65,0.00,,BKN050,0.00,VWS V14.01,2013-03-17 05:17:00,
2013-03-17 19:18:00,55.1,43.6,30.10,NNW,338,0.0,0.0,65,0.00,,BKN050,0.00,VWS V14.01,2013-03-17 05:18:00,
2013-03-17 19:19:00,55.1,44.0,30.10,NNW,338,0.0,0.0,66,0.00,,BKN050,0.00,VWS V14.01,2013-03-17 05:19:00,
2013-03-17 19:20:00,55.0,43.9,30.10,NNW,338,0.0,0.0,66,0.00,,SCT150,0.00,VWS V14.01,2013-03-17 05:20:00,
2013-03-17 19:21:00,55.0,43.9,30.10,NNW,338,0.0,0.0,66,0.00,,BKN050,0.00,VWS V14.01,2013-03-17 05:21:00,
2013-03-17 19:22:00,55.0,43.9,30.10,NNW,338,0.0,0.0,66,0.00,,BKN050,0.00,VWS V14.01,2013-03-17 05:22:00,
2013-03-17 19:25:00,54.9,44.2,30.10,NNW,338,0.0,0.0,67,0.00,,SCT150,0.00,VWS V14.01,2013-03-17 05:25:00,
2013-03-17 19:26:00,54.9,44.2,30.10,NNW,338,0.0,1.0,67,0.00,,BKN050,0.00,VWS V14.01,2013-03-17 05:26:00,
2013-03-17 19:27:00,54.8,44.1,30.10,NNW,338,0.0,0.0,67,0.00,,BKN050,0.00,VWS V14.01,2013-03-17 05:27:00,
2013-03-17 19:29:00,54.8,44.1,30.10,NNW,338,0.0,0.0,67,0.00,,BKN050,0.00,VWS V14.01,2013-03-17 05:29:00,
2013-03-17 19:30:00,54.6,43.9,30.11,NNW,338,0.0,0.0,67,0.00,,SCT150,0.00,VWS V14.01,2013-03-17 05:30:00,
2013-03-17 19:31:00,54.7,44.0,30.11,NNW,338,0.0,0.0,67,0.00,,BKN050,0.00,VWS V14.01,2013-03-17 05:31:00,
2013-03-17 19:33:00,54.5,43.8,30.11,NNW,338,0.0,0.0,67,0.00,,BKN050,0.00,VWS V14.01,2013-03-17 05:33:00,
2013-03-17 19:35:00,54.3,44.0,30.11,NNW,332,2.0,2.0,68,0.00,,SCT150,0.00,VWS V14.01,2013-03-17 05:35:00,
2013-03-17 19:36:00,54.4,44.1,30.11,NNW,338,0.0,0.0,68,0.00,,BKN050,0.00,VWS V14.01,2013-03-17 05:36:00,
2013-03-17 19:37:00,54.3,44.0,30.11,NNW,344,0.0,3.0,68,0.00,,BKN050,0.00,VWS V14.01,2013-03-17 05:37:00,
2013-03-17 19:38:00,54.3,44.0,30.11,NNW,344,0.0,0.0,68,0.00,,BKN050,0.00,VWS V14.01,2013-03-17 05:38:00,
2013-03-17 19:39:00,54.3,44.0,30.11,NNW,344,0.0,0.0,68,0.00,,BKN050,0.00,VWS V14.01,2013-03-17 05:39:00,
2013-03-17 19:40:00,54.2,43.9,30.11,NNW,344,0.0,0.0,68,0.00,,SCT150,0.00,VWS V14.01,2013-03-17 05:40:00,
2013-03-17 19:41:00,54.2,43.9,30.11,NNW,344,0.0,0.0,68,0.00,,BKN050,0.00,VWS V14.01,2013-03-17 05:41:00,
2013-03-17 19:43:00,54.2,44.3,30.11,NNW,344,2.0,2.0,69,0.00,,BKN050,0.00,VWS V14.01,2013-03-17 05:43:00,
2013-03-17 19:44:00,54.2,44.3,30.11,NNW,335,2.0,3.0,69,0.00,,BKN050,0.00,VWS V14.01,2013-03-17 05:44:00,
2013-03-17 19:45:00,54.4,44.5,30.11,NNW,335,1.0,2.0,69,0.00,,SCT150,0.00,VWS V14.01,2013-03-17 05:45:00,
2013-03-17 19:46:00,54.3,44.4,30.11,NNW,335,1.0,3.0,69,0.00,,BKN050,0.00,VWS V14.01,2013-03-17 05:46:00,
2013-03-17 19:47:00,54.4,44.5,30.11,NNW,335,1.0,3.0,69,0.00,,BKN050,0.00,VWS V14.01,2013-03-17 05:47:00,
2013-03-17 19:48:00,54.5,44.5,30.11,NNW,335,0.0,1.0,69,0.00,,BKN050,0.00,VWS V14.01,2013-03-17 05:48:00,
2013-03-17 19:49:00,54.6,44.7,30.11,NNW,335,0.0,1.0,69,0.00,,BKN050,0.00,VWS V14.01,2013-03-17 05:49:00,
2013-03-17 19:50:00,54.6,44.3,30.11,NNW,335,0.0,0.0,68,0.00,,SCT150,0.00,VWS V14.01,2013-03-17 05:50:00,
2013-03-17 19:51:00,54.6,44.3,30.11,NNW,335,0.0,0.0,68,0.00,,BKN050,0.00,VWS V14.01,2013-03-17 05:51:00,
2013-03-17 19:52:00,54.6,44.3,30.11,NNW,335,0.0,1.0,68,0.00,,BKN050,0.00,VWS V14.01,2013-03-17 05:52:00,
2013-03-17 19:53:00,54.7,44.4,30.11,NNW,335,0.0,0.0,68,0.00,,BKN050,0.00,VWS V14.01,2013-03-17 05:53:00,
2013-03-17 19:54:00,54.6,44.3,30.11,NNW,335,0.0,0.0,68,0.00,,BKN050,0.00,VWS V14.01,2013-03-17 05:54:00,
2013-03-17 19:55:00,54.5,44.5,30.11,NNW,335,0.0,0.0,69,0.00,,SCT150,0.00,VWS V14.01,2013-03-17 05:55:00,
2013-03-17 19:56:00,54.5,44.5,30.11,NNW,335,0.0,0.0,69,0.00,,BKN050,0.00,VWS V14.01,2013-03-17 05:56:00,
2013-03-17 19:57:00,54.4,44.5,30.11,NNW,335,0.0,0.0,69,0.00,,BKN050,0.00,VWS V14.01,2013-03-17 05:57:00,
2013-03-17 19:58:00,54.4,44.5,30.11,NNW,335,1.0,1.0,69,0.00,,BKN050,0.00,VWS V14.01,2013-03-17 05:58:00,
2013-03-17 19:59:00,54.4,44.5,30.11,NNW,335,0.0,1.0,69,0.00,,BKN050,0.00,VWS V14.01,2013-03-17 05:59:00,
2013-03-17 20:00:00,54.3,44.4,30.12,NNW,335,0.0,0.0,69,0.00,,SCT150,0.00,VWS V14.01,2013-03-17 06:00:00,
2013-03-17 20:01:00,54.3,44.4,30.12,NNW,335,0.0,0.0,69,0.00,,BKN050,0.00,VWS V14.01,2013-03-17 06:01:00,
2013-03-17 20:02:00,54.2,44.3,30.12,NNW,335,0.0,0.0,69,0.00,,BKN050,0.00,VWS V14.01,2013-03-17 06:02:00,
2013-03-17 20:03:00,54.1,44.2,30.12,NNW,335,0.0,0.0,69,0.00,,BKN050,0.00,VWS V14.01,2013-03-17 06:03:00,
2013-03-17 20:04:00,54.1,44.2,30.12,NNW,335,0.0,0.0,69,0.00,,BKN050,0.00,VWS V14.01,2013-03-17 06:04:00,
2013-03-17 20:05:00,54.0,44.5,30.11,NNW,335,0.0,0.0,70,0.00,,SCT150,0.00,VWS V14.01,2013-03-17 06:05:00,
2013-03-17 20:06:00,54.1,44.5,30.12,NNW,335,0.0,0.0,70,0.00,,BKN050,0.00,VWS V14.01,2013-03-17 06:06:00,
2013-03-17 20:07:00,54.0,44.5,30.11,NNW,335,1.0,1.0,70,0.00,,BKN050,0.00,VWS V14.01,2013-03-17 06:07:00,
2013-03-17 20:08:00,53.9,44.3,30.12,NNW,335,0.0,2.0,70,0.00,,BKN050,0.00,VWS V14.01,2013-03-17 06:08:00,
2013-03-17 20:09:00,53.9,44.3,30.11,NNW,335,0.0,1.0,70,0.00,,BKN050,0.00,VWS V14.01,2013-03-17 06:09:00,
2013-03-17 20:10:00,53.9,44.3,30.11,NNW,335,0.0,0.0,70,0.00,,SCT150,0.00,VWS V14.01,2013-03-17 06:10:00,
2013-03-17 20:11:00,53.9,44.3,30.11,NNW,335,0.0,1.0,70,0.00,,BKN050,0.00,VWS V14.01,2013-03-17 06:11:00,
2013-03-17 20:12:00,53.9,44.3,30.11,NNW,335,0.0,1.0,70,0.00,,BKN050,0.00,VWS V14.01,2013-03-17 06:12:00,
2013-03-17 20:13:00,53.9,44.3,30.11,North,349,2.0,4.0,70,0.00,,BKN050,0.00,VWS V14.01,2013-03-17 06:13:00,
2013-03-17 20:14:00,54.0,44.8,30.11,North,349,0.0,2.0,71,0.00,,BKN050,0.00,VWS V14.01,2013-03-17 06:14:00,
2013-03-17 20:15:00,54.0,44.5,30.11,North,349,0.0,0.0,70,0.00,,SCT150,0.00,VWS V14.01,2013-03-17 06:15:00,
2013-03-17 20:16:00,54.0,44.5,30.11,North,349,0.0,2.0,70,0.00,,BKN050,0.00,VWS V14.01,2013-03-17 06:16:00,
2013-03-17 20:17:00,54.0,44.5,30.11,North,349,2.0,2.0,70,0.00,,BKN050,0.00,VWS V14.01,2013-03-17 06:17:00,
2013-03-17 20:18:00,54.1,44.5,30.11,North,349,0.0,2.0,70,0.00,,BKN050,0.00,VWS V14.01,2013-03-17 06:18:00,
2013-03-17 20:19:00,54.1,44.5,30.11,North,349,0.0,2.0,70,0.00,,BKN050,0.00,VWS V14.01,2013-03-17 06:19:00,
2013-03-17 20:20:00,54.2,44.6,30.11,North,349,1.0,2.0,70,0.00,,SCT150,0.00,VWS V14.01,2013-03-17 06:20:00,
2013-03-17 20:21:00,54.2,44.6,30.11,North,349,2.0,2.0,70,0.00,,BKN050,0.00,VWS V14.01,2013-03-17 06:21:00,
2013-03-17 20:22:00,54.2,44.6,30.11,NNW,348,0.0,2.0,70,0.00,,BKN050,0.00,VWS V14.01,2013-03-17 06:22:00,
2013-03-17 20:23:00,54.2,44.6,30.11,North,349,0.0,2.0,70,0.00,,BKN050,0.00,VWS V14.01,2013-03-17 06:23:00,
2013-03-17 20:24:00,54.2,44.6,30.11,North,349,2.0,2.0,70,0.00,,BKN050,0.00,VWS V14.01,2013-03-17 06:24:00,
2013-03-17 20:25:00,54.1,44.9,30.11,North,349,0.0,0.0,71,0.00,,SCT150,0.00,VWS V14.01,2013-03-17 06:25:00,
2013-03-17 20:26:00,54.1,44.9,30.11,North,349,0.0,1.0,71,0.00,,BKN050,0.00,VWS V14.01,2013-03-17 06:26:00,
2013-03-17 20:27:00,53.9,44.7,30.11,North,349,0.0,0.0,71,0.00,,BKN050,0.00,VWS V14.01,2013-03-17 06:27:00,
2013-03-17 20:28:00,53.9,44.7,30.11,North,349,0.0,0.0,71,0.00,,BKN050,0.00,VWS V14.01,2013-03-17 06:28:00,
2013-03-17 20:29:00,53.8,45.0,30.11,North,349,0.0,0.0,72,0.00,,BKN050,0.00,VWS V14.01,2013-03-17 06:29:00,
2013-03-17 20:30:00,53.6,44.8,30.12,North,349,0.0,0.0,72,0.00,,SCT150,0.00,VWS V14.01,2013-03-17 06:30:00,
2013-03-17 20:31:00,53.6,44.8,30.12,North,349,0.0,0.0,72,0.00,,BKN050,0.00,VWS V14.01,2013-03-17 06:31:00,
2013-03-17 20:32:00,53.6,44.8,30.12,North,349,0.0,0.0,72,0.00,,BKN050,0.00,VWS V14.01,2013-03-17 06:32:00,
2013-03-17 20:33:00,53.5,44.7,30.12,North,349,0.0,0.0,72,0.00,,BKN050,0.00,VWS V14.01,2013-03-17 06:33:00,
2013-03-17 20:34:00,53.4,45.0,30.12,North,349,0.0,0.0,73,0.00,,BKN050,0.00,VWS V14.01,2013-03-17 06:34:00,
2013-03-17 20:35:00,53.2,44.8,30.12,NNW,348,0.0,0.0,73,0.00,,SCT150,0.00,VWS V14.01,2013-03-17 06:35:00,
2013-03-17 20:36:00,53.2,44.8,30.12,North,349,0.0,1.0,73,0.00,,BKN050,0.00,VWS V14.01,2013-03-17 06:36:00,
2013-03-17 20:37:00,53.2,45.1,30.12,North,349,1.0,1.0,74,0.00,,BKN050,0.00,VWS V14.01,2013-03-17 06:37:00,
2013-03-17 20:39:00,53.0,45.0,30.12,North,349,0.0,0.0,74,0.00,,BKN050,0.00,VWS V14.01,2013-03-17 06:39:00,
2013-03-17 20:40:00,53.0,45.3,30.12,North,349,0.0,0.0,75,0.00,,SCT150,0.00,VWS V14.01,2013-03-17 06:40:00,
2013-03-17 20:41:00,53.0,45.3,30.12,North,349,0.0,2.0,75,0.00,,BKN050,0.00,VWS V14.01,2013-03-17 06:41:00,
2013-03-17 20:42:00,53.0,45.3,30.12,North,349,0.0,0.0,75,0.00,,BKN050,0.00,VWS V14.01,2013-03-17 06:42:00,
2013-03-17 20:43:00,53.0,45.3,30.12,North,349,0.0,0.0,75,0.00,,BKN050,0.00,VWS V14.01,2013-03-17 06:43:00,
2013-03-17 20:44:00,52.9,45.2,30.12,North,349,0.0,1.0,75,0.00,,BKN050,0.00,VWS V14.01,2013-03-17 06:44:00,
2013-03-17 20:45:00,52.8,45.5,30.12,North,349,1.0,1.0,76,0.00,,SCT150,0.00,VWS V14.01,2013-03-17 06:45:00,
2013-03-17 20:46:00,52.8,45.1,30.12,North,349,0.0,0.0,75,0.00,,BKN050,0.00,VWS V14.01,2013-03-17 06:46:00,
2013-03-17 20:47:00,52.8,45.5,30.12,North,349,1.0,3.0,76,0.00,,BKN050,0.00,VWS V14.01,2013-03-17 06:47:00,
2013-03-17 20:48:00,52.7,45.4,30.12,North,349,1.0,1.0,76,0.00,,BKN050,0.00,VWS V14.01,2013-03-17 06:48:00,
2013-03-17 20:49:00,52.7,45.4,30.12,North,349,0.0,2.0,76,0.00,,BKN050,0.00,VWS V14.01,2013-03-17 06:49:00,
2013-03-17 20:50:00,52.6,45.3,30.12,North,349,0.0,0.0,76,0.00,,SCT150,0.00,VWS V14.01,2013-03-17 06:50:00,
2013-03-17 20:51:00,52.6,45.3,30.13,North,349,0.0,0.0,76,0.00,,BKN050,0.00,VWS V14.01,2013-03-17 06:51:00,
2013-03-17 20:52:00,52.5,45.2,30.12,North,349,0.0,0.0,76,0.00,,BKN050,0.00,VWS V14.01,2013-03-17 06:52:00,
2013-03-17 20:53:00,52.4,45.1,30.12,North,349,0.0,0.0,76,0.00,,BKN050,0.00,VWS V14.01,2013-03-17 06:53:00,
2013-03-17 20:54:00,52.4,45.4,30.12,North,349,0.0,0.0,77,0.00,,BKN050,0.00,VWS V14.01,2013-03-17 06:54:00,
2013-03-17 20:55:00,52.3,45.3,30.12,North,349,0.0,0.0,77,0.00,,SCT150,0.00,VWS V14.01,2013-03-17 06:55:00,
2013-03-17 20:56:00,52.3,45.3,30.12,North,349,0.0,0.0,77,0.00,,BKN050,0.00,VWS V14.01,2013-03-17 06:56:00,
2013-03-17 20:57:00,52.3,45.3,30.12,North,349,0.0,0.0,77,0.00,,BKN050,0.00,VWS V14.01,2013-03-17 06:57:00,
2013-03-17 20:58:00,52.3,45.3,30.12,North,349,0.0,0.0,77,0.00,,BKN050,0.00,VWS V14.01,2013-03-17 06:58:00,
2013-03-17 20:59:00,52.3,45.3,30.12,North,349,0.0,0.0,77,0.00,,BKN050,0.00,VWS V14.01,2013-03-17 06:59:00,
2013-03-17 21:00:00,52.3,45.3,30.12,North,349,0.0,0.0,77,0.00,,SCT150,0.00,VWS V14.01,2013-03-17 07:00:00,
2013-03-17 21:01:00,52.3,45.3,30.12,North,349,0.0,0.0,77,0.00,,BKN050,0.00,VWS V14.01,2013-03-17 07:01:00,
2013-03-17 21:02:00,52.3,45.3,30.12,North,349,0.0,0.0,77,0.00,,BKN050,0.00,VWS V14.01,2013-03-17 07:02:00,
2013-03-17 21:03:00,52.3,45.3,30.12,North,349,0.0,0.0,77,0.00,,BKN050,0.00,VWS V14.01,2013-03-17 07:03:00,
2013-03-17 21:04:00,52.3,45.3,30.12,North,349,0.0,0.0,77,0.00,,BKN050,0.00,VWS V14.01,2013-03-17 07:04:00,
2013-03-17 21:05:00,52.2,45.2,30.12,North,349,0.0,0.0,77,0.00,,SCT150,0.00,VWS V14.01,2013-03-17 07:05:00,
2013-03-17 21:08:00,52.1,45.1,30.12,North,349,0.0,0.0,77,0.00,,BKN050,0.00,VWS V14.01,2013-03-17 07:08:00,
2013-03-17 21:10:00,52.0,45.4,30.11,North,349,0.0,0.0,78,0.00,,SCT150,0.00,VWS V14.01,2013-03-17 07:10:00,
2013-03-17 21:11:00,52.0,45.4,30.11,North,349,0.0,1.0,78,0.00,,BKN050,0.00,VWS V14.01,2013-03-17 07:11:00,
2013-03-17 21:12:00,52.0,45.4,30.11,North,349,0.0,0.0,78,0.00,,BKN050,0.00,VWS V14.01,2013-03-17 07:12:00,
2013-03-17 21:13:00,51.9,44.9,30.11,North,349,0.0,0.0,77,0.00,,BKN050,0.00,VWS V14.01,2013-03-17 07:13:00,
2013-03-17 21:14:00,51.9,45.3,30.11,North,349,0.0,1.0,78,0.00,,BKN050,0.00,VWS V14.01,2013-03-17 07:14:00,
2013-03-17 21:15:00,51.7,45.1,30.12,North,349,0.0,0.0,78,0.00,,SCT150,0.00,VWS V14.01,2013-03-17 07:15:00,
2013-03-17 21:16:00,51.7,45.1,30.12,North,349,0.0,1.0,78,0.00,,BKN050,0.00,VWS V14.01,2013-03-17 07:16:00,
2013-03-17 21:17:00,51.6,45.0,30.12,North,349,0.0,1.0,78,0.00,,BKN050,0.00,VWS V14.01,2013-03-17 07:17:00,
2013-03-17 21:18:00,51.5,44.9,30.12,North,349,0.0,0.0,78,0.00,,BKN050,0.00,VWS V14.01,2013-03-17 07:18:00,
2013-03-17 21:19:00,51.5,44.9,30.12,North,349,0.0,0.0,78,0.00,,BKN050,0.00,VWS V14.01,2013-03-17 07:19:00,
2013-03-17 21:20:00,51.3,45.0,30.12,North,349,0.0,0.0,79,0.00,,SCT150,0.00,VWS V14.01,2013-03-17 07:20:00,
2013-03-17 21:21:00,51.3,45.0,30.12,North,349,0.0,0.0,79,0.00,,BKN050,0.00,VWS V14.01,2013-03-17 07:21:00,
2013-03-17 21:22:00,51.2,44.9,30.12,North,349,0.0,0.0,79,0.00,,BKN050,0.00,VWS V14.01,2013-03-17 07:22:00,
2013-03-17 21:23:00,51.2,44.9,30.12,North,349,0.0,0.0,79,0.00,,BKN050,0.00,VWS V14.01,2013-03-17 07:23:00,
2013-03-17 21:24:00,51.2,44.9,30.11,North,349,0.0,2.0,79,0.00,,BKN050,0.00,VWS V14.01,2013-03-17 07:24:00,
2013-03-17 21:25:00,51.2,44.9,30.11,North,349,0.0,1.0,79,0.00,,SCT150,0.00,VWS V14.01,2013-03-17 07:25:00,
2013-03-17 21:26:00,51.2,44.9,30.11,North,349,1.0,1.0,79,0.00,,BKN050,0.00,VWS V14.01,2013-03-17 07:26:00,
2013-03-17 21:27:00,51.3,45.0,30.11,North,349,0.0,1.0,79,0.00,,BKN050,0.00,VWS V14.01,2013-03-17 07:27:00,
2013-03-17 21:28:00,51.3,45.0,30.11,North,349,3.0,3.0,79,0.00,,BKN050,0.00,VWS V14.01,2013-03-17 07:28:00,
2013-03-17 21:29:00,51.4,45.1,30.11,NNW,345,1.0,3.0,79,0.00,,BKN050,0.00,VWS V14.01,2013-03-17 07:29:00,
2013-03-17 21:30:00,51.6,45.3,30.11,NNW,344,3.0,3.0,79,0.00,,SCT150,0.00,VWS V14.01,2013-03-17 07:30:00,
2013-03-17 21:31:00,51.6,45.3,30.11,NNW,331,2.0,2.0,79,0.00,,BKN050,0.00,VWS V14.01,2013-03-17 07:31:00,
2013-03-17 21:32:00,51.7,45.4,30.11,North,5,1.0,3.0,79,0.00,,BKN050,0.00,VWS V14.01,2013-03-17 07:32:00,
2013-03-17 21:33:00,51.8,45.5,30.11,North,355,3.0,3.0,79,0.00,,BKN050,0.00,VWS V14.01,2013-03-17 07:33:00,
2013-03-17 21:34:00,51.9,45.3,30.11,North,350,2.0,4.0,78,0.00,,BKN050,0.00,VWS V14.01,2013-03-17 07:34:00,
2013-03-17 21:35:00,52.1,45.5,30.12,North,350,0.0,0.0,78,0.00,,SCT150,0.00,VWS V14.01,2013-03-17 07:35:00,
2013-03-17 21:36:00,52.1,45.5,30.12,North,350,0.0,2.0,78,0.00,,BKN050,0.00,VWS V14.01,2013-03-17 07:36:00,
2013-03-17 21:37:00,52.2,45.2,30.12,North,350,0.0,0.0,77,0.00,,BKN050,0.00,VWS V14.01,2013-03-17 07:37:00,
2013-03-17 21:38:00,52.2,45.2,30.12,North,350,2.0,3.0,77,0.00,,BKN050,0.00,VWS V14.01,2013-03-17 07:38:00,
2013-03-17 21:39:00,52.3,45.3,30.12,NNW,340,3.0,3.0,77,0.00,,BKN050,0.00,VWS V14.01,2013-03-17 07:39:00,
2013-03-17 21:40:00,52.4,45.4,30.11,NNW,340,0.0,0.0,77,0.00,,SCT150,0.00,VWS V14.01,2013-03-17 07:40:00,
2013-03-17 21:41:00,52.4,45.4,30.11,NNW,340,0.0,2.0,77,0.00,,BKN050,0.00,VWS V14.01,2013-03-17 07:41:00,
2013-03-17 21:42:00,52.4,45.1,30.11,NNW,340,0.0,1.0,76,0.00,,BKN050,0.00,VWS V14.01,2013-03-17 07:42:00,
2013-03-17 21:43:00,52.4,45.1,30.12,NNW,340,0.0,1.0,76,0.00,,BKN050,0.00,VWS V14.01,2013-03-17 07:43:00,
2013-03-17 21:44:00,52.5,45.2,30.11,NNW,340,0.0,1.0,76,0.00,,BKN050,0.00,VWS V14.01,2013-03-17 07:44:00,
2013-03-17 21:45:00,52.3,45.0,30.12,NNW,340,0.0,1.0,76,0.00,,SCT150,0.00,VWS V14.01,2013-03-17 07:45:00,
2013-03-17 21:46:00,52.4,45.1,30.12,NNW,340,0.0,1.0,76,0.00,,BKN050,0.00,VWS V14.01,2013-03-17 07:46:00,
2013-03-17 21:47:00,52.3,45.0,30.12,NNW,340,0.0,1.0,76,0.00,,BKN050,0.00,VWS V14.01,2013-03-17 07:47:00,
2013-03-17 21:48:00,52.3,45.0,30.11,NNW,340,0.0,1.0,76,0.00,,BKN050,0.00,VWS V14.01,2013-03-17 07:48:00,
2013-03-17 21:49:00,52.2,44.9,30.12,NNW,340,0.0,0.0,76,0.00,,BKN050,0.00,VWS V14.01,2013-03-17 07:49:00,
2013-03-17 21:50:00,52.1,44.8,30.11,NNW,340,0.0,0.0,76,0.00,,SCT150,0.00,VWS V14.01,2013-03-17 07:50:00,
2013-03-17 21:51:00,52.1,44.8,30.11,NNW,340,0.0,0.0,76,0.00,,BKN050,0.00,VWS V14.01,2013-03-17 07:51:00,
2013-03-17 21:52:00,52.1,44.8,30.11,NNW,340,0.0,0.0,76,0.00,,BKN050,0.00,VWS V14.01,2013-03-17 07:52:00,
2013-03-17 21:53:00,52.1,45.1,30.11,NNW,340,0.0,0.0,77,0.00,,BKN050,0.00,VWS V14.01,2013-03-17 07:53:00,
2013-03-17 21:54:00,52.0,45.0,30.11,NNW,340,0.0,0.0,77,0.00,,BKN050,0.00,VWS V14.01,2013-03-17 07:54:00,
2013-03-17 21:55:00,51.8,44.8,30.11,NNW,340,0.0,0.0,77,0.00,,SCT150,0.00,VWS V14.01,2013-03-17 07:55:00,
2013-03-17 21:56:00,51.8,44.5,30.12,NNW,340,0.0,0.0,76,0.00,,BKN050,0.00,VWS V14.01,2013-03-17 07:56:00,
2013-03-17 21:57:00,51.7,44.7,30.11,NNW,340,0.0,0.0,77,0.00,,BKN050,0.00,VWS V14.01,2013-03-17 07:57:00,
2013-03-17 21:58:00,51.6,44.6,30.11,NNW,340,0.0,0.0,77,0.00,,BKN050,0.00,VWS V14.01,2013-03-17 07:58:00,
2013-03-17 21:59:00,51.5,44.5,30.11,NNW,340,0.0,0.0,77,0.00,,BKN050,0.00,VWS V14.01,2013-03-17 07:59:00,
2013-03-17 22:00:00,51.2,44.6,30.11,NNW,340,0.0,0.0,78,0.00,,SCT150,0.00,VWS V14.01,2013-03-17 08:00:00,
2013-03-17 22:01:00,51.2,44.2,30.11,NNW,340,0.0,0.0,77,0.00,,BKN050,0.00,VWS V14.01,2013-03-17 08:01:00,
2013-03-17 22:02:00,51.0,44.4,30.11,NNW,340,0.0,0.0,78,0.00,,BKN050,0.00,VWS V14.01,2013-03-17 08:02:00,
2013-03-17 22:04:00,50.8,44.2,30.11,NNW,340,0.0,0.0,78,0.00,,BKN050,0.00,VWS V14.01,2013-03-17 08:04:00,
2013-03-17 22:05:00,50.6,44.3,30.11,NNW,340,0.0,0.0,79,0.00,,SCT150,0.00,VWS V14.01,2013-03-17 08:05:00,
2013-03-17 22:06:00,50.6,44.3,30.11,NNW,340,0.0,1.0,79,0.00,,BKN050,0.00,VWS V14.01,2013-03-17 08:06:00,
2013-03-17 22:07:00,50.5,44.2,30.11,NNW,340,0.0,0.0,79,0.00,,BKN050,0.00,VWS V14.01,2013-03-17 08:07:00,
2013-03-17 22:08:00,50.4,44.1,30.12,NNW,340,0.0,0.0,79,0.00,,BKN050,0.00,VWS V14.01,2013-03-17 08:08:00,
2013-03-17 22:09:00,50.4,44.5,30.12,NNW,340,0.0,0.0,80,0.00,,BKN050,0.00,VWS V14.01,2013-03-17 08:09:00,
2013-03-17 22:10:00,50.3,44.4,30.12,NNW,340,0.0,0.0,80,0.00,,SCT150,0.00,VWS V14.01,2013-03-17 08:10:00,
2013-03-17 22:12:00,50.3,44.4,30.12,NNW,340,0.0,0.0,80,0.00,,BKN050,0.00,VWS V14.01,2013-03-17 08:12:00,
2013-03-17 22:13:00,50.3,44.4,30.12,NNW,340,0.0,0.0,80,0.00,,BKN050,0.00,VWS V14.01,2013-03-17 08:13:00,
2013-03-17 22:15:00,50.2,44.3,30.12,NNW,340,1.0,1.0,80,0.00,,SCT150,0.00,VWS V14.01,2013-03-17 08:15:00,
2013-03-17 22:20:00,50.1,44.5,30.11,NNW,340,0.0,0.0,81,0.00,,SCT150,0.00,VWS V14.01,2013-03-17 08:20:00,
2013-03-17 22:21:00,50.1,44.5,30.11,NNW,340,0.0,1.0,81,0.00,,BKN050,0.00,VWS V14.01,2013-03-17 08:21:00,
2013-03-17 22:22:00,50.1,44.5,30.11,NNW,340,0.0,1.0,81,0.00,,BKN050,0.00,VWS V14.01,2013-03-17 08:22:00,
2013-03-17 22:23:00,50.2,44.6,30.12,NNW,340,0.0,0.0,81,0.00,,BKN050,0.00,VWS V14.01,2013-03-17 08:23:00,
2013-03-17 22:25:00,50.4,44.8,30.12,NNW,340,0.0,0.0,81,0.00,,SCT150,0.00,VWS V14.01,2013-03-17 08:25:00,
2013-03-17 22:29:00,50.6,44.7,30.12,NNW,340,0.0,0.0,80,0.00,,BKN050,0.00,VWS V14.01,2013-03-17 08:29:00,
2013-03-17 22:30:00,50.5,44.6,30.12,NNW,340,0.0,0.0,80,0.00,,SCT150,0.00,VWS V14.01,2013-03-17 08:30:00,
2013-03-17 22:34:00,50.4,44.5,30.12,NNW,340,0.0,3.0,80,0.00,,BKN050,0.00,VWS V14.01,2013-03-17 08:34:00,
2013-03-17 22:35:00,50.5,44.6,30.12,NNW,340,1.0,1.0,80,0.00,,SCT150,0.00,VWS V14.01,2013-03-17 08:35:00,
2013-03-17 22:37:00,50.6,44.7,30.12,NNW,340,0.0,1.0,80,0.00,,BKN050,0.00,VWS V14.01,2013-03-17 08:37:00,
2013-03-17 22:39:00,50.6,44.3,30.12,NNW,340,0.0,1.0,79,0.00,,BKN050,0.00,VWS V14.01,2013-03-17 08:39:00,
2013-03-17 22:40:00,50.6,44.3,30.12,NNW,340,1.0,2.0,79,0.00,,SCT150,0.00,VWS V14.01,2013-03-17 08:40:00,
2013-03-17 22:41:00,50.5,44.2,30.12,NNW,340,2.0,2.0,79,0.00,,BKN050,0.00,VWS V14.01,2013-03-17 08:41:00,
2013-03-17 22:43:00,50.6,44.3,30.12,West,273,0.0,3.0,79,0.00,,BKN050,0.00,VWS V14.01,2013-03-17 08:43:00,
2013-03-17 22:44:00,50.7,44.8,30.12,West,273,0.0,2.0,80,0.00,,BKN050,0.00,VWS V14.01,2013-03-17 08:44:00,
2013-03-17 22:45:00,50.9,44.6,30.12,West,273,0.0,0.0,79,0.00,,SCT150,0.00,VWS V14.01,2013-03-17 08:45:00,
2013-03-17 22:49:00,51.0,44.4,30.12,West,273,0.0,0.0,78,0.00,,SCT150,0.00,VWS V14.01,2013-03-17 08:49:00,
2013-03-17 22:50:00,51.1,44.8,30.12,West,273,0.0,1.0,79,0.00,,BKN050,0.00,VWS V14.01,2013-03-17 08:50:00,
2013-03-17 22:51:00,51.0,44.4,30.12,West,273,0.0,0.0,78,0.00,,BKN050,0.00,VWS V14.01,2013-03-17 08:51:00,
2013-03-17 22:53:00,51.0,44.7,30.12,West,273,0.0,0.0,79,0.00,,BKN050,0.00,VWS V14.01,2013-03-17 08:53:00,
2013-03-17 22:54:00,50.6,44.3,30.12,West,273,0.0,0.0,79,0.00,,SCT150,0.00,VWS V14.01,2013-03-17 08:54:00,
2013-03-17 22:56:00,50.7,44.4,30.12,West,273,0.0,0.0,79,0.00,,BKN050,0.00,VWS V14.01,2013-03-17 08:56:00,
2013-03-17 22:58:00,50.4,44.1,30.12,West,273,0.0,0.0,79,0.00,,BKN050,0.00,VWS V14.01,2013-03-17 08:58:00,
2013-03-17 22:59:00,50.1,44.2,30.12,West,273,0.0,0.0,80,0.00,,SCT150,0.00,VWS V14.01,2013-03-17 08:59:00,
2013-03-17 23:00:00,50.1,43.8,30.12,West,273,0.0,0.0,79,0.00,,BKN050,0.00,VWS V14.01,2013-03-17 09:00:00,
2013-03-17 23:01:00,50.1,44.2,30.12,West,273,0.0,0.0,80,0.00,,BKN050,0.00,VWS V14.01,2013-03-17 09:01:00,
2013-03-17 23:02:00,50.0,44.1,30.12,West,273,0.0,0.0,80,0.00,,BKN050,0.00,VWS V14.01,2013-03-17 09:02:00,
2013-03-17 23:03:00,49.9,44.0,30.12,West,273,0.0,0.0,80,0.00,,BKN050,0.00,VWS V14.01,2013-03-17 09:03:00,
2013-03-17 23:04:00,49.8,43.9,30.12,West,273,0.0,0.0,80,0.00,,SCT150,0.00,VWS V14.01,2013-03-17 09:04:00,
2013-03-17 23:09:00,49.5,43.9,30.12,West,273,0.0,0.0,81,0.00,,SCT150,0.00,VWS V14.01,2013-03-17 09:09:00,
2013-03-17 23:10:00,49.5,43.9,30.12,West,273,0.0,0.0,81,0.00,,BKN050,0.00,VWS V14.01,2013-03-17 09:10:00,
2013-03-17 23:11:00,49.5,43.9,30.12,West,273,0.0,1.0,81,0.00,,BKN050,0.00,VWS V14.01,2013-03-17 09:11:00,
2013-03-17 23:12:00,49.4,43.8,30.12,West,273,0.0,0.0,81,0.00,,BKN050,0.00,VWS V14.01,2013-03-17 09:12:00,
2013-03-17 23:13:00,49.3,43.7,30.12,West,273,0.0,0.0,81,0.00,,BKN050,0.00,VWS V14.01,2013-03-17 09:13:00,
2013-03-17 23:14:00,49.0,43.4,30.12,West,273,0.0,0.0,81,0.00,,SCT150,0.00,VWS V14.01,2013-03-17 09:14:00,
2013-03-17 23:16:00,49.0,43.4,30.12,West,273,0.0,0.0,81,0.00,,BKN050,0.00,VWS V14.01,2013-03-17 09:16:00,
2013-03-17 23:17:00,48.9,43.7,30.12,West,273,0.0,0.0,82,0.00,,BKN050,0.00,VWS V14.01,2013-03-17 09:17:00,
2013-03-17 23:18:00,48.8,43.6,30.12,West,273,0.0,0.0,82,0.00,,BKN050,0.00,VWS V14.01,2013-03-17 09:18:00,
2013-03-17 23:19:00,48.7,43.5,30.13,West,273,0.0,0.0,82,0.00,,SCT150,0.00,VWS V14.01,2013-03-17 09:19:00,
2013-03-17 23:20:00,48.8,43.6,30.12,West,273,0.0,0.0,82,0.00,,BKN050,0.00,VWS V14.01,2013-03-17 09:20:00,
2013-03-17 23:21:00,48.7,43.5,30.12,West,273,0.0,0.0,82,0.00,,BKN050,0.00,VWS V14.01,2013-03-17 09:21:00,
2013-03-17 23:22:00,48.7,43.5,30.13,West,273,0.0,0.0,82,0.00,,BKN050,0.00,VWS V14.01,2013-03-17 09:22:00,
2013-03-17 23:23:00,48.6,43.4,30.12,West,273,0.0,0.0,82,0.00,,BKN050,0.00,VWS V14.01,2013-03-17 09:23:00,
2013-03-17 23:24:00,48.6,43.7,30.12,SW,229,0.0,0.0,83,0.00,,SCT150,0.00,VWS V14.01,2013-03-17 09:24:00,
2013-03-17 23:25:00,48.6,43.7,30.12,SW,229,0.0,1.0,83,0.00,,BKN050,0.00,VWS V14.01,2013-03-17 09:25:00,
2013-03-17 23:26:00,48.6,43.7,30.12,SW,229,0.0,0.0,83,0.00,,BKN050,0.00,VWS V14.01,2013-03-17 09:26:00,
2013-03-17 23:27:00,48.6,43.7,30.12,SW,229,0.0,0.0,83,0.00,,BKN050,0.00,VWS V14.01,2013-03-17 09:27:00,
2013-03-17 23:28:00,48.5,43.6,30.12,SW,229,0.0,0.0,83,0.00,,BKN050,0.00,VWS V14.01,2013-03-17 09:28:00,
2013-03-17 23:29:00,48.4,43.5,30.12,SW,229,0.0,1.0,83,0.00,,SCT150,0.00,VWS V14.01,2013-03-17 09:29:00,
2013-03-17 23:30:00,48.4,43.5,30.12,SW,229,0.0,1.0,83,0.00,,BKN050,0.00,VWS V14.01,2013-03-17 09:30:00,
2013-03-17 23:31:00,48.4,43.5,30.12,SW,229,0.0,1.0,83,0.00,,BKN050,0.00,VWS V14.01,2013-03-17 09:31:00,
2013-03-17 23:32:00,48.4,43.8,30.12,SW,229,0.0,1.0,84,0.00,,BKN050,0.00,VWS V14.01,2013-03-17 09:32:00,
2013-03-17 23:34:00,48.5,43.9,30.12,SW,229,0.0,0.0,84,0.00,,SCT150,0.00,VWS V14.01,2013-03-17 09:34:00,
2013-03-17 23:35:00,48.5,43.9,30.12,SW,229,0.0,0.0,84,0.00,,BKN050,0.00,VWS V14.01,2013-03-17 09:35:00,
2013-03-17 23:36:00,48.5,43.6,30.12,SW,229,0.0,0.0,83,0.00,,BKN050,0.00,VWS V14.01,2013-03-17 09:36:00,
2013-03-17 23:37:00,48.4,43.5,30.12,SW,229,0.0,0.0,83,0.00,,BKN050,0.00,VWS V14.01,2013-03-17 09:37:00,
2013-03-17 23:38:00,48.4,43.5,30.12,SW,229,0.0,1.0,83,0.00,,BKN050,0.00,VWS V14.01,2013-03-17 09:38:00,
2013-03-17 23:39:00,48.4,43.8,30.12,SW,229,0.0,0.0,84,0.00,,SCT150,0.00,VWS V14.01,2013-03-17 09:39:00,
2013-03-17 23:42:00,48.4,43.5,30.12,SW,229,0.0,0.0,83,0.00,,BKN050,0.00,VWS V14.01,2013-03-17 09:42:00,
2013-03-17 23:43:00,48.3,43.4,30.13,SW,229,0.0,0.0,83,0.00,,BKN050,0.00,VWS V14.01,2013-03-17 09:43:00,
2013-03-17 23:44:00,48.1,43.5,30.13,SW,229,0.0,0.0,84,0.00,,SCT150,0.00,VWS V14.01,2013-03-17 09:44:00,
2013-03-17 23:45:00,48.2,43.6,30.13,SW,229,0.0,0.0,84,0.00,,BKN050,0.00,VWS V14.01,2013-03-17 09:45:00,
2013-03-17 23:46:00,48.1,43.5,30.13,SW,229,0.0,0.0,84,0.00,,BKN050,0.00,VWS V14.01,2013-03-17 09:46:00,
2013-03-17 23:47:00,48.0,43.4,30.13,SW,229,0.0,0.0,84,0.00,,BKN050,0.00,VWS V14.01,2013-03-17 09:47:00,
2013-03-17 23:48:00,47.9,43.3,30.13,SW,229,0.0,0.0,84,0.00,,BKN050,0.00,VWS V14.01,2013-03-17 09:48:00,
2013-03-17 23:49:00,47.8,43.2,30.13,SW,229,0.0,0.0,84,0.00,,SCT150,0.00,VWS V14.01,2013-03-17 09:49:00,
2013-03-17 23:50:00,47.8,43.2,30.13,SW,229,0.0,0.0,84,0.00,,BKN050,0.00,VWS V14.01,2013-03-17 09:50:00,
2013-03-17 23:51:00,47.8,43.2,30.13,SW,229,0.0,0.0,84,0.00,,BKN050,0.00,VWS V14.01,2013-03-17 09:51:00,
2013-03-17 23:52:00,47.8,43.2,30.13,SW,229,0.0,0.0,84,0.00,,BKN050,0.00,VWS V14.01,2013-03-17 09:52:00,
2013-03-17 23:53:00,47.8,43.2,30.13,SW,229,0.0,0.0,84,0.00,,BKN050,0.00,VWS V14.01,2013-03-17 09:53:00,
2013-03-17 23:54:00,47.6,43.0,30.13,SW,229,0.0,0.0,84,0.00,,SCT150,0.00,VWS V14.01,2013-03-17 09:54:00,
2013-03-17 23:55:00,47.7,43.1,30.13,SW,229,0.0,0.0,84,0.00,,BKN050,0.00,VWS V14.01,2013-03-17 09:55:00,
2013-03-17 23:57:00,47.6,43.0,30.13,SW,229,0.0,0.0,84,0.00,,BKN050,0.00,VWS V14.01,2013-03-17 09:57:00,
2013-03-17 23:59:00,47.2,42.9,30.13,SW,229,0.0,0.0,85,0.00,,SCT150,0.00,VWS V14.01,2013-03-17 09:59:00,